<?xml version='1.0' encoding='UTF-8'?><gpx version="1.1" creator="JPX - https://github.com/jenetics/jpx" xmlns="http://www.topografix.com/GPX/1/1"><trk><trkseg><trkpt lat="45.58056111182844" lon="8.589740373272576"><ele>213.99999999999997</ele><time>2026-04-03T14:03:36Z</time></trkpt><trkpt lat="45.58062676645409" lon="8.589657505164634"><ele>214.0</ele><time>2026-04-03T14:03:41Z</time></trkpt><trkpt lat="45.58069613812852" lon="8.589665238321842"><ele>214.0</ele><time>2026-04-03T14:03:44Z</time></trkpt><trkpt lat="45.580764180326554" lon="8.589727671047632"><ele>214.0</ele><time>2026-04-03T14:03:49Z</time></trkpt><trkpt lat="45.58081624471156" lon="8.589828096727013"><ele>213.99999999999997</ele><time>2026-04-03T14:03:52Z</time></trkpt><trkpt lat="45.580864489241705" lon="8.589888864807113"><ele>214.0</ele><time>2026-04-03T14:04:51.998Z</time></trkpt><trkpt lat="45.58088248687843" lon="8.590001227057478"><ele>213.99999999999997</ele><time>2026-04-03T14:04:54.998Z</time></trkpt><trkpt lat="45.58087923895282" lon="8.590132199461355"><ele>214.0</ele><time>2026-04-03T14:04:56.998Z</time></trkpt><trkpt lat="45.58085468947214" lon="8.590239954409135"><ele>214.0</ele><time>2026-04-03T14:04:58.998Z</time></trkpt><trkpt lat="45.58080195272725" lon="8.590333559949462"><ele>214.0</ele><time>2026-04-03T14:05:00.998Z</time></trkpt><trkpt lat="45.58076089393404" lon="8.590459919664246"><ele>213.99999999999997</ele><time>2026-04-03T14:05:02.998Z</time></trkpt><trkpt lat="45.58072509985109" lon="8.590538373696262"><ele>214.0</ele><time>2026-04-03T14:05:04.998Z</time></trkpt><trkpt lat="45.580672100494" lon="8.590620769393439"><ele>214.2</ele><time>2026-04-03T14:05:07.998Z</time></trkpt><trkpt lat="45.58059973247448" lon="8.590647951865797"><ele>214.39999999999998</ele><time>2026-04-03T14:05:10.998Z</time></trkpt><trkpt lat="45.58052447549541" lon="8.590710285705578"><ele>214.6</ele><time>2026-04-03T14:05:12.998Z</time></trkpt><trkpt lat="45.58045070992603" lon="8.590676805497871"><ele>214.8</ele><time>2026-04-03T14:05:14.999Z</time></trkpt><trkpt lat="45.58030970294183" lon="8.590612769739142"><ele>215.0</ele><time>2026-04-03T14:05:16.999Z</time></trkpt><trkpt lat="45.580223304279876" lon="8.590569696840008"><ele>215.6</ele><time>2026-04-03T14:05:17.999Z</time></trkpt><trkpt lat="45.58015673071366" lon="8.590541711549832"><ele>216.2</ele><time>2026-04-03T14:05:18.999Z</time></trkpt><trkpt lat="45.58005620138281" lon="8.590521716952814"><ele>216.8</ele><time>2026-04-03T14:05:20.999Z</time></trkpt><trkpt lat="45.57993227343983" lon="8.590498703732019"><ele>217.4</ele><time>2026-04-03T14:05:22.999Z</time></trkpt><trkpt lat="45.57987189646075" lon="8.590470504572318"><ele>218.0</ele><time>2026-04-03T14:05:23.999Z</time></trkpt><trkpt lat="45.57977331480488" lon="8.590428452025694"><ele>218.00000000000003</ele><time>2026-04-03T14:05:25.999Z</time></trkpt><trkpt lat="45.57967946404813" lon="8.590398058079037"><ele>218.0</ele><time>2026-04-03T14:05:29.999Z</time></trkpt><trkpt lat="45.579605897770286" lon="8.590409420676561"><ele>218.0</ele><time>2026-04-03T14:05:34.999Z</time></trkpt><trkpt lat="45.579525788054006" lon="8.590421832037707"><ele>218.0</ele><time>2026-04-03T14:05:37.999Z</time></trkpt><trkpt lat="45.57943262077067" lon="8.590472871783941"><ele>218.00000000000003</ele><time>2026-04-03T14:05:41.999Z</time></trkpt><trkpt lat="45.579377296327664" lon="8.590530741456424"><ele>218.0</ele><time>2026-04-03T14:05:43.999Z</time></trkpt><trkpt lat="45.57932672275656" lon="8.59059440863039"><ele>217.50000000000003</ele><time>2026-04-03T14:05:46.999Z</time></trkpt><trkpt lat="45.57927690692323" lon="8.59067358791354"><ele>217.0</ele><time>2026-04-03T14:05:50.999Z</time></trkpt><trkpt lat="45.57923480948322" lon="8.590747078668038"><ele>216.5</ele><time>2026-04-03T14:05:54.999Z</time></trkpt><trkpt lat="45.5791860555485" lon="8.590836001817099"><ele>216.0</ele><time>2026-04-03T14:05:57.999Z</time></trkpt><trkpt lat="45.579148282470996" lon="8.590924701838425"><ele>215.50000000000003</ele><time>2026-04-03T14:06:01.999Z</time></trkpt><trkpt lat="45.57913105357158" lon="8.591025612056058"><ele>215.0</ele><time>2026-04-03T14:06:07.999Z</time></trkpt><trkpt lat="45.57908301355229" lon="8.591127315877321"><ele>215.0</ele><time>2026-04-03T14:06:12.999Z</time></trkpt><trkpt lat="45.5790212835808" lon="8.591101458622207"><ele>215.0</ele><time>2026-04-03T14:06:18.999Z</time></trkpt><trkpt lat="45.5789627348701" lon="8.59104061052526"><ele>215.0</ele><time>2026-04-03T14:06:22.999Z</time></trkpt><trkpt lat="45.57893094669657" lon="8.590922363555102"><ele>215.0</ele><time>2026-04-03T14:06:24.999Z</time></trkpt><trkpt lat="45.57886671207081" lon="8.590826749537786"><ele>215.0</ele><time>2026-04-03T14:06:27.999Z</time></trkpt><trkpt lat="45.57889408113571" lon="8.590743251228405"><ele>215.0</ele><time>2026-04-03T14:06:31.999Z</time></trkpt><trkpt lat="45.57895179544938" lon="8.590696118540535"><ele>215.0</ele><time>2026-04-03T14:06:34.999Z</time></trkpt><trkpt lat="45.579035260126346" lon="8.590669689267514"><ele>215.0</ele><time>2026-04-03T14:06:38.999Z</time></trkpt><trkpt lat="45.57909451132466" lon="8.590634177553438"><ele>215.0</ele><time>2026-04-03T14:06:42.998Z</time></trkpt><trkpt lat="45.579154724300054" lon="8.590603471892743"><ele>215.0</ele><time>2026-04-03T14:06:45.998Z</time></trkpt><trkpt lat="45.57921145009218" lon="8.590553038480238"><ele>215.0</ele><time>2026-04-03T14:06:48.998Z</time></trkpt><trkpt lat="45.57927549754086" lon="8.590506525407847"><ele>215.0</ele><time>2026-04-03T14:07:03.998Z</time></trkpt><trkpt lat="45.57934536530532" lon="8.590483499408087"><ele>215.0</ele><time>2026-04-03T14:07:07.998Z</time></trkpt><trkpt lat="45.5794264362027" lon="8.590458830227293"><ele>215.0</ele><time>2026-04-03T14:07:09.998Z</time></trkpt><trkpt lat="45.5794878987151" lon="8.590424531232452"><ele>215.6</ele><time>2026-04-03T14:07:11.998Z</time></trkpt><trkpt lat="45.579581013051" lon="8.590434691522825"><ele>216.2</ele><time>2026-04-03T14:07:14.998Z</time></trkpt><trkpt lat="45.57965827178165" lon="8.590434727649463"><ele>216.8</ele><time>2026-04-03T14:07:17.998Z</time></trkpt><trkpt lat="45.57975462982401" lon="8.590490517390952"><ele>217.4</ele><time>2026-04-03T14:07:20Z</time></trkpt><trkpt lat="45.579864642481894" lon="8.590546319541918"><ele>218.0</ele><time>2026-04-03T14:07:22Z</time></trkpt><trkpt lat="45.57994018494284" lon="8.59058763728893"><ele>218.00000000000003</ele><time>2026-04-03T14:07:24Z</time></trkpt><trkpt lat="45.58000971998012" lon="8.590706268160373"><ele>218.0</ele><time>2026-04-03T14:07:26Z</time></trkpt><trkpt lat="45.5800458741721" lon="8.59081306452983"><ele>218.0</ele><time>2026-04-03T14:07:27Z</time></trkpt><trkpt lat="45.580074054619786" lon="8.59092577956251"><ele>218.0</ele><time>2026-04-03T14:07:28Z</time></trkpt><trkpt lat="45.58009693340752" lon="8.591043500709103"><ele>218.00000000000003</ele><time>2026-04-03T14:07:29Z</time></trkpt><trkpt lat="45.58012363878223" lon="8.591140892441933"><ele>218.0</ele><time>2026-04-03T14:07:30Z</time></trkpt><trkpt lat="45.58018122776034" lon="8.591273130573603"><ele>217.83333333333334</ele><time>2026-04-03T14:07:32Z</time></trkpt><trkpt lat="45.58014879028435" lon="8.591375982651803"><ele>217.66666666666669</ele><time>2026-04-03T14:07:35Z</time></trkpt><trkpt lat="45.58010622723772" lon="8.591477309351712"><ele>217.5</ele><time>2026-04-03T14:07:38Z</time></trkpt><trkpt lat="45.58004737448568" lon="8.59153254332766"><ele>217.33333333333331</ele><time>2026-04-03T14:07:41Z</time></trkpt><trkpt lat="45.57999912488485" lon="8.59159483015459"><ele>217.16666666666666</ele><time>2026-04-03T14:08:20.999Z</time></trkpt><trkpt lat="45.579989328023714" lon="8.591802275974906"><ele>217.0</ele><time>2026-04-03T14:09:10.998Z</time></trkpt><trkpt lat="45.57995676748459" lon="8.591905097484705"><ele>217.0</ele><time>2026-04-03T14:09:20.998Z</time></trkpt><trkpt lat="45.57989746395216" lon="8.591943072489322"><ele>217.0</ele><time>2026-04-03T14:09:23.998Z</time></trkpt><trkpt lat="45.57982399226366" lon="8.591946463364781"><ele>217.0</ele><time>2026-04-03T14:09:28Z</time></trkpt><trkpt lat="45.579860738747236" lon="8.591832396635226"><ele>217.0</ele><time>2026-04-03T14:10:32.999Z</time></trkpt><trkpt lat="45.57990174118026" lon="8.591759271576102"><ele>217.0</ele><time>2026-04-03T14:15:25.999Z</time></trkpt><trkpt lat="45.579936815609344" lon="8.591667197251434"><ele>217.0</ele><time>2026-04-03T14:15:34.999Z</time></trkpt><trkpt lat="45.57998696415121" lon="8.591606218335883"><ele>217.0</ele><time>2026-04-03T14:15:37.999Z</time></trkpt><trkpt lat="45.58004333803585" lon="8.59150750043113"><ele>216.99999999999997</ele><time>2026-04-03T14:15:42.001Z</time></trkpt><trkpt lat="45.580091216555154" lon="8.59143439072985"><ele>217.0</ele><time>2026-04-03T14:15:45.001Z</time></trkpt><trkpt lat="45.580142858808486" lon="8.59130852956596"><ele>217.0</ele><time>2026-04-03T14:15:47.001Z</time></trkpt><trkpt lat="45.58015025646364" lon="8.59121422685783"><ele>217.0</ele><time>2026-04-03T14:15:48.001Z</time></trkpt><trkpt lat="45.5801445229012" lon="8.591117899133955"><ele>216.99999999999997</ele><time>2026-04-03T14:15:49.001Z</time></trkpt><trkpt lat="45.58013648087696" lon="8.59102727038778"><ele>217.0</ele><time>2026-04-03T14:15:50.001Z</time></trkpt><trkpt lat="45.580173865458065" lon="8.590903395575715"><ele>217.2</ele><time>2026-04-03T14:15:52.001Z</time></trkpt><trkpt lat="45.58028884330788" lon="8.590841503447637"><ele>217.39999999999998</ele><time>2026-04-03T14:15:54.001Z</time></trkpt><trkpt lat="45.58036010916462" lon="8.59085045542573"><ele>217.60000000000002</ele><time>2026-04-03T14:15:55.001Z</time></trkpt><trkpt lat="45.580448761606796" lon="8.590881950944725"><ele>217.8</ele><time>2026-04-03T14:15:56.001Z</time></trkpt><trkpt lat="45.580530182853956" lon="8.590920079311486"><ele>218.0</ele><time>2026-04-03T14:15:57.001Z</time></trkpt><trkpt lat="45.58065223998305" lon="8.590922898433975"><ele>217.4</ele><time>2026-04-03T14:15:59.001Z</time></trkpt><trkpt lat="45.58075072932313" lon="8.590872084002605"><ele>216.8</ele><time>2026-04-03T14:16:00.001Z</time></trkpt><trkpt lat="45.58083911234279" lon="8.59081634284938"><ele>216.2</ele><time>2026-04-03T14:16:01.001Z</time></trkpt><trkpt lat="45.58091051459306" lon="8.590776691021201"><ele>215.6</ele><time>2026-04-03T14:16:02.001Z</time></trkpt><trkpt lat="45.58098403155974" lon="8.590753507616435"><ele>215.0</ele><time>2026-04-03T14:16:03.001Z</time></trkpt><trkpt lat="45.58109577682339" lon="8.590769920360627"><ele>215.00000000000003</ele><time>2026-04-03T14:16:05.001Z</time></trkpt><trkpt lat="45.58115791392517" lon="8.590889593375865"><ele>215.0</ele><time>2026-04-03T14:16:07Z</time></trkpt><trkpt lat="45.581180312904536" lon="8.59102573104928"><ele>215.0</ele><time>2026-04-03T14:16:08Z</time></trkpt><trkpt lat="45.581189719954565" lon="8.591135157315245"><ele>215.0</ele><time>2026-04-03T14:16:09Z</time></trkpt><trkpt lat="45.58120769858188" lon="8.591229286066653"><ele>215.00000000000003</ele><time>2026-04-03T14:16:10Z</time></trkpt><trkpt lat="45.5812190158599" lon="8.591339778546882"><ele>215.0</ele><time>2026-04-03T14:16:11Z</time></trkpt><trkpt lat="45.581235956276856" lon="8.591454350801099"><ele>214.83333333333334</ele><time>2026-04-03T14:16:12Z</time></trkpt><trkpt lat="45.58126355099399" lon="8.591577481526489"><ele>214.66666666666669</ele><time>2026-04-03T14:16:13Z</time></trkpt><trkpt lat="45.58129041229365" lon="8.591715845635711"><ele>214.5</ele><time>2026-04-03T14:16:14Z</time></trkpt><trkpt lat="45.58130863111993" lon="8.591836997414795"><ele>214.33333333333331</ele><time>2026-04-03T14:16:15Z</time></trkpt><trkpt lat="45.581305835227546" lon="8.591941272639726"><ele>214.16666666666666</ele><time>2026-04-03T14:16:16Z</time></trkpt><trkpt lat="45.581313344948924" lon="8.59205395133314"><ele>214.0</ele><time>2026-04-03T14:16:17Z</time></trkpt><trkpt lat="45.58131829689292" lon="8.592149340007332"><ele>213.66666666666666</ele><time>2026-04-03T14:16:18Z</time></trkpt><trkpt lat="45.581320860922936" lon="8.592255473123574"><ele>213.33333333333331</ele><time>2026-04-03T14:16:19Z</time></trkpt><trkpt lat="45.58133486193375" lon="8.592380297698922"><ele>213.0</ele><time>2026-04-03T14:16:20Z</time></trkpt><trkpt lat="45.581354030031314" lon="8.59250418304337"><ele>212.66666666666669</ele><time>2026-04-03T14:16:21Z</time></trkpt><trkpt lat="45.58137656504094" lon="8.592624361051625"><ele>212.33333333333334</ele><time>2026-04-03T14:16:22Z</time></trkpt><trkpt lat="45.5814000112803" lon="8.59274962031903"><ele>212.0</ele><time>2026-04-03T14:16:23Z</time></trkpt><trkpt lat="45.58142156131567" lon="8.592884767557534"><ele>213.0</ele><time>2026-04-03T14:16:24Z</time></trkpt><trkpt lat="45.581448513074534" lon="8.593035580571037"><ele>214.0</ele><time>2026-04-03T14:16:25Z</time></trkpt><trkpt lat="45.581468752551686" lon="8.5931932947412"><ele>215.0</ele><time>2026-04-03T14:16:26Z</time></trkpt><trkpt lat="45.581492485932124" lon="8.593355460394251"><ele>216.0</ele><time>2026-04-03T14:16:27Z</time></trkpt><trkpt lat="45.58152110262254" lon="8.593529276952664"><ele>216.8</ele><time>2026-04-03T14:16:28Z</time></trkpt><trkpt lat="45.58154706320905" lon="8.593691563185914"><ele>217.60000000000002</ele><time>2026-04-03T14:16:29Z</time></trkpt><trkpt lat="45.58156274195269" lon="8.593836372882445"><ele>218.4</ele><time>2026-04-03T14:16:30Z</time></trkpt><trkpt lat="45.58157344800021" lon="8.59397598574164"><ele>219.2</ele><time>2026-04-03T14:16:31Z</time></trkpt><trkpt lat="45.58158190761474" lon="8.59409183342946"><ele>220.0</ele><time>2026-04-03T14:16:32Z</time></trkpt><trkpt lat="45.58160523549487" lon="8.594215098990473"><ele>220.0</ele><time>2026-04-03T14:16:33Z</time></trkpt><trkpt lat="45.58164323604397" lon="8.59435221741483"><ele>220.0</ele><time>2026-04-03T14:16:34Z</time></trkpt><trkpt lat="45.58167753293092" lon="8.594477248032968"><ele>220.0</ele><time>2026-04-03T14:16:35Z</time></trkpt><trkpt lat="45.58170371614" lon="8.594627826432125"><ele>220.0</ele><time>2026-04-03T14:16:36Z</time></trkpt><trkpt lat="45.581738781600535" lon="8.594804901471933"><ele>220.0</ele><time>2026-04-03T14:16:37Z</time></trkpt><trkpt lat="45.581767862599754" lon="8.594996508327055"><ele>219.75</ele><time>2026-04-03T14:16:38Z</time></trkpt><trkpt lat="45.58179128635258" lon="8.595197338389088"><ele>219.5</ele><time>2026-04-03T14:16:39Z</time></trkpt><trkpt lat="45.581821596196384" lon="8.595418484708176"><ele>219.25</ele><time>2026-04-03T14:16:40Z</time></trkpt><trkpt lat="45.58184948695877" lon="8.595616121496905"><ele>219.0</ele><time>2026-04-03T14:16:41Z</time></trkpt><trkpt lat="45.58187322265892" lon="8.595769676166894"><ele>219.5</ele><time>2026-04-03T14:16:42Z</time></trkpt><trkpt lat="45.581889996843074" lon="8.595901681479445"><ele>220.0</ele><time>2026-04-03T14:16:43Z</time></trkpt><trkpt lat="45.58190136956952" lon="8.596013112634113"><ele>220.5</ele><time>2026-04-03T14:16:44Z</time></trkpt><trkpt lat="45.58191232753732" lon="8.596114131994815"><ele>221.0</ele><time>2026-04-03T14:16:45Z</time></trkpt><trkpt lat="45.58195384780191" lon="8.59623453232007"><ele>221.5</ele><time>2026-04-03T14:16:47Z</time></trkpt><trkpt lat="45.58201154198322" lon="8.596279109607176"><ele>222.0</ele><time>2026-04-03T14:16:48Z</time></trkpt><trkpt lat="45.58212252164058" lon="8.596324528610037"><ele>222.0</ele><time>2026-04-03T14:16:49Z</time></trkpt><trkpt lat="45.58222542565155" lon="8.59636927694099"><ele>222.0</ele><time>2026-04-03T14:16:50Z</time></trkpt><trkpt lat="45.582286592069806" lon="8.596412426404942"><ele>222.0</ele><time>2026-04-03T14:16:51Z</time></trkpt><trkpt lat="45.58234658287711" lon="8.596449675918679"><ele>222.0</ele><time>2026-04-03T14:16:52Z</time></trkpt><trkpt lat="45.582421033912894" lon="8.596489994760496"><ele>222.0</ele><time>2026-04-03T14:16:53Z</time></trkpt><trkpt lat="45.58250402182492" lon="8.596539749773996"><ele>222.0</ele><time>2026-04-03T14:16:53.999Z</time></trkpt><trkpt lat="45.58259080384952" lon="8.596592322322847"><ele>222.0</ele><time>2026-04-03T14:16:54.999Z</time></trkpt><trkpt lat="45.58267776830328" lon="8.596644584705315"><ele>222.0</ele><time>2026-04-03T14:16:55.999Z</time></trkpt><trkpt lat="45.58276358837095" lon="8.596712550846966"><ele>222.0</ele><time>2026-04-03T14:16:56.999Z</time></trkpt><trkpt lat="45.58285836908964" lon="8.596775484653607"><ele>222.0</ele><time>2026-04-03T14:16:57.999Z</time></trkpt><trkpt lat="45.58294980216814" lon="8.596830375550356"><ele>222.0</ele><time>2026-04-03T14:16:58.999Z</time></trkpt><trkpt lat="45.5830380885749" lon="8.596881963256589"><ele>221.83333333333334</ele><time>2026-04-03T14:16:59.999Z</time></trkpt><trkpt lat="45.583118700575014" lon="8.596925752402713"><ele>221.66666666666669</ele><time>2026-04-03T14:17:00.999Z</time></trkpt><trkpt lat="45.58319179104598" lon="8.596969495433344"><ele>221.5</ele><time>2026-04-03T14:17:01.999Z</time></trkpt><trkpt lat="45.583273091193035" lon="8.597016969469715"><ele>221.33333333333334</ele><time>2026-04-03T14:17:02.999Z</time></trkpt><trkpt lat="45.58335958071904" lon="8.597070300694945"><ele>221.16666666666669</ele><time>2026-04-03T14:17:03.999Z</time></trkpt><trkpt lat="45.58344556600862" lon="8.597121242134545"><ele>221.0</ele><time>2026-04-03T14:17:04.999Z</time></trkpt><trkpt lat="45.58352907723581" lon="8.597174265398056"><ele>221.00000000000003</ele><time>2026-04-03T14:17:05.999Z</time></trkpt><trkpt lat="45.583612312708354" lon="8.597226378024565"><ele>221.0</ele><time>2026-04-03T14:17:06.999Z</time></trkpt><trkpt lat="45.58369945783383" lon="8.597276560236018"><ele>221.0</ele><time>2026-04-03T14:17:07.999Z</time></trkpt><trkpt lat="45.58377693066772" lon="8.597321209328857"><ele>221.0</ele><time>2026-04-03T14:17:08.999Z</time></trkpt><trkpt lat="45.583849237365634" lon="8.597368120273824"><ele>221.00000000000003</ele><time>2026-04-03T14:17:09.999Z</time></trkpt><trkpt lat="45.58392390795856" lon="8.597421454825303"><ele>221.0</ele><time>2026-04-03T14:17:10.999Z</time></trkpt><trkpt lat="45.58399924025678" lon="8.597476359464709"><ele>221.00000000000003</ele><time>2026-04-03T14:17:11.999Z</time></trkpt><trkpt lat="45.58407919964099" lon="8.597530537978017"><ele>221.0</ele><time>2026-04-03T14:17:12.999Z</time></trkpt><trkpt lat="45.584163811320245" lon="8.597570238119326"><ele>221.0</ele><time>2026-04-03T14:17:13.999Z</time></trkpt><trkpt lat="45.58424417790467" lon="8.597604777789025"><ele>221.0</ele><time>2026-04-03T14:17:14.999Z</time></trkpt><trkpt lat="45.58432042341921" lon="8.597652992228797"><ele>221.00000000000003</ele><time>2026-04-03T14:17:15.999Z</time></trkpt><trkpt lat="45.58439061739624" lon="8.597696067957706"><ele>221.0</ele><time>2026-04-03T14:17:16.999Z</time></trkpt><trkpt lat="45.584456645698815" lon="8.59773805156693"><ele>220.83333333333334</ele><time>2026-04-03T14:17:17.999Z</time></trkpt><trkpt lat="45.58452336042429" lon="8.597776758448008"><ele>220.66666666666669</ele><time>2026-04-03T14:17:18.999Z</time></trkpt><trkpt lat="45.584590291145915" lon="8.5978147112782"><ele>220.5</ele><time>2026-04-03T14:17:19.999Z</time></trkpt><trkpt lat="45.58466094377595" lon="8.597850654118162"><ele>220.33333333333331</ele><time>2026-04-03T14:17:20.999Z</time></trkpt><trkpt lat="45.5847368359383" lon="8.597882585596576"><ele>220.16666666666666</ele><time>2026-04-03T14:17:21.999Z</time></trkpt><trkpt lat="45.584811118626774" lon="8.59791090858502"><ele>220.0</ele><time>2026-04-03T14:17:22.999Z</time></trkpt><trkpt lat="45.58488654829318" lon="8.597925674119884"><ele>219.99999999999997</ele><time>2026-04-03T14:17:23.999Z</time></trkpt><trkpt lat="45.58495827918231" lon="8.597923821530093"><ele>220.0</ele><time>2026-04-03T14:17:24.999Z</time></trkpt><trkpt lat="45.58503306741918" lon="8.597918741382857"><ele>220.0</ele><time>2026-04-03T14:17:25.999Z</time></trkpt><trkpt lat="45.585115079270516" lon="8.597923375054808"><ele>220.0</ele><time>2026-04-03T14:17:26.999Z</time></trkpt><trkpt lat="45.58520204871665" lon="8.597936324856887"><ele>219.99999999999997</ele><time>2026-04-03T14:17:27.999Z</time></trkpt><trkpt lat="45.58527710100644" lon="8.597952498550997"><ele>220.0</ele><time>2026-04-03T14:17:28.999Z</time></trkpt><trkpt lat="45.58534650564143" lon="8.597966221364466"><ele>219.99999999999997</ele><time>2026-04-03T14:17:29.999Z</time></trkpt><trkpt lat="45.58541904502115" lon="8.597974695996328"><ele>220.0</ele><time>2026-04-03T14:17:30.999Z</time></trkpt><trkpt lat="45.58549421108783" lon="8.597983027954623"><ele>220.0</ele><time>2026-04-03T14:17:31.999Z</time></trkpt><trkpt lat="45.585572953308464" lon="8.597994483614029"><ele>220.0</ele><time>2026-04-03T14:17:32.999Z</time></trkpt><trkpt lat="45.5856521750762" lon="8.598006483065346"><ele>219.99999999999997</ele><time>2026-04-03T14:17:33.999Z</time></trkpt><trkpt lat="45.585730470102504" lon="8.59801389062182"><ele>220.0</ele><time>2026-04-03T14:17:34.999Z</time></trkpt><trkpt lat="45.58584086568912" lon="8.59801024968317"><ele>220.0</ele><time>2026-04-03T14:17:36.999Z</time></trkpt><trkpt lat="45.58591270902565" lon="8.597993796781871"><ele>220.0</ele><time>2026-04-03T14:17:38.999Z</time></trkpt><trkpt lat="45.585796783514546" lon="8.59802299995324"><ele>220.0</ele><time>2026-04-03T14:18:57.999Z</time></trkpt><trkpt lat="45.58572099638219" lon="8.598005427837446"><ele>220.0</ele><time>2026-04-03T14:18:58.999Z</time></trkpt><trkpt lat="45.58564181624948" lon="8.597994148980783"><ele>220.0</ele><time>2026-04-03T14:18:59.999Z</time></trkpt><trkpt lat="45.58550299958204" lon="8.597979602925285"><ele>219.99999999999997</ele><time>2026-04-03T14:19:00.999Z</time></trkpt><trkpt lat="45.58541226325728" lon="8.597974744741332"><ele>220.0</ele><time>2026-04-03T14:19:01.999Z</time></trkpt><trkpt lat="45.5853293769912" lon="8.597962381777629"><ele>220.0</ele><time>2026-04-03T14:19:02.999Z</time></trkpt><trkpt lat="45.5852446336534" lon="8.597951176978663"><ele>220.0</ele><time>2026-04-03T14:19:03.999Z</time></trkpt><trkpt lat="45.58515565470235" lon="8.597934200436404"><ele>219.99999999999997</ele><time>2026-04-03T14:19:04.999Z</time></trkpt><trkpt lat="45.58507116417478" lon="8.597922076145442"><ele>220.0</ele><time>2026-04-03T14:19:05.999Z</time></trkpt><trkpt lat="45.58499384505951" lon="8.597922918349271"><ele>219.99999999999997</ele><time>2026-04-03T14:19:06.999Z</time></trkpt><trkpt lat="45.584922589746135" lon="8.597925382342671"><ele>220.0</ele><time>2026-04-03T14:19:07.999Z</time></trkpt><trkpt lat="45.584856187306066" lon="8.597914475712406"><ele>220.0</ele><time>2026-04-03T14:19:08.999Z</time></trkpt><trkpt lat="45.58478842894812" lon="8.597894174806813"><ele>220.0</ele><time>2026-04-03T14:19:09.999Z</time></trkpt><trkpt lat="45.584711304738754" lon="8.59786904793298"><ele>220.0</ele><time>2026-04-03T14:19:10.999Z</time></trkpt><trkpt lat="45.58463330358347" lon="8.59783688809664"><ele>219.99999999999997</ele><time>2026-04-03T14:19:11.999Z</time></trkpt><trkpt lat="45.584566222966814" lon="8.597796381553897"><ele>220.0</ele><time>2026-04-03T14:19:12.999Z</time></trkpt><trkpt lat="45.584503274701085" lon="8.597752114920526"><ele>220.16666666666666</ele><time>2026-04-03T14:19:13.999Z</time></trkpt><trkpt lat="45.584435781281684" lon="8.597719590401297"><ele>220.33333333333331</ele><time>2026-04-03T14:19:14.999Z</time></trkpt><trkpt lat="45.584365837236554" lon="8.597680263356056"><ele>220.5</ele><time>2026-04-03T14:19:15.999Z</time></trkpt><trkpt lat="45.58429872147706" lon="8.59763643823847"><ele>220.66666666666669</ele><time>2026-04-03T14:19:16.999Z</time></trkpt><trkpt lat="45.58421932032046" lon="8.597588454847303"><ele>220.83333333333334</ele><time>2026-04-03T14:19:17.999Z</time></trkpt><trkpt lat="45.58413839207226" lon="8.597540667177437"><ele>221.0</ele><time>2026-04-03T14:19:18.999Z</time></trkpt><trkpt lat="45.58405861166973" lon="8.597488069494007"><ele>221.00000000000003</ele><time>2026-04-03T14:19:19.999Z</time></trkpt><trkpt lat="45.583977685589936" lon="8.597434451999762"><ele>221.0</ele><time>2026-04-03T14:19:20.999Z</time></trkpt><trkpt lat="45.58389800369421" lon="8.59738512588115"><ele>221.0</ele><time>2026-04-03T14:19:21.999Z</time></trkpt><trkpt lat="45.583817291558894" lon="8.597341246945495"><ele>221.0</ele><time>2026-04-03T14:19:22.999Z</time></trkpt><trkpt lat="45.58373694026826" lon="8.597293964887793"><ele>221.00000000000003</ele><time>2026-04-03T14:19:23.999Z</time></trkpt><trkpt lat="45.58365756285237" lon="8.597242205517917"><ele>221.0</ele><time>2026-04-03T14:19:24.999Z</time></trkpt><trkpt lat="45.583574159223765" lon="8.597197899524325"><ele>221.00000000000003</ele><time>2026-04-03T14:19:25.999Z</time></trkpt><trkpt lat="45.583492635437835" lon="8.597149827373194"><ele>221.0</ele><time>2026-04-03T14:19:26.999Z</time></trkpt><trkpt lat="45.58341099173894" lon="8.59709984728177"><ele>221.0</ele><time>2026-04-03T14:19:27.999Z</time></trkpt><trkpt lat="45.58332917525256" lon="8.597050259276966"><ele>221.0</ele><time>2026-04-03T14:19:28.999Z</time></trkpt><trkpt lat="45.583251859318615" lon="8.59700299266559"><ele>221.00000000000003</ele><time>2026-04-03T14:19:29.999Z</time></trkpt><trkpt lat="45.58316885903883" lon="8.596953720964684"><ele>221.0</ele><time>2026-04-03T14:19:30.999Z</time></trkpt><trkpt lat="45.583089290502706" lon="8.596909286695983"><ele>221.00000000000003</ele><time>2026-04-03T14:19:31.999Z</time></trkpt><trkpt lat="45.58301472399112" lon="8.59686452908205"><ele>221.0</ele><time>2026-04-03T14:19:32.999Z</time></trkpt><trkpt lat="45.58293492647092" lon="8.596818359850216"><ele>221.0</ele><time>2026-04-03T14:19:33.999Z</time></trkpt><trkpt lat="45.58285195404484" lon="8.596768961499182"><ele>221.0</ele><time>2026-04-03T14:19:34.999Z</time></trkpt><trkpt lat="45.582763673157444" lon="8.596719396412855"><ele>221.00000000000003</ele><time>2026-04-03T14:19:35.999Z</time></trkpt><trkpt lat="45.58267511092173" lon="8.596661995810207"><ele>221.0</ele><time>2026-04-03T14:19:36.999Z</time></trkpt><trkpt lat="45.582592810073066" lon="8.596607858279055"><ele>221.16666666666669</ele><time>2026-04-03T14:19:37.999Z</time></trkpt><trkpt lat="45.58251073294718" lon="8.596559843103668"><ele>221.33333333333334</ele><time>2026-04-03T14:19:38.999Z</time></trkpt><trkpt lat="45.582433090688184" lon="8.59651523214703"><ele>221.5</ele><time>2026-04-03T14:19:39.999Z</time></trkpt><trkpt lat="45.58236624788733" lon="8.59647215357507"><ele>221.66666666666669</ele><time>2026-04-03T14:19:40.999Z</time></trkpt><trkpt lat="45.582314227211164" lon="8.596420383346693"><ele>221.83333333333334</ele><time>2026-04-03T14:19:41.999Z</time></trkpt><trkpt lat="45.58226373678378" lon="8.596348946153528"><ele>222.0</ele><time>2026-04-03T14:19:42.999Z</time></trkpt><trkpt lat="45.58221055217113" lon="8.596250171069535"><ele>221.83333333333334</ele><time>2026-04-03T14:19:43.998Z</time></trkpt><trkpt lat="45.58216692264266" lon="8.596145984155116"><ele>221.66666666666669</ele><time>2026-04-03T14:19:44.998Z</time></trkpt><trkpt lat="45.5821328087617" lon="8.596042731204088"><ele>221.5</ele><time>2026-04-03T14:19:45.998Z</time></trkpt><trkpt lat="45.58209899112323" lon="8.595947354066967"><ele>221.33333333333334</ele><time>2026-04-03T14:19:46.998Z</time></trkpt><trkpt lat="45.582060315523876" lon="8.595856912435044"><ele>221.16666666666669</ele><time>2026-04-03T14:19:47.998Z</time></trkpt><trkpt lat="45.58201896691468" lon="8.595761404756292"><ele>221.0</ele><time>2026-04-03T14:19:48.998Z</time></trkpt><trkpt lat="45.581980427140266" lon="8.595659718768873"><ele>221.2857142857143</ele><time>2026-04-03T14:19:49.998Z</time></trkpt><trkpt lat="45.581945684814194" lon="8.595561582668656"><ele>221.57142857142858</ele><time>2026-04-03T14:19:50.998Z</time></trkpt><trkpt lat="45.5819121406659" lon="8.595453750544928"><ele>221.85714285714286</ele><time>2026-04-03T14:19:51.998Z</time></trkpt><trkpt lat="45.58188172457468" lon="8.595342718591116"><ele>222.14285714285717</ele><time>2026-04-03T14:19:52.998Z</time></trkpt><trkpt lat="45.58185314856604" lon="8.595244155915568"><ele>222.42857142857142</ele><time>2026-04-03T14:19:54.001Z</time></trkpt><trkpt lat="45.581830620821776" lon="8.59515706864462"><ele>222.71428571428572</ele><time>2026-04-03T14:19:55.001Z</time></trkpt><trkpt lat="45.5818048607813" lon="8.595074640152198"><ele>223.0</ele><time>2026-04-03T14:19:56.001Z</time></trkpt><trkpt lat="45.581776426162705" lon="8.594977354688204"><ele>222.49999999999997</ele><time>2026-04-03T14:19:57.001Z</time></trkpt><trkpt lat="45.58175010737376" lon="8.594868394514068"><ele>222.0</ele><time>2026-04-03T14:19:58.001Z</time></trkpt><trkpt lat="45.58172808443414" lon="8.594744822505211"><ele>221.5</ele><time>2026-04-03T14:19:59.001Z</time></trkpt><trkpt lat="45.581704208802776" lon="8.594612598578928"><ele>221.0</ele><time>2026-04-03T14:20:00.001Z</time></trkpt><trkpt lat="45.58167338018654" lon="8.59447865441579"><ele>220.49999999999997</ele><time>2026-04-03T14:20:01.001Z</time></trkpt><trkpt lat="45.58164996097934" lon="8.594362027758965"><ele>220.0</ele><time>2026-04-03T14:20:02.001Z</time></trkpt><trkpt lat="45.58162132431855" lon="8.594236119211404"><ele>219.99999999999997</ele><time>2026-04-03T14:20:03.001Z</time></trkpt><trkpt lat="45.58159008575311" lon="8.59411344328714"><ele>220.0</ele><time>2026-04-03T14:20:04.001Z</time></trkpt><trkpt lat="45.58157173684762" lon="8.59401556096413"><ele>220.0</ele><time>2026-04-03T14:20:05.001Z</time></trkpt><trkpt lat="45.58156286297157" lon="8.593900742493647"><ele>220.0</ele><time>2026-04-03T14:20:06.001Z</time></trkpt><trkpt lat="45.58155960018568" lon="8.593773237974656"><ele>219.99999999999997</ele><time>2026-04-03T14:20:07.001Z</time></trkpt><trkpt lat="45.58155192300064" lon="8.593647615110656"><ele>220.0</ele><time>2026-04-03T14:20:08.001Z</time></trkpt><trkpt lat="45.581541013764294" lon="8.593524135792707"><ele>219.2</ele><time>2026-04-03T14:20:09.001Z</time></trkpt><trkpt lat="45.58152720995583" lon="8.593388139710298"><ele>218.4</ele><time>2026-04-03T14:20:10.001Z</time></trkpt><trkpt lat="45.58151597751816" lon="8.593247181007145"><ele>217.60000000000002</ele><time>2026-04-03T14:20:11Z</time></trkpt><trkpt lat="45.581500374760246" lon="8.593109127162904"><ele>216.8</ele><time>2026-04-03T14:20:12Z</time></trkpt><trkpt lat="45.58147574180529" lon="8.592975619690447"><ele>216.0</ele><time>2026-04-03T14:20:13Z</time></trkpt><trkpt lat="45.58145634819323" lon="8.592853230326241"><ele>215.33333333333334</ele><time>2026-04-03T14:20:14Z</time></trkpt><trkpt lat="45.58143775878412" lon="8.592742470708686"><ele>214.66666666666669</ele><time>2026-04-03T14:20:15Z</time></trkpt><trkpt lat="45.58142378110262" lon="8.592636140816044"><ele>214.0</ele><time>2026-04-03T14:20:16Z</time></trkpt><trkpt lat="45.58140651952348" lon="8.592533920610931"><ele>213.33333333333334</ele><time>2026-04-03T14:20:17Z</time></trkpt><trkpt lat="45.581386269024165" lon="8.592442331131089"><ele>212.66666666666669</ele><time>2026-04-03T14:20:18Z</time></trkpt><trkpt lat="45.58135955272455" lon="8.59233292575233"><ele>212.0</ele><time>2026-04-03T14:20:19Z</time></trkpt><trkpt lat="45.581335570202" lon="8.592190787404865"><ele>212.00000000000003</ele><time>2026-04-03T14:20:20Z</time></trkpt><trkpt lat="45.58131173535886" lon="8.592049309949058"><ele>212.0</ele><time>2026-04-03T14:20:21Z</time></trkpt><trkpt lat="45.581308670816995" lon="8.591928943245671"><ele>212.0</ele><time>2026-04-03T14:20:22Z</time></trkpt><trkpt lat="45.581304056700645" lon="8.59181986791225"><ele>212.0</ele><time>2026-04-03T14:20:23Z</time></trkpt><trkpt lat="45.58130234358851" lon="8.59171502228201"><ele>212.00000000000003</ele><time>2026-04-03T14:20:24Z</time></trkpt><trkpt lat="45.5812946909723" lon="8.591616933583117"><ele>212.0</ele><time>2026-04-03T14:20:25Z</time></trkpt><trkpt lat="45.58127483431171" lon="8.591497434545058"><ele>212.39999999999998</ele><time>2026-04-03T14:20:26Z</time></trkpt><trkpt lat="45.58125669660496" lon="8.591368951971393"><ele>212.79999999999998</ele><time>2026-04-03T14:20:27Z</time></trkpt><trkpt lat="45.58123117441842" lon="8.591254356968868"><ele>213.2</ele><time>2026-04-03T14:20:28Z</time></trkpt><trkpt lat="45.58122537740118" lon="8.591092285162718"><ele>213.6</ele><time>2026-04-03T14:20:30Z</time></trkpt><trkpt lat="45.58120775978556" lon="8.590959905339739"><ele>214.0</ele><time>2026-04-03T14:20:32Z</time></trkpt><trkpt lat="45.581186974509826" lon="8.590840340161677"><ele>214.00000000000003</ele><time>2026-04-03T14:20:34Z</time></trkpt><trkpt lat="45.58117623366665" lon="8.590733880430921"><ele>214.0</ele><time>2026-04-03T14:20:36Z</time></trkpt><trkpt lat="45.58116901020006" lon="8.590644109041817"><ele>214.0</ele><time>2026-04-03T14:20:40Z</time></trkpt><trkpt lat="45.581233643722186" lon="8.590596683736498"><ele>214.0</ele><time>2026-04-03T14:20:43Z</time></trkpt><trkpt lat="45.58130457583729" lon="8.590581510155781"><ele>214.0</ele><time>2026-04-03T14:20:46Z</time></trkpt><trkpt lat="45.58138365605038" lon="8.59060469580537"><ele>214.00000000000003</ele><time>2026-04-03T14:20:49Z</time></trkpt><trkpt lat="45.581454833695496" lon="8.5905859905846"><ele>214.0</ele><time>2026-04-03T14:20:52.999Z</time></trkpt><trkpt lat="45.581531876193424" lon="8.590582262061368"><ele>214.00000000000003</ele><time>2026-04-03T14:20:57.999Z</time></trkpt><trkpt lat="45.58161065291921" lon="8.590563279573352"><ele>214.0</ele><time>2026-04-03T14:21:01.999Z</time></trkpt><trkpt lat="45.581651123044445" lon="8.590484257678357"><ele>214.0</ele><time>2026-04-03T14:21:04.999Z</time></trkpt><trkpt lat="45.581686295173725" lon="8.590408192177135"><ele>214.0</ele><time>2026-04-03T14:21:07.999Z</time></trkpt><trkpt lat="45.581732888768435" lon="8.590318392712254"><ele>214.0</ele><time>2026-04-03T14:21:10.999Z</time></trkpt><trkpt lat="45.58178096881212" lon="8.59025900149196"><ele>214.00000000000003</ele><time>2026-04-03T14:21:15.999Z</time></trkpt><trkpt lat="45.58185406103337" lon="8.590234821299884"><ele>214.0</ele><time>2026-04-03T14:21:29.999Z</time></trkpt><trkpt lat="45.581912821644856" lon="8.590289578651227"><ele>214.00000000000003</ele><time>2026-04-03T14:21:45.998Z</time></trkpt><trkpt lat="45.58195664395989" lon="8.590381775033784"><ele>214.0</ele><time>2026-04-03T14:21:48.998Z</time></trkpt><trkpt lat="45.58203128297056" lon="8.590414968554292"><ele>214.0</ele><time>2026-04-03T14:21:51.998Z</time></trkpt><trkpt lat="45.58209366880545" lon="8.59042998425898"><ele>214.0</ele><time>2026-04-03T14:21:59Z</time></trkpt><trkpt lat="45.582136348402024" lon="8.590350481955486"><ele>214.0</ele><time>2026-04-03T14:22:04Z</time></trkpt><trkpt lat="45.582205758286456" lon="8.590292310984477"><ele>214.00000000000003</ele><time>2026-04-03T14:22:09Z</time></trkpt><trkpt lat="45.58225431316554" lon="8.590203937640997"><ele>214.0</ele><time>2026-04-03T14:22:14Z</time></trkpt><trkpt lat="45.582308472219474" lon="8.59013948212409"><ele>214.16666666666666</ele><time>2026-04-03T14:22:18Z</time></trkpt><trkpt lat="45.582377515219264" lon="8.590113159776179"><ele>214.33333333333331</ele><time>2026-04-03T14:22:21Z</time></trkpt><trkpt lat="45.58244618386811" lon="8.590093469326707"><ele>214.5</ele><time>2026-04-03T14:22:24Z</time></trkpt><trkpt lat="45.582511564557535" lon="8.590066678947972"><ele>214.66666666666669</ele><time>2026-04-03T14:22:28Z</time></trkpt><trkpt lat="45.58257466265819" lon="8.590075013097886"><ele>214.83333333333334</ele><time>2026-04-03T14:22:34Z</time></trkpt><trkpt lat="45.582666990022766" lon="8.590119706627016"><ele>215.0</ele><time>2026-04-03T14:22:36Z</time></trkpt><trkpt lat="45.58275245138735" lon="8.590135161923188"><ele>214.50000000000003</ele><time>2026-04-03T14:22:37Z</time></trkpt><trkpt lat="45.5828562533931" lon="8.59016856575982"><ele>214.0</ele><time>2026-04-03T14:22:39Z</time></trkpt><trkpt lat="45.58293132648996" lon="8.590180598378213"><ele>213.5</ele><time>2026-04-03T14:22:41Z</time></trkpt><trkpt lat="45.58304930384529" lon="8.590201694559669"><ele>213.0</ele><time>2026-04-03T14:22:43Z</time></trkpt><trkpt lat="45.583108934346605" lon="8.590239228584753"><ele>212.50000000000003</ele><time>2026-04-03T14:22:44Z</time></trkpt><trkpt lat="45.58317836426827" lon="8.590278778600815"><ele>212.0</ele><time>2026-04-03T14:22:45Z</time></trkpt><trkpt lat="45.58324721282713" lon="8.59030887085826"><ele>211.6</ele><time>2026-04-03T14:22:46Z</time></trkpt><trkpt lat="45.583351961468765" lon="8.590363742250238"><ele>211.2</ele><time>2026-04-03T14:22:47.999Z</time></trkpt><trkpt lat="45.583425268764536" lon="8.590425823295883"><ele>210.8</ele><time>2026-04-03T14:22:49.999Z</time></trkpt><trkpt lat="45.583465686333035" lon="8.590579766417605"><ele>210.4</ele><time>2026-04-03T14:22:51.999Z</time></trkpt><trkpt lat="45.58354195172783" lon="8.59068007291709"><ele>210.0</ele><time>2026-04-03T14:22:53.999Z</time></trkpt><trkpt lat="45.58365131753321" lon="8.590674966198014"><ele>209.8</ele><time>2026-04-03T14:22:55.999Z</time></trkpt><trkpt lat="45.58378217428334" lon="8.590644008498332"><ele>209.6</ele><time>2026-04-03T14:23:20.999Z</time></trkpt><trkpt lat="45.58386707466056" lon="8.59060879166331"><ele>209.39999999999998</ele><time>2026-04-03T14:23:21.999Z</time></trkpt><trkpt lat="45.58395248971313" lon="8.590567143039296"><ele>209.2</ele><time>2026-04-03T14:23:22.999Z</time></trkpt><trkpt lat="45.58404476167031" lon="8.590518834823373"><ele>209.0</ele><time>2026-04-03T14:23:23.999Z</time></trkpt><trkpt lat="45.584140522490806" lon="8.590470380917667"><ele>209.0</ele><time>2026-04-03T14:23:24.999Z</time></trkpt><trkpt lat="45.58424436414298" lon="8.590415180018095"><ele>209.0</ele><time>2026-04-03T14:23:25.999Z</time></trkpt><trkpt lat="45.58434514633729" lon="8.590363519534602"><ele>209.0</ele><time>2026-04-03T14:23:26.999Z</time></trkpt><trkpt lat="45.58444012682455" lon="8.590306364294227"><ele>209.0</ele><time>2026-04-03T14:23:27.999Z</time></trkpt><trkpt lat="45.58452227396789" lon="8.59025583688738"><ele>209.0</ele><time>2026-04-03T14:23:28.999Z</time></trkpt><trkpt lat="45.58461879363311" lon="8.59020614667667"><ele>209.0</ele><time>2026-04-03T14:23:29.999Z</time></trkpt><trkpt lat="45.584716362593056" lon="8.590158015238112"><ele>209.0</ele><time>2026-04-03T14:23:30.999Z</time></trkpt><trkpt lat="45.58481902292999" lon="8.59011146370442"><ele>209.0</ele><time>2026-04-03T14:23:31.999Z</time></trkpt><trkpt lat="45.58491199309443" lon="8.590069931422219"><ele>209.0</ele><time>2026-04-03T14:23:32.998Z</time></trkpt><trkpt lat="45.58501066376283" lon="8.590024709019177"><ele>209.0</ele><time>2026-04-03T14:23:33.998Z</time></trkpt><trkpt lat="45.585112206282886" lon="8.589980117699183"><ele>209.0</ele><time>2026-04-03T14:23:34.998Z</time></trkpt><trkpt lat="45.58521459999778" lon="8.589935555531094"><ele>209.0</ele><time>2026-04-03T14:23:35.998Z</time></trkpt><trkpt lat="45.585309593440094" lon="8.589888780792068"><ele>209.0</ele><time>2026-04-03T14:23:36.998Z</time></trkpt><trkpt lat="45.585401343362186" lon="8.589843546863897"><ele>209.0</ele><time>2026-04-03T14:23:37.998Z</time></trkpt><trkpt lat="45.58548804850058" lon="8.589802129464363"><ele>209.0</ele><time>2026-04-03T14:23:38.998Z</time></trkpt><trkpt lat="45.58556987157516" lon="8.589763490581255"><ele>209.0</ele><time>2026-04-03T14:23:39.998Z</time></trkpt><trkpt lat="45.585661796469324" lon="8.589718697019075"><ele>209.0</ele><time>2026-04-03T14:23:40.998Z</time></trkpt><trkpt lat="45.58576112135455" lon="8.589668626443117"><ele>209.0</ele><time>2026-04-03T14:23:41.998Z</time></trkpt><trkpt lat="45.58586781251604" lon="8.589616226178734"><ele>209.0</ele><time>2026-04-03T14:23:42.998Z</time></trkpt><trkpt lat="45.585977158938334" lon="8.589560463778264"><ele>209.0</ele><time>2026-04-03T14:23:43.998Z</time></trkpt><trkpt lat="45.58608756923372" lon="8.589507009438341"><ele>209.25</ele><time>2026-04-03T14:23:44.998Z</time></trkpt><trkpt lat="45.58619816633079" lon="8.589453134740653"><ele>209.5</ele><time>2026-04-03T14:23:45.998Z</time></trkpt><trkpt lat="45.58630624776214" lon="8.58940215304354"><ele>209.75</ele><time>2026-04-03T14:23:46.998Z</time></trkpt><trkpt lat="45.58641892003404" lon="8.589357050518279"><ele>210.0</ele><time>2026-04-03T14:23:47.998Z</time></trkpt><trkpt lat="45.58653466363724" lon="8.589309862669808"><ele>210.0</ele><time>2026-04-03T14:23:48.998Z</time></trkpt><trkpt lat="45.58665515535449" lon="8.589263219955184"><ele>210.0</ele><time>2026-04-03T14:23:49.998Z</time></trkpt><trkpt lat="45.586780188860224" lon="8.589224992949736"><ele>210.0</ele><time>2026-04-03T14:23:50.998Z</time></trkpt><trkpt lat="45.58690499639173" lon="8.58917661994847"><ele>210.0</ele><time>2026-04-03T14:23:51.998Z</time></trkpt><trkpt lat="45.58703357521228" lon="8.589130166001732"><ele>210.0</ele><time>2026-04-03T14:23:52.998Z</time></trkpt><trkpt lat="45.58716077349313" lon="8.589086766430205"><ele>210.0</ele><time>2026-04-03T14:23:53.998Z</time></trkpt><trkpt lat="45.587263238287186" lon="8.589053721243099"><ele>210.0</ele><time>2026-04-03T14:23:54.998Z</time></trkpt><trkpt lat="45.58736066714895" lon="8.58902334479874"><ele>210.0</ele><time>2026-04-03T14:23:55.998Z</time></trkpt><trkpt lat="45.587447202708724" lon="8.588998038512404"><ele>210.0</ele><time>2026-04-03T14:23:56.998Z</time></trkpt><trkpt lat="45.587522545391884" lon="8.588968241680545"><ele>210.0</ele><time>2026-04-03T14:23:57.998Z</time></trkpt><trkpt lat="45.58758604587761" lon="8.588935617807437"><ele>210.0</ele><time>2026-04-03T14:23:58.998Z</time></trkpt><trkpt lat="45.58768087130684" lon="8.58889236126693"><ele>210.0</ele><time>2026-04-03T14:24:00.998Z</time></trkpt><trkpt lat="45.58774596190244" lon="8.588883665039672"><ele>210.0</ele><time>2026-04-03T14:24:03.998Z</time></trkpt><trkpt lat="45.587834810094385" lon="8.589014086973345"><ele>210.0</ele><time>2026-04-03T14:24:28Z</time></trkpt><trkpt lat="45.58787246603527" lon="8.589140644525664"><ele>210.5</ele><time>2026-04-03T14:24:29Z</time></trkpt><trkpt lat="45.58790843693598" lon="8.589283679555873"><ele>211.0</ele><time>2026-04-03T14:24:30Z</time></trkpt><trkpt lat="45.58795499982624" lon="8.58944321618143"><ele>211.5</ele><time>2026-04-03T14:24:31Z</time></trkpt><trkpt lat="45.58800009461901" lon="8.589599874748878"><ele>212.0</ele><time>2026-04-03T14:24:32Z</time></trkpt><trkpt lat="45.588048193468936" lon="8.589760481139313"><ele>212.2</ele><time>2026-04-03T14:24:33Z</time></trkpt><trkpt lat="45.58810186749106" lon="8.589926105475753"><ele>212.39999999999998</ele><time>2026-04-03T14:24:34Z</time></trkpt><trkpt lat="45.58815471378328" lon="8.590084208139444"><ele>212.60000000000002</ele><time>2026-04-03T14:24:35Z</time></trkpt><trkpt lat="45.58821797484535" lon="8.590199887569437"><ele>212.8</ele><time>2026-04-03T14:24:36Z</time></trkpt><trkpt lat="45.588237802352744" lon="8.590299644039565"><ele>213.0</ele><time>2026-04-03T14:24:37Z</time></trkpt><trkpt lat="45.58839821821242" lon="8.59027612638661"><ele>213.0</ele><time>2026-04-03T14:24:40Z</time></trkpt><trkpt lat="45.58850552574299" lon="8.590276846414056"><ele>213.0</ele><time>2026-04-03T14:24:41Z</time></trkpt><trkpt lat="45.58862642098563" lon="8.590293835885738"><ele>213.0</ele><time>2026-04-03T14:24:42Z</time></trkpt><trkpt lat="45.58874591017213" lon="8.590301768967304"><ele>213.0</ele><time>2026-04-03T14:24:43Z</time></trkpt><trkpt lat="45.58885290549745" lon="8.590311109725192"><ele>213.0</ele><time>2026-04-03T14:24:44Z</time></trkpt><trkpt lat="45.588985992767164" lon="8.590319131677145"><ele>213.0</ele><time>2026-04-03T14:24:45Z</time></trkpt><trkpt lat="45.58912598241383" lon="8.590329590319774"><ele>213.0</ele><time>2026-04-03T14:24:46Z</time></trkpt><trkpt lat="45.58924803953888" lon="8.59033206399351"><ele>213.0</ele><time>2026-04-03T14:24:47Z</time></trkpt><trkpt lat="45.58936158120117" lon="8.590338087738582"><ele>213.0</ele><time>2026-04-03T14:24:48Z</time></trkpt><trkpt lat="45.58948274008893" lon="8.590340216801827"><ele>213.0</ele><time>2026-04-03T14:24:49Z</time></trkpt><trkpt lat="45.58959931134335" lon="8.590337634822866"><ele>213.0</ele><time>2026-04-03T14:24:49.999Z</time></trkpt><trkpt lat="45.58971671310316" lon="8.590336017581027"><ele>213.0</ele><time>2026-04-03T14:24:50.999Z</time></trkpt><trkpt lat="45.58983597474428" lon="8.590332820124948"><ele>213.25</ele><time>2026-04-03T14:24:51.999Z</time></trkpt><trkpt lat="45.58994739404306" lon="8.59033263411148"><ele>213.5</ele><time>2026-04-03T14:24:52.999Z</time></trkpt><trkpt lat="45.59006025562559" lon="8.590328730274257"><ele>213.75</ele><time>2026-04-03T14:24:53.999Z</time></trkpt><trkpt lat="45.59017546266764" lon="8.590324988201624"><ele>214.0</ele><time>2026-04-03T14:24:54.999Z</time></trkpt><trkpt lat="45.59028752236754" lon="8.59032202646935"><ele>214.39999999999998</ele><time>2026-04-03T14:24:55.999Z</time></trkpt><trkpt lat="45.590392962587124" lon="8.590318834774191"><ele>214.79999999999998</ele><time>2026-04-03T14:24:56.999Z</time></trkpt><trkpt lat="45.590502005677585" lon="8.590312427439295"><ele>215.20000000000002</ele><time>2026-04-03T14:24:57.999Z</time></trkpt><trkpt lat="45.590596722551794" lon="8.590308277647408"><ele>215.60000000000002</ele><time>2026-04-03T14:24:58.999Z</time></trkpt><trkpt lat="45.590686810502426" lon="8.590305088794585"><ele>216.0</ele><time>2026-04-03T14:24:59.999Z</time></trkpt><trkpt lat="45.59076639727622" lon="8.590300094487311"><ele>216.0</ele><time>2026-04-03T14:25:00.999Z</time></trkpt><trkpt lat="45.59083752850328" lon="8.59029360640169"><ele>216.00000000000003</ele><time>2026-04-03T14:25:01.999Z</time></trkpt><trkpt lat="45.590961344811966" lon="8.590329221428988"><ele>216.00000000000003</ele><time>2026-04-03T14:25:03.999Z</time></trkpt><trkpt lat="45.59104456960712" lon="8.590392403871801"><ele>216.0</ele><time>2026-04-03T14:25:04.999Z</time></trkpt><trkpt lat="45.59114807955476" lon="8.59044106215299"><ele>216.0</ele><time>2026-04-03T14:25:05.999Z</time></trkpt><trkpt lat="45.591240600645484" lon="8.590472046499865"><ele>215.83333333333334</ele><time>2026-04-03T14:25:06.999Z</time></trkpt><trkpt lat="45.59132899219284" lon="8.590517966741238"><ele>215.66666666666669</ele><time>2026-04-03T14:25:07.999Z</time></trkpt><trkpt lat="45.59141321326717" lon="8.590573976430521"><ele>215.5</ele><time>2026-04-03T14:25:08.999Z</time></trkpt><trkpt lat="45.591485219597" lon="8.590636945708924"><ele>215.33333333333334</ele><time>2026-04-03T14:25:09.999Z</time></trkpt><trkpt lat="45.591553678517485" lon="8.590678831473186"><ele>215.16666666666669</ele><time>2026-04-03T14:25:10.999Z</time></trkpt><trkpt lat="45.591633952084244" lon="8.590699005005376"><ele>215.0</ele><time>2026-04-03T14:25:11.999Z</time></trkpt><trkpt lat="45.59173666138849" lon="8.59070486617567"><ele>215.0</ele><time>2026-04-03T14:25:12.999Z</time></trkpt><trkpt lat="45.591850685588824" lon="8.590694432934482"><ele>215.0</ele><time>2026-04-03T14:25:13.999Z</time></trkpt><trkpt lat="45.5919591643368" lon="8.590671203365813"><ele>215.0</ele><time>2026-04-03T14:25:14.999Z</time></trkpt><trkpt lat="45.592065503956846" lon="8.590646107269475"><ele>215.0</ele><time>2026-04-03T14:25:15.999Z</time></trkpt><trkpt lat="45.592171952244904" lon="8.590606704843605"><ele>215.0</ele><time>2026-04-03T14:25:16.999Z</time></trkpt><trkpt lat="45.59226646323917" lon="8.59056837008304"><ele>215.16666666666669</ele><time>2026-04-03T14:25:17.999Z</time></trkpt><trkpt lat="45.59234752616378" lon="8.590524125720275"><ele>215.33333333333334</ele><time>2026-04-03T14:25:18.999Z</time></trkpt><trkpt lat="45.592414815588626" lon="8.59048523449925"><ele>215.5</ele><time>2026-04-03T14:25:19.999Z</time></trkpt><trkpt lat="45.59248771942844" lon="8.590449379779296"><ele>215.66666666666669</ele><time>2026-04-03T14:25:20.999Z</time></trkpt><trkpt lat="45.592552810796946" lon="8.590410777221127"><ele>215.83333333333334</ele><time>2026-04-03T14:25:21.999Z</time></trkpt><trkpt lat="45.59266067455581" lon="8.590361722663987"><ele>216.0</ele><time>2026-04-03T14:25:23.999Z</time></trkpt><trkpt lat="45.59274549501903" lon="8.590362287575443"><ele>216.0</ele><time>2026-04-03T14:25:25.999Z</time></trkpt><trkpt lat="45.59282931064077" lon="8.590552275935508"><ele>216.0</ele><time>2026-04-03T14:25:27.999Z</time></trkpt><trkpt lat="45.59288537231661" lon="8.590709886247677"><ele>216.0</ele><time>2026-04-03T14:25:28.999Z</time></trkpt><trkpt lat="45.5929770684984" lon="8.590855958182368"><ele>216.0</ele><time>2026-04-03T14:25:29.999Z</time></trkpt><trkpt lat="45.593060289430404" lon="8.59098211460051"><ele>216.20000000000002</ele><time>2026-04-03T14:25:30.999Z</time></trkpt><trkpt lat="45.59312935860472" lon="8.591077055535665"><ele>216.40000000000003</ele><time>2026-04-03T14:25:31.999Z</time></trkpt><trkpt lat="45.59321869253267" lon="8.591154555510405"><ele>216.6</ele><time>2026-04-03T14:25:32.999Z</time></trkpt><trkpt lat="45.593316926589154" lon="8.591215342015303"><ele>216.8</ele><time>2026-04-03T14:25:33.999Z</time></trkpt><trkpt lat="45.593401132119496" lon="8.591290489924216"><ele>217.0</ele><time>2026-04-03T14:25:34.999Z</time></trkpt><trkpt lat="45.593480669168144" lon="8.59139227610774"><ele>217.0</ele><time>2026-04-03T14:25:35.999Z</time></trkpt><trkpt lat="45.59353831252795" lon="8.591505982888656"><ele>217.0</ele><time>2026-04-03T14:25:36.998Z</time></trkpt><trkpt lat="45.59357984127638" lon="8.591623387560869"><ele>217.0</ele><time>2026-04-03T14:25:37.998Z</time></trkpt><trkpt lat="45.593620877153356" lon="8.59174919623951"><ele>217.0</ele><time>2026-04-03T14:25:38.998Z</time></trkpt><trkpt lat="45.593672387177726" lon="8.59185955237498"><ele>217.0</ele><time>2026-04-03T14:25:39.998Z</time></trkpt><trkpt lat="45.59373526456774" lon="8.591962236043829"><ele>217.16666666666666</ele><time>2026-04-03T14:25:40.998Z</time></trkpt><trkpt lat="45.593786528283836" lon="8.592063849842814"><ele>217.33333333333331</ele><time>2026-04-03T14:25:41.998Z</time></trkpt><trkpt lat="45.593828731275934" lon="8.592152328960356"><ele>217.5</ele><time>2026-04-03T14:25:42.998Z</time></trkpt><trkpt lat="45.59386931761112" lon="8.592223912603663"><ele>217.66666666666669</ele><time>2026-04-03T14:25:43.998Z</time></trkpt><trkpt lat="45.59393384043867" lon="8.592318076997605"><ele>217.83333333333334</ele><time>2026-04-03T14:25:45.998Z</time></trkpt><trkpt lat="45.59403746233636" lon="8.592264012857386"><ele>218.0</ele><time>2026-04-03T14:25:47.998Z</time></trkpt><trkpt lat="45.59413568942693" lon="8.592180718351317"><ele>218.0</ele><time>2026-04-03T14:25:48.998Z</time></trkpt><trkpt lat="45.594249002931704" lon="8.592130500820296"><ele>218.0</ele><time>2026-04-03T14:25:49.998Z</time></trkpt><trkpt lat="45.594334131386034" lon="8.592091185627147"><ele>218.0</ele><time>2026-04-03T14:25:50.998Z</time></trkpt><trkpt lat="45.59440112673027" lon="8.59205896210575"><ele>218.0</ele><time>2026-04-03T14:25:51.998Z</time></trkpt><trkpt lat="45.594507371311906" lon="8.592028508329463"><ele>218.0</ele><time>2026-04-03T14:25:53.998Z</time></trkpt><trkpt lat="45.594590799533904" lon="8.591996630214817"><ele>218.00000000000003</ele><time>2026-04-03T14:25:55.998Z</time></trkpt><trkpt lat="45.5946606285447" lon="8.591955807709349"><ele>218.0</ele><time>2026-04-03T14:25:57.998Z</time></trkpt><trkpt lat="45.5947232242846" lon="8.591908097306556"><ele>218.0</ele><time>2026-04-03T14:26:00.998Z</time></trkpt><trkpt lat="45.59481727073653" lon="8.591851641314074"><ele>218.0</ele><time>2026-04-03T14:26:02.998Z</time></trkpt><trkpt lat="45.594888896639134" lon="8.591780211857815"><ele>218.00000000000003</ele><time>2026-04-03T14:26:03.998Z</time></trkpt><trkpt lat="45.594964119849735" lon="8.591673697570734"><ele>218.0</ele><time>2026-04-03T14:26:04.998Z</time></trkpt><trkpt lat="45.59502616637252" lon="8.591591645080015"><ele>218.00000000000003</ele><time>2026-04-03T14:26:05.998Z</time></trkpt><trkpt lat="45.595091666331015" lon="8.591521898769145"><ele>218.0</ele><time>2026-04-03T14:26:06.998Z</time></trkpt><trkpt lat="45.59515071805764" lon="8.591450401996639"><ele>218.0</ele><time>2026-04-03T14:26:07.998Z</time></trkpt><trkpt lat="45.595199861519056" lon="8.591377662794194"><ele>218.0</ele><time>2026-04-03T14:26:08.998Z</time></trkpt><trkpt lat="45.59522745322882" lon="8.591285195658095"><ele>218.00000000000003</ele><time>2026-04-03T14:26:09.998Z</time></trkpt><trkpt lat="45.5952219581824" lon="8.591135528491407"><ele>218.0</ele><time>2026-04-03T14:26:12Z</time></trkpt><trkpt lat="45.59528166246665" lon="8.591035556621797"><ele>218.2</ele><time>2026-04-03T14:26:14Z</time></trkpt><trkpt lat="45.5953892617037" lon="8.591013887707316"><ele>218.4</ele><time>2026-04-03T14:26:15Z</time></trkpt><trkpt lat="45.595514841762956" lon="8.590991751356766"><ele>218.59999999999997</ele><time>2026-04-03T14:26:16Z</time></trkpt><trkpt lat="45.59561620903106" lon="8.590960209348165"><ele>218.79999999999998</ele><time>2026-04-03T14:26:17Z</time></trkpt><trkpt lat="45.59569706817333" lon="8.5909320316863"><ele>219.0</ele><time>2026-04-03T14:26:18Z</time></trkpt><trkpt lat="45.595791223503156" lon="8.590916695821798"><ele>219.0</ele><time>2026-04-03T14:26:19Z</time></trkpt><trkpt lat="45.59589842879554" lon="8.59089700374443"><ele>218.99999999999997</ele><time>2026-04-03T14:26:20Z</time></trkpt><trkpt lat="45.59600968861788" lon="8.590872178676095"><ele>218.99999999999997</ele><time>2026-04-03T14:26:21Z</time></trkpt><trkpt lat="45.596116990557164" lon="8.59085467096187"><ele>219.0</ele><time>2026-04-03T14:26:22Z</time></trkpt><trkpt lat="45.596220350466275" lon="8.590832002013848"><ele>219.0</ele><time>2026-04-03T14:26:23Z</time></trkpt><trkpt lat="45.59633143461985" lon="8.590806607278015"><ele>219.0</ele><time>2026-04-03T14:26:24Z</time></trkpt><trkpt lat="45.59647686089764" lon="8.5907781076436"><ele>219.0</ele><time>2026-04-03T14:26:25Z</time></trkpt><trkpt lat="45.59664574593674" lon="8.590739982409136"><ele>219.0</ele><time>2026-04-03T14:26:26Z</time></trkpt><trkpt lat="45.59680988792364" lon="8.590706877833847"><ele>219.0</ele><time>2026-04-03T14:26:27Z</time></trkpt><trkpt lat="45.59694733229978" lon="8.590681360972427"><ele>219.0</ele><time>2026-04-03T14:26:28Z</time></trkpt><trkpt lat="45.59708471509166" lon="8.590661664475798"><ele>219.0</ele><time>2026-04-03T14:26:29Z</time></trkpt><trkpt lat="45.59723075274501" lon="8.590639617848609"><ele>219.0</ele><time>2026-04-03T14:26:30Z</time></trkpt><trkpt lat="45.59738874028583" lon="8.5906137559731"><ele>219.0</ele><time>2026-04-03T14:26:31Z</time></trkpt><trkpt lat="45.59753444440034" lon="8.590592242852104"><ele>219.0</ele><time>2026-04-03T14:26:32Z</time></trkpt><trkpt lat="45.59769278832048" lon="8.59056722471437"><ele>219.0</ele><time>2026-04-03T14:26:33Z</time></trkpt><trkpt lat="45.597845823705086" lon="8.590540757510245"><ele>219.0</ele><time>2026-04-03T14:26:34Z</time></trkpt><trkpt lat="45.59798269269537" lon="8.59051796877246"><ele>219.0</ele><time>2026-04-03T14:26:35Z</time></trkpt><trkpt lat="45.598118512189494" lon="8.590497540926147"><ele>219.0</ele><time>2026-04-03T14:26:36Z</time></trkpt><trkpt lat="45.598259709576084" lon="8.590473742465475"><ele>219.0</ele><time>2026-04-03T14:26:37Z</time></trkpt><trkpt lat="45.59840763959768" lon="8.59044398228884"><ele>219.0</ele><time>2026-04-03T14:26:38Z</time></trkpt><trkpt lat="45.59856007029026" lon="8.59041639945758"><ele>219.0</ele><time>2026-04-03T14:26:39Z</time></trkpt><trkpt lat="45.598698739181806" lon="8.59038137295133"><ele>219.0</ele><time>2026-04-03T14:26:40Z</time></trkpt><trkpt lat="45.59883704666176" lon="8.590340922459465"><ele>219.0</ele><time>2026-04-03T14:26:41Z</time></trkpt><trkpt lat="45.59897372306671" lon="8.590307323895495"><ele>219.16666666666666</ele><time>2026-04-03T14:26:42Z</time></trkpt><trkpt lat="45.59909833200793" lon="8.590294117559706"><ele>219.33333333333331</ele><time>2026-04-03T14:26:43Z</time></trkpt><trkpt lat="45.59919456327141" lon="8.590289442969675"><ele>219.5</ele><time>2026-04-03T14:26:44Z</time></trkpt><trkpt lat="45.59927410032785" lon="8.590284815703825"><ele>219.66666666666666</ele><time>2026-04-03T14:26:45Z</time></trkpt><trkpt lat="45.599341890204116" lon="8.590282010294093"><ele>219.83333333333331</ele><time>2026-04-03T14:26:46Z</time></trkpt><trkpt lat="45.59940431041321" lon="8.590247861698481"><ele>220.0</ele><time>2026-04-03T14:26:49Z</time></trkpt><trkpt lat="45.599456957288254" lon="8.590166941605611"><ele>220.0</ele><time>2026-04-03T14:27:07.999Z</time></trkpt><trkpt lat="45.59945624906743" lon="8.58998970224321"><ele>220.0</ele><time>2026-04-03T14:27:09.999Z</time></trkpt><trkpt lat="45.59946230088424" lon="8.589884856021458"><ele>220.0</ele><time>2026-04-03T14:27:10.999Z</time></trkpt><trkpt lat="45.59945721192727" lon="8.589738527309995"><ele>220.0</ele><time>2026-04-03T14:27:11.999Z</time></trkpt><trkpt lat="45.59945477446195" lon="8.589604421126246"><ele>220.0</ele><time>2026-04-03T14:27:12.999Z</time></trkpt><trkpt lat="45.59944834178813" lon="8.58945170880361"><ele>219.8</ele><time>2026-04-03T14:27:13.999Z</time></trkpt><trkpt lat="45.59944797501858" lon="8.589295970242489"><ele>219.6</ele><time>2026-04-03T14:27:14.999Z</time></trkpt><trkpt lat="45.59944543599749" lon="8.589146559518563"><ele>219.39999999999998</ele><time>2026-04-03T14:27:15.999Z</time></trkpt><trkpt lat="45.59944043811763" lon="8.588999906365885"><ele>219.2</ele><time>2026-04-03T14:27:16.999Z</time></trkpt><trkpt lat="45.599431633255186" lon="8.588870075183529"><ele>219.0</ele><time>2026-04-03T14:27:17.999Z</time></trkpt><trkpt lat="45.599425855545924" lon="8.588760525439112"><ele>219.2</ele><time>2026-04-03T14:27:18.999Z</time></trkpt><trkpt lat="45.59943703775262" lon="8.588664735197938"><ele>219.39999999999998</ele><time>2026-04-03T14:27:19.999Z</time></trkpt><trkpt lat="45.5994880642448" lon="8.58859063198977"><ele>219.6</ele><time>2026-04-03T14:27:20.999Z</time></trkpt><trkpt lat="45.59958611446236" lon="8.58852588627787"><ele>219.8</ele><time>2026-04-03T14:27:21.999Z</time></trkpt><trkpt lat="45.599743232096564" lon="8.588448847768316"><ele>220.0</ele><time>2026-04-03T14:27:22.999Z</time></trkpt><trkpt lat="45.599908628651114" lon="8.588346349610227"><ele>220.25</ele><time>2026-04-03T14:27:23.999Z</time></trkpt><trkpt lat="45.60007790700496" lon="8.588225261006821"><ele>220.5</ele><time>2026-04-03T14:27:24.999Z</time></trkpt><trkpt lat="45.600209924827006" lon="8.588137802728603"><ele>220.75</ele><time>2026-04-03T14:27:25.999Z</time></trkpt><trkpt lat="45.60029939666267" lon="8.58807766886787"><ele>221.0</ele><time>2026-04-03T14:27:26.999Z</time></trkpt><trkpt lat="45.60035927452692" lon="8.588031573455664"><ele>221.0</ele><time>2026-04-03T14:27:27.999Z</time></trkpt><trkpt lat="45.60042192659161" lon="8.587985136523054"><ele>221.00000000000003</ele><time>2026-04-03T14:27:30.999Z</time></trkpt><trkpt lat="45.60050167006846" lon="8.58796274713059"><ele>221.00000000000003</ele><time>2026-04-03T14:27:32.999Z</time></trkpt><trkpt lat="45.600650691215584" lon="8.587930051869877"><ele>221.0</ele><time>2026-04-03T14:27:34.999Z</time></trkpt><trkpt lat="45.60076568673424" lon="8.587901257344612"><ele>221.0</ele><time>2026-04-03T14:27:35.999Z</time></trkpt><trkpt lat="45.6008792819757" lon="8.587870640495272"><ele>221.0</ele><time>2026-04-03T14:27:36.999Z</time></trkpt><trkpt lat="45.60099369319259" lon="8.587851715638928"><ele>221.00000000000003</ele><time>2026-04-03T14:27:37.999Z</time></trkpt><trkpt lat="45.60110557508616" lon="8.587840852420987"><ele>221.00000000000003</ele><time>2026-04-03T14:27:38.999Z</time></trkpt><trkpt lat="45.60121621343419" lon="8.587832756949204"><ele>221.0</ele><time>2026-04-03T14:27:39.999Z</time></trkpt><trkpt lat="45.601326284824886" lon="8.58783618701911"><ele>221.0</ele><time>2026-04-03T14:27:40.999Z</time></trkpt><trkpt lat="45.60143806292849" lon="8.58785523623698"><ele>221.0</ele><time>2026-04-03T14:27:41.999Z</time></trkpt><trkpt lat="45.6015405102275" lon="8.587861808839596"><ele>221.00000000000003</ele><time>2026-04-03T14:27:42.998Z</time></trkpt><trkpt lat="45.60164510589398" lon="8.587868187767047"><ele>221.00000000000003</ele><time>2026-04-03T14:27:43.998Z</time></trkpt><trkpt lat="45.60173392458757" lon="8.58786308112191"><ele>221.0</ele><time>2026-04-03T14:27:44.998Z</time></trkpt><trkpt lat="45.60181384948103" lon="8.587840908947873"><ele>221.0</ele><time>2026-04-03T14:27:45.998Z</time></trkpt><trkpt lat="45.601888471619674" lon="8.587794360315685"><ele>221.00000000000003</ele><time>2026-04-03T14:27:47.998Z</time></trkpt><trkpt lat="45.60195383959729" lon="8.58781080411886"><ele>221.0</ele><time>2026-04-03T14:27:54.998Z</time></trkpt><trkpt lat="45.60193023663442" lon="8.587918563775805"><ele>221.0</ele><time>2026-04-03T14:28:02.998Z</time></trkpt><trkpt lat="45.60185234196256" lon="8.587835027089207"><ele>221.0</ele><time>2026-04-03T14:28:05.998Z</time></trkpt><trkpt lat="45.60175447378302" lon="8.587828973664797"><ele>221.00000000000003</ele><time>2026-04-03T14:28:08.998Z</time></trkpt><trkpt lat="45.60167299047557" lon="8.587855479772625"><ele>221.0</ele><time>2026-04-03T14:28:10.998Z</time></trkpt><trkpt lat="45.60157629164885" lon="8.587860068645622"><ele>221.00000000000003</ele><time>2026-04-03T14:28:12.998Z</time></trkpt><trkpt lat="45.60146526404085" lon="8.587848438467052"><ele>221.0</ele><time>2026-04-03T14:28:14.998Z</time></trkpt><trkpt lat="45.60140209411197" lon="8.587843133912346"><ele>221.0</ele><time>2026-04-03T14:28:15.998Z</time></trkpt><trkpt lat="45.60132797181044" lon="8.587837011655553"><ele>221.0</ele><time>2026-04-03T14:28:17Z</time></trkpt><trkpt lat="45.60123976182748" lon="8.587828609328835"><ele>221.00000000000003</ele><time>2026-04-03T14:28:18Z</time></trkpt><trkpt lat="45.601154730310164" lon="8.58782340141524"><ele>221.0</ele><time>2026-04-03T14:28:19Z</time></trkpt><trkpt lat="45.60107414202282" lon="8.587831031306187"><ele>221.00000000000003</ele><time>2026-04-03T14:28:20Z</time></trkpt><trkpt lat="45.60100152726051" lon="8.587843343684264"><ele>221.0</ele><time>2026-04-03T14:28:21Z</time></trkpt><trkpt lat="45.60091934929028" lon="8.587853613366551"><ele>221.0</ele><time>2026-04-03T14:28:22Z</time></trkpt><trkpt lat="45.60083202843126" lon="8.587864178461043"><ele>221.0</ele><time>2026-04-03T14:28:23Z</time></trkpt><trkpt lat="45.60074598259897" lon="8.587882310372299"><ele>221.00000000000003</ele><time>2026-04-03T14:28:24Z</time></trkpt><trkpt lat="45.60066426865795" lon="8.5879014175778"><ele>221.0</ele><time>2026-04-03T14:28:25Z</time></trkpt><trkpt lat="45.60058074515571" lon="8.587921933752783"><ele>221.0</ele><time>2026-04-03T14:28:26Z</time></trkpt><trkpt lat="45.60050173376294" lon="8.587942469945416"><ele>221.00000000000003</ele><time>2026-04-03T14:28:27Z</time></trkpt><trkpt lat="45.600405730309795" lon="8.587973596947814"><ele>221.00000000000003</ele><time>2026-04-03T14:28:29Z</time></trkpt><trkpt lat="45.600386289745934" lon="8.587845282054863"><ele>221.0</ele><time>2026-04-03T14:28:32Z</time></trkpt><trkpt lat="45.60041063272026" lon="8.587708041525477"><ele>221.0</ele><time>2026-04-03T14:28:33Z</time></trkpt><trkpt lat="45.60042368253213" lon="8.587540890071287"><ele>221.20000000000002</ele><time>2026-04-03T14:28:34Z</time></trkpt><trkpt lat="45.60042125954548" lon="8.587366503052573"><ele>221.40000000000003</ele><time>2026-04-03T14:28:35Z</time></trkpt><trkpt lat="45.60042428102703" lon="8.587202278000563"><ele>221.6</ele><time>2026-04-03T14:28:36Z</time></trkpt><trkpt lat="45.60042694657214" lon="8.587070374355395"><ele>221.8</ele><time>2026-04-03T14:28:37Z</time></trkpt><trkpt lat="45.60042374834674" lon="8.586926835713543"><ele>222.0</ele><time>2026-04-03T14:28:38Z</time></trkpt><trkpt lat="45.600406432931436" lon="8.58678849752495"><ele>222.2</ele><time>2026-04-03T14:28:39Z</time></trkpt><trkpt lat="45.600393280356215" lon="8.586649732204872"><ele>222.39999999999998</ele><time>2026-04-03T14:28:40Z</time></trkpt><trkpt lat="45.60039724783799" lon="8.586479720076138"><ele>222.60000000000002</ele><time>2026-04-03T14:28:41Z</time></trkpt><trkpt lat="45.600404229962095" lon="8.586326186351414"><ele>222.8</ele><time>2026-04-03T14:28:42Z</time></trkpt><trkpt lat="45.6004001143883" lon="8.586160012024283"><ele>223.0</ele><time>2026-04-03T14:28:43Z</time></trkpt><trkpt lat="45.60038088002153" lon="8.585981893840618"><ele>223.0</ele><time>2026-04-03T14:28:44Z</time></trkpt><trkpt lat="45.60035059204777" lon="8.585797758045151"><ele>223.0</ele><time>2026-04-03T14:28:45Z</time></trkpt><trkpt lat="45.60031327765669" lon="8.585634872553237"><ele>223.0</ele><time>2026-04-03T14:28:46Z</time></trkpt><trkpt lat="45.60027748571065" lon="8.585460294188398"><ele>223.0</ele><time>2026-04-03T14:28:47Z</time></trkpt><trkpt lat="45.600246134354755" lon="8.58527156986334"><ele>222.75</ele><time>2026-04-03T14:28:48Z</time></trkpt><trkpt lat="45.60021944591463" lon="8.585093749354309"><ele>222.5</ele><time>2026-04-03T14:28:49Z</time></trkpt><trkpt lat="45.6001918752635" lon="8.584942292478136"><ele>222.25</ele><time>2026-04-03T14:28:50Z</time></trkpt><trkpt lat="45.60016191539371" lon="8.584795571896356"><ele>222.0</ele><time>2026-04-03T14:28:51Z</time></trkpt><trkpt lat="45.60012914148687" lon="8.584624378468893"><ele>222.0</ele><time>2026-04-03T14:28:52Z</time></trkpt><trkpt lat="45.60010797193179" lon="8.584489531697418"><ele>222.0</ele><time>2026-04-03T14:28:53Z</time></trkpt><trkpt lat="45.600097301545624" lon="8.584385699483683"><ele>222.0</ele><time>2026-04-03T14:28:54Z</time></trkpt><trkpt lat="45.60010647689726" lon="8.584278851482022"><ele>222.0</ele><time>2026-04-03T14:28:55.999Z</time></trkpt><trkpt lat="45.60020208936044" lon="8.584198055010008"><ele>222.0</ele><time>2026-04-03T14:28:57.999Z</time></trkpt><trkpt lat="45.60024567066589" lon="8.584066948011559"><ele>222.0</ele><time>2026-04-03T14:28:59.999Z</time></trkpt><trkpt lat="45.60022817375709" lon="8.583961879492607"><ele>222.0</ele><time>2026-04-03T14:29:00.999Z</time></trkpt><trkpt lat="45.60018860070838" lon="8.58385022716174"><ele>222.0</ele><time>2026-04-03T14:29:01.999Z</time></trkpt><trkpt lat="45.60015571605381" lon="8.583725572674352"><ele>222.0</ele><time>2026-04-03T14:29:02.999Z</time></trkpt><trkpt lat="45.600123804161875" lon="8.583588092810523"><ele>222.0</ele><time>2026-04-03T14:29:03.999Z</time></trkpt><trkpt lat="45.60011177519497" lon="8.583461949499496"><ele>222.0</ele><time>2026-04-03T14:29:04.999Z</time></trkpt><trkpt lat="45.60012203376951" lon="8.583335720308781"><ele>222.6</ele><time>2026-04-03T14:29:05.999Z</time></trkpt><trkpt lat="45.60014411253137" lon="8.583200869123019"><ele>223.2</ele><time>2026-04-03T14:29:06.999Z</time></trkpt><trkpt lat="45.600168450833856" lon="8.58304879016532"><ele>223.8</ele><time>2026-04-03T14:29:07.999Z</time></trkpt><trkpt lat="45.600197908175524" lon="8.582952711039399"><ele>224.4</ele><time>2026-04-03T14:29:08.999Z</time></trkpt><trkpt lat="45.6002298748444" lon="8.582841410052387"><ele>225.0</ele><time>2026-04-03T14:29:09.999Z</time></trkpt><trkpt lat="45.60027932203744" lon="8.58271695903459"><ele>225.2</ele><time>2026-04-03T14:29:10.999Z</time></trkpt><trkpt lat="45.60031800673877" lon="8.58260223969618"><ele>225.4</ele><time>2026-04-03T14:29:11.999Z</time></trkpt><trkpt lat="45.600348706212195" lon="8.582487478158743"><ele>225.60000000000002</ele><time>2026-04-03T14:29:12.999Z</time></trkpt><trkpt lat="45.60035824709236" lon="8.582378611232821"><ele>225.8</ele><time>2026-04-03T14:29:13.999Z</time></trkpt><trkpt lat="45.6003552800478" lon="8.582258170332002"><ele>226.0</ele><time>2026-04-03T14:29:14.999Z</time></trkpt><trkpt lat="45.600366751264694" lon="8.58209617963527"><ele>226.25</ele><time>2026-04-03T14:29:16.999Z</time></trkpt><trkpt lat="45.60050265305032" lon="8.582002348657431"><ele>226.5</ele><time>2026-04-03T14:29:18.999Z</time></trkpt><trkpt lat="45.60062510431463" lon="8.581922510210621"><ele>226.75</ele><time>2026-04-03T14:29:19.999Z</time></trkpt><trkpt lat="45.60071766082392" lon="8.581819714556433"><ele>227.0</ele><time>2026-04-03T14:29:20.999Z</time></trkpt><trkpt lat="45.60079132706367" lon="8.581732222246293"><ele>227.0</ele><time>2026-04-03T14:29:21.999Z</time></trkpt><trkpt lat="45.60087583494256" lon="8.581653762808072"><ele>227.0</ele><time>2026-04-03T14:29:22.999Z</time></trkpt><trkpt lat="45.60097066586094" lon="8.581597999939635"><ele>227.0</ele><time>2026-04-03T14:29:23.999Z</time></trkpt><trkpt lat="45.601068810405465" lon="8.581527651628049"><ele>227.0</ele><time>2026-04-03T14:29:24.999Z</time></trkpt><trkpt lat="45.60117056308733" lon="8.581451110113495"><ele>227.0</ele><time>2026-04-03T14:29:25.999Z</time></trkpt><trkpt lat="45.60126262447802" lon="8.581368013234421"><ele>226.8</ele><time>2026-04-03T14:29:26.999Z</time></trkpt><trkpt lat="45.601338057045126" lon="8.58127296220876"><ele>226.6</ele><time>2026-04-03T14:29:27.999Z</time></trkpt><trkpt lat="45.60141833674168" lon="8.581189913269233"><ele>226.40000000000003</ele><time>2026-04-03T14:29:28.999Z</time></trkpt><trkpt lat="45.60150971010857" lon="8.581108950685298"><ele>226.20000000000002</ele><time>2026-04-03T14:29:29.999Z</time></trkpt><trkpt lat="45.60161093057439" lon="8.581052283108923"><ele>226.0</ele><time>2026-04-03T14:29:30.999Z</time></trkpt><trkpt lat="45.6017129180152" lon="8.58098851588697"><ele>226.0</ele><time>2026-04-03T14:29:31.999Z</time></trkpt><trkpt lat="45.601809929125174" lon="8.58090511384744"><ele>226.0</ele><time>2026-04-03T14:29:32.999Z</time></trkpt><trkpt lat="45.601908909188815" lon="8.580810501635195"><ele>226.0</ele><time>2026-04-03T14:29:33.999Z</time></trkpt><trkpt lat="45.60200282171166" lon="8.580726136767968"><ele>226.0</ele><time>2026-04-03T14:29:34.999Z</time></trkpt><trkpt lat="45.602100040059604" lon="8.58064612682072"><ele>225.60000000000002</ele><time>2026-04-03T14:29:35.999Z</time></trkpt><trkpt lat="45.60219600633865" lon="8.58056843770418"><ele>225.20000000000002</ele><time>2026-04-03T14:29:36.999Z</time></trkpt><trkpt lat="45.602284187775204" lon="8.580494325030829"><ele>224.79999999999998</ele><time>2026-04-03T14:29:37.999Z</time></trkpt><trkpt lat="45.602358031147574" lon="8.580429198127968"><ele>224.39999999999998</ele><time>2026-04-03T14:29:38.999Z</time></trkpt><trkpt lat="45.60243205676985" lon="8.580371856628336"><ele>224.0</ele><time>2026-04-03T14:29:39.999Z</time></trkpt><trkpt lat="45.6025146551151" lon="8.580301177511867"><ele>223.66666666666669</ele><time>2026-04-03T14:29:40.999Z</time></trkpt><trkpt lat="45.602599906760204" lon="8.5802370098021"><ele>223.33333333333334</ele><time>2026-04-03T14:29:41.998Z</time></trkpt><trkpt lat="45.602681667939706" lon="8.580170459373457"><ele>223.0</ele><time>2026-04-03T14:29:42.998Z</time></trkpt><trkpt lat="45.60275732769028" lon="8.580107326783542"><ele>222.66666666666669</ele><time>2026-04-03T14:29:43.998Z</time></trkpt><trkpt lat="45.60282449974942" lon="8.580048495594827"><ele>222.33333333333334</ele><time>2026-04-03T14:29:44.998Z</time></trkpt><trkpt lat="45.6028871927084" lon="8.580001917485632"><ele>222.0</ele><time>2026-04-03T14:29:45.998Z</time></trkpt><trkpt lat="45.60294440064046" lon="8.579951411965363"><ele>222.66666666666666</ele><time>2026-04-03T14:29:46.998Z</time></trkpt><trkpt lat="45.60301042174329" lon="8.57988048333739"><ele>223.33333333333331</ele><time>2026-04-03T14:29:47.998Z</time></trkpt><trkpt lat="45.60308602808797" lon="8.579817010621758"><ele>224.0</ele><time>2026-04-03T14:29:48.998Z</time></trkpt><trkpt lat="45.60316513112703" lon="8.579752844402481"><ele>224.66666666666666</ele><time>2026-04-03T14:29:49.998Z</time></trkpt><trkpt lat="45.60324173641531" lon="8.579687543412183"><ele>225.33333333333331</ele><time>2026-04-03T14:29:50.998Z</time></trkpt><trkpt lat="45.603317033465736" lon="8.579621739913268"><ele>226.0</ele><time>2026-04-03T14:29:51.998Z</time></trkpt><trkpt lat="45.603398107179174" lon="8.579552112549765"><ele>226.20000000000002</ele><time>2026-04-03T14:29:52.998Z</time></trkpt><trkpt lat="45.60347366008188" lon="8.57947886952103"><ele>226.40000000000003</ele><time>2026-04-03T14:29:53.998Z</time></trkpt><trkpt lat="45.60354855888903" lon="8.57940926346377"><ele>226.6</ele><time>2026-04-03T14:29:54.998Z</time></trkpt><trkpt lat="45.60362056007048" lon="8.579330410781166"><ele>226.8</ele><time>2026-04-03T14:29:55.998Z</time></trkpt><trkpt lat="45.60370291669791" lon="8.579265734668216"><ele>227.0</ele><time>2026-04-03T14:29:56.998Z</time></trkpt><trkpt lat="45.60378285644223" lon="8.579189694455417"><ele>227.00000000000003</ele><time>2026-04-03T14:29:57.998Z</time></trkpt><trkpt lat="45.60386214695141" lon="8.579121937981862"><ele>227.0</ele><time>2026-04-03T14:29:58.998Z</time></trkpt><trkpt lat="45.6039351230583" lon="8.579058294909236"><ele>227.0</ele><time>2026-04-03T14:29:59.998Z</time></trkpt><trkpt lat="45.60401050517556" lon="8.578989364779611"><ele>227.0</ele><time>2026-04-03T14:30:00.998Z</time></trkpt><trkpt lat="45.60408722848375" lon="8.578924404790778"><ele>227.00000000000003</ele><time>2026-04-03T14:30:01.998Z</time></trkpt><trkpt lat="45.60416192642762" lon="8.578859016785886"><ele>227.0</ele><time>2026-04-03T14:30:02.998Z</time></trkpt><trkpt lat="45.60423170254796" lon="8.578802095778578"><ele>227.00000000000003</ele><time>2026-04-03T14:30:03.998Z</time></trkpt><trkpt lat="45.60429703584296" lon="8.578748100330882"><ele>227.0</ele><time>2026-04-03T14:30:04.998Z</time></trkpt><trkpt lat="45.604369693988005" lon="8.578694608104676"><ele>227.0</ele><time>2026-04-03T14:30:05.998Z</time></trkpt><trkpt lat="45.60444468972705" lon="8.57863144814486"><ele>227.0</ele><time>2026-04-03T14:30:06.998Z</time></trkpt><trkpt lat="45.60452616831302" lon="8.578571604183074"><ele>227.00000000000003</ele><time>2026-04-03T14:30:07.998Z</time></trkpt><trkpt lat="45.604610574876524" lon="8.57851227327444"><ele>227.0</ele><time>2026-04-03T14:30:08.998Z</time></trkpt><trkpt lat="45.60469832181656" lon="8.578447041260684"><ele>226.6</ele><time>2026-04-03T14:30:09.998Z</time></trkpt><trkpt lat="45.604780487076674" lon="8.578383519375956"><ele>226.2</ele><time>2026-04-03T14:30:10.998Z</time></trkpt><trkpt lat="45.60486364621655" lon="8.578316348538243"><ele>225.8</ele><time>2026-04-03T14:30:11.998Z</time></trkpt><trkpt lat="45.604943160473994" lon="8.578247605198362"><ele>225.4</ele><time>2026-04-03T14:30:12.998Z</time></trkpt><trkpt lat="45.60502108331866" lon="8.578181006039053"><ele>225.0</ele><time>2026-04-03T14:30:13.998Z</time></trkpt><trkpt lat="45.605095801031474" lon="8.578118412560206"><ele>225.00000000000003</ele><time>2026-04-03T14:30:14.998Z</time></trkpt><trkpt lat="45.605160692312985" lon="8.57806104998557"><ele>225.0</ele><time>2026-04-03T14:30:15.998Z</time></trkpt><trkpt lat="45.605227350487716" lon="8.578002680067664"><ele>225.00000000000003</ele><time>2026-04-03T14:30:16.998Z</time></trkpt><trkpt lat="45.60529625404904" lon="8.577944234714147"><ele>225.00000000000003</ele><time>2026-04-03T14:30:17.998Z</time></trkpt><trkpt lat="45.6053593849791" lon="8.577896224847589"><ele>225.0</ele><time>2026-04-03T14:30:18.998Z</time></trkpt><trkpt lat="45.605413151289795" lon="8.577845836861615"><ele>225.00000000000003</ele><time>2026-04-03T14:30:19.998Z</time></trkpt><trkpt lat="45.60548260021654" lon="8.577827420338831"><ele>225.00000000000003</ele><time>2026-04-03T14:30:20.998Z</time></trkpt><trkpt lat="45.605575078915074" lon="8.577699719187477"><ele>225.83333333333334</ele><time>2026-04-03T14:30:23Z</time></trkpt><trkpt lat="45.605648955880504" lon="8.577643910546188"><ele>226.66666666666669</ele><time>2026-04-03T14:30:24Z</time></trkpt><trkpt lat="45.605718476646125" lon="8.57758635591926"><ele>227.5</ele><time>2026-04-03T14:30:25Z</time></trkpt><trkpt lat="45.60579306731278" lon="8.577531090492474"><ele>228.33333333333334</ele><time>2026-04-03T14:30:26Z</time></trkpt><trkpt lat="45.605871929820005" lon="8.577466814846144"><ele>229.16666666666669</ele><time>2026-04-03T14:30:27Z</time></trkpt><trkpt lat="45.605957871356935" lon="8.577395048841787"><ele>230.0</ele><time>2026-04-03T14:30:28Z</time></trkpt><trkpt lat="45.606038694286404" lon="8.577327216900684"><ele>230.0</ele><time>2026-04-03T14:30:29Z</time></trkpt><trkpt lat="45.60612735120365" lon="8.577250270970703"><ele>230.0</ele><time>2026-04-03T14:30:30Z</time></trkpt><trkpt lat="45.60622104389389" lon="8.577172986156542"><ele>230.0</ele><time>2026-04-03T14:30:31Z</time></trkpt><trkpt lat="45.60631798221915" lon="8.577094711546732"><ele>230.0</ele><time>2026-04-03T14:30:32Z</time></trkpt><trkpt lat="45.60641670287929" lon="8.57700972401513"><ele>230.0</ele><time>2026-04-03T14:30:33Z</time></trkpt><trkpt lat="45.6065183922701" lon="8.57692417346135"><ele>229.75</ele><time>2026-04-03T14:30:34Z</time></trkpt><trkpt lat="45.60662347699703" lon="8.576838592924018"><ele>229.5</ele><time>2026-04-03T14:30:35Z</time></trkpt><trkpt lat="45.606729621143174" lon="8.57675076138472"><ele>229.25</ele><time>2026-04-03T14:30:36Z</time></trkpt><trkpt lat="45.60683578736569" lon="8.576660692827042"><ele>229.0</ele><time>2026-04-03T14:30:37Z</time></trkpt><trkpt lat="45.60694380270847" lon="8.576564824295465"><ele>229.25</ele><time>2026-04-03T14:30:38Z</time></trkpt><trkpt lat="45.607053586064616" lon="8.57646825092231"><ele>229.5</ele><time>2026-04-03T14:30:39Z</time></trkpt><trkpt lat="45.607161958246216" lon="8.576377151505712"><ele>229.75</ele><time>2026-04-03T14:30:40Z</time></trkpt><trkpt lat="45.607269633264764" lon="8.576287862751311"><ele>230.0</ele><time>2026-04-03T14:30:41Z</time></trkpt><trkpt lat="45.607376758998925" lon="8.576198102561843"><ele>229.0</ele><time>2026-04-03T14:30:42Z</time></trkpt><trkpt lat="45.60748320769684" lon="8.576112677205698"><ele>228.0</ele><time>2026-04-03T14:30:43Z</time></trkpt><trkpt lat="45.60758642541038" lon="8.57602361917216"><ele>227.0</ele><time>2026-04-03T14:30:44Z</time></trkpt><trkpt lat="45.60769162269515" lon="8.575936951109725"><ele>226.0</ele><time>2026-04-03T14:30:45Z</time></trkpt><trkpt lat="45.60778726987816" lon="8.575856099866568"><ele>226.0</ele><time>2026-04-03T14:30:46Z</time></trkpt><trkpt lat="45.607875863763454" lon="8.575775916087828"><ele>226.00000000000003</ele><time>2026-04-03T14:30:47Z</time></trkpt><trkpt lat="45.60795631569293" lon="8.575704217231177"><ele>226.00000000000003</ele><time>2026-04-03T14:30:48Z</time></trkpt><trkpt lat="45.608028754496075" lon="8.575636170002698"><ele>226.0</ele><time>2026-04-03T14:30:49Z</time></trkpt><trkpt lat="45.608101285446786" lon="8.575580745084324"><ele>226.0</ele><time>2026-04-03T14:30:50Z</time></trkpt><trkpt lat="45.60817941856114" lon="8.575513867405745"><ele>226.0</ele><time>2026-04-03T14:30:51Z</time></trkpt><trkpt lat="45.60826186275417" lon="8.575444362879608"><ele>226.00000000000003</ele><time>2026-04-03T14:30:52Z</time></trkpt><trkpt lat="45.608347227400955" lon="8.575372327320276"><ele>226.00000000000003</ele><time>2026-04-03T14:30:53Z</time></trkpt><trkpt lat="45.60843808075685" lon="8.575293253600217"><ele>226.0</ele><time>2026-04-03T14:30:54Z</time></trkpt><trkpt lat="45.60853770689822" lon="8.575204598784286"><ele>226.0</ele><time>2026-04-03T14:30:55Z</time></trkpt><trkpt lat="45.60863809272229" lon="8.575117909378063"><ele>227.0</ele><time>2026-04-03T14:30:56Z</time></trkpt><trkpt lat="45.60873258940028" lon="8.575019193591862"><ele>228.0</ele><time>2026-04-03T14:30:57Z</time></trkpt><trkpt lat="45.60883124450481" lon="8.574934725408923"><ele>229.0</ele><time>2026-04-03T14:30:58Z</time></trkpt><trkpt lat="45.60893974041445" lon="8.574873942662796"><ele>230.0</ele><time>2026-04-03T14:30:58.999Z</time></trkpt><trkpt lat="45.60904819982285" lon="8.574807054661107"><ele>230.0</ele><time>2026-04-03T14:30:59.999Z</time></trkpt><trkpt lat="45.6091625883995" lon="8.574736510097948"><ele>230.0</ele><time>2026-04-03T14:31:00.999Z</time></trkpt><trkpt lat="45.609281140435" lon="8.574788886868967"><ele>230.0</ele><time>2026-04-03T14:31:01.999Z</time></trkpt><trkpt lat="45.60935830453098" lon="8.574502351098692"><ele>229.75</ele><time>2026-04-03T14:31:02.999Z</time></trkpt><trkpt lat="45.60946454789257" lon="8.57441451063353"><ele>229.5</ele><time>2026-04-03T14:31:03.999Z</time></trkpt><trkpt lat="45.60957246071815" lon="8.57432227828575"><ele>229.25</ele><time>2026-04-03T14:31:04.999Z</time></trkpt><trkpt lat="45.60967907102826" lon="8.574230628571645"><ele>229.0</ele><time>2026-04-03T14:31:05.999Z</time></trkpt><trkpt lat="45.60978708264516" lon="8.574146199161563"><ele>229.75</ele><time>2026-04-03T14:31:06.999Z</time></trkpt><trkpt lat="45.60989369712445" lon="8.574044686943862"><ele>230.5</ele><time>2026-04-03T14:31:07.999Z</time></trkpt><trkpt lat="45.61000116765428" lon="8.573951276108986"><ele>231.25</ele><time>2026-04-03T14:31:08.999Z</time></trkpt><trkpt lat="45.61011410467549" lon="8.573856029459664"><ele>232.0</ele><time>2026-04-03T14:31:09.999Z</time></trkpt><trkpt lat="45.610225170609134" lon="8.57376258067846"><ele>232.2</ele><time>2026-04-03T14:31:10.999Z</time></trkpt><trkpt lat="45.61032877872118" lon="8.57367475002701"><ele>232.39999999999998</ele><time>2026-04-03T14:31:11.999Z</time></trkpt><trkpt lat="45.61042246301114" lon="8.573597544525162"><ele>232.60000000000002</ele><time>2026-04-03T14:31:12.999Z</time></trkpt><trkpt lat="45.61051596303508" lon="8.573522868645178"><ele>232.8</ele><time>2026-04-03T14:31:13.999Z</time></trkpt><trkpt lat="45.61061094492526" lon="8.573448566244975"><ele>233.0</ele><time>2026-04-03T14:31:14.999Z</time></trkpt><trkpt lat="45.61070354592082" lon="8.573378142338129"><ele>233.0</ele><time>2026-04-03T14:31:15.999Z</time></trkpt><trkpt lat="45.61079591251605" lon="8.573303859022744"><ele>233.0</ele><time>2026-04-03T14:31:16.999Z</time></trkpt><trkpt lat="45.61088122966524" lon="8.573215567997545"><ele>233.0</ele><time>2026-04-03T14:31:17.999Z</time></trkpt><trkpt lat="45.610955711319" lon="8.573119179820822"><ele>233.0</ele><time>2026-04-03T14:31:18.999Z</time></trkpt><trkpt lat="45.61102467219738" lon="8.573021458507704"><ele>233.0</ele><time>2026-04-03T14:31:19.999Z</time></trkpt><trkpt lat="45.61109122192829" lon="8.572937371705356"><ele>232.4</ele><time>2026-04-03T14:31:20.999Z</time></trkpt><trkpt lat="45.61115961514479" lon="8.572870019237236"><ele>231.8</ele><time>2026-04-03T14:31:21.999Z</time></trkpt><trkpt lat="45.61125752232871" lon="8.572768669642027"><ele>231.2</ele><time>2026-04-03T14:31:23.999Z</time></trkpt><trkpt lat="45.611336885267356" lon="8.572702064751347"><ele>230.6</ele><time>2026-04-03T14:31:25.999Z</time></trkpt><trkpt lat="45.61140958027113" lon="8.572626578774168"><ele>230.0</ele><time>2026-04-03T14:31:28.999Z</time></trkpt><trkpt lat="45.611478409193616" lon="8.572599006530224"><ele>229.99999999999997</ele><time>2026-04-03T14:31:31.999Z</time></trkpt><trkpt lat="45.61155786807822" lon="8.57263070266929"><ele>230.0</ele><time>2026-04-03T14:31:35.999Z</time></trkpt><trkpt lat="45.61162701649741" lon="8.572609941153088"><ele>229.99999999999997</ele><time>2026-04-03T14:31:38.999Z</time></trkpt><trkpt lat="45.611653049956814" lon="8.57251312469738"><ele>229.99999999999997</ele><time>2026-04-03T14:31:39.999Z</time></trkpt><trkpt lat="45.611672281171195" lon="8.572406396322592"><ele>230.0</ele><time>2026-04-03T14:31:40.999Z</time></trkpt><trkpt lat="45.611694948430696" lon="8.572318412300508"><ele>229.99999999999997</ele><time>2026-04-03T14:31:41.999Z</time></trkpt><trkpt lat="45.61172926553781" lon="8.572225463063905"><ele>229.99999999999997</ele><time>2026-04-03T14:31:42.999Z</time></trkpt><trkpt lat="45.61176829544" lon="8.572131496294316"><ele>230.00000000000003</ele><time>2026-04-03T14:31:43.999Z</time></trkpt><trkpt lat="45.611810418407124" lon="8.572037252100472"><ele>230.0</ele><time>2026-04-03T14:31:44.999Z</time></trkpt><trkpt lat="45.61185086196661" lon="8.571942190266133"><ele>230.0</ele><time>2026-04-03T14:31:45.998Z</time></trkpt><trkpt lat="45.611893002322" lon="8.571856210713245"><ele>230.0</ele><time>2026-04-03T14:31:46.998Z</time></trkpt><trkpt lat="45.611940094090365" lon="8.57177324602598"><ele>230.00000000000003</ele><time>2026-04-03T14:31:47.998Z</time></trkpt><trkpt lat="45.61200817457" lon="8.571664563115302"><ele>230.0</ele><time>2026-04-03T14:31:48.998Z</time></trkpt><trkpt lat="45.612094523695035" lon="8.571542150180624"><ele>230.66666666666669</ele><time>2026-04-03T14:31:49.998Z</time></trkpt><trkpt lat="45.61219434784359" lon="8.571369444459547"><ele>231.33333333333331</ele><time>2026-04-03T14:31:50.998Z</time></trkpt><trkpt lat="45.612279390720296" lon="8.571158165015916"><ele>232.0</ele><time>2026-04-03T14:31:51.998Z</time></trkpt><trkpt lat="45.61234500316276" lon="8.570998470927831"><ele>231.99999999999997</ele><time>2026-04-03T14:31:52.998Z</time></trkpt><trkpt lat="45.61238800285587" lon="8.570864936163611"><ele>232.0</ele><time>2026-04-03T14:31:53.998Z</time></trkpt><trkpt lat="45.61243292701958" lon="8.570741823343123"><ele>232.0</ele><time>2026-04-03T14:31:54.998Z</time></trkpt><trkpt lat="45.612471121752066" lon="8.57063226324216"><ele>232.0</ele><time>2026-04-03T14:31:55.998Z</time></trkpt><trkpt lat="45.61250503972575" lon="8.570534635162254"><ele>231.99999999999997</ele><time>2026-04-03T14:31:56.998Z</time></trkpt><trkpt lat="45.61253524052084" lon="8.570447778818092"><ele>232.0</ele><time>2026-04-03T14:31:57.998Z</time></trkpt><trkpt lat="45.61257106230611" lon="8.570304851176802"><ele>232.33333333333331</ele><time>2026-04-03T14:31:59.998Z</time></trkpt><trkpt lat="45.61259002200095" lon="8.570203755348345"><ele>232.66666666666666</ele><time>2026-04-03T14:32:21.998Z</time></trkpt><trkpt lat="45.61260629637838" lon="8.570110747997687"><ele>233.0</ele><time>2026-04-03T14:32:38Z</time></trkpt><trkpt lat="45.61260100122077" lon="8.570019803524634"><ele>233.33333333333331</ele><time>2026-04-03T14:33:42.999Z</time></trkpt><trkpt lat="45.61261034095854" lon="8.569882098500797"><ele>233.66666666666666</ele><time>2026-04-03T14:34:09.998Z</time></trkpt><trkpt lat="45.6126328116733" lon="8.569782641386553"><ele>234.0</ele><time>2026-04-03T14:34:12.998Z</time></trkpt><trkpt lat="45.612644314276466" lon="8.569655305624796"><ele>234.0</ele><time>2026-04-03T14:34:35Z</time></trkpt><trkpt lat="45.6126826280647" lon="8.569559107767558"><ele>234.0</ele><time>2026-04-03T14:34:37Z</time></trkpt><trkpt lat="45.61273279323269" lon="8.569453436492342"><ele>234.0</ele><time>2026-04-03T14:34:39Z</time></trkpt><trkpt lat="45.612816777769474" lon="8.569347088396855"><ele>234.0</ele><time>2026-04-03T14:34:41Z</time></trkpt><trkpt lat="45.612864778819336" lon="8.569281401370048"><ele>234.0</ele><time>2026-04-03T14:34:42Z</time></trkpt><trkpt lat="45.61291651114148" lon="8.569202655493957"><ele>234.0</ele><time>2026-04-03T14:34:43Z</time></trkpt><trkpt lat="45.6129707721335" lon="8.569137456386349"><ele>234.33333333333334</ele><time>2026-04-03T14:34:44Z</time></trkpt><trkpt lat="45.61302122965328" lon="8.569074186997756"><ele>234.66666666666669</ele><time>2026-04-03T14:34:45Z</time></trkpt><trkpt lat="45.61307634808524" lon="8.56900963601483"><ele>235.0</ele><time>2026-04-03T14:34:46Z</time></trkpt><trkpt lat="45.61313873771659" lon="8.568944556212653"><ele>235.33333333333334</ele><time>2026-04-03T14:34:47Z</time></trkpt><trkpt lat="45.613212916478155" lon="8.568891227244459"><ele>235.66666666666669</ele><time>2026-04-03T14:34:48Z</time></trkpt><trkpt lat="45.61328441365176" lon="8.568841013120274"><ele>236.0</ele><time>2026-04-03T14:34:49Z</time></trkpt><trkpt lat="45.61334896482629" lon="8.568796326775763"><ele>236.0</ele><time>2026-04-03T14:34:50Z</time></trkpt><trkpt lat="45.61341609605602" lon="8.568758978057884"><ele>236.00000000000003</ele><time>2026-04-03T14:34:51Z</time></trkpt><trkpt lat="45.61348190156006" lon="8.5687324298838"><ele>236.00000000000003</ele><time>2026-04-03T14:34:52Z</time></trkpt><trkpt lat="45.61358229546736" lon="8.568669757309493"><ele>236.0</ele><time>2026-04-03T14:34:54Z</time></trkpt><trkpt lat="45.61366785678852" lon="8.56856312385765"><ele>236.0</ele><time>2026-04-03T14:34:56Z</time></trkpt><trkpt lat="45.613707552791716" lon="8.56841928241234"><ele>236.4</ele><time>2026-04-03T14:34:58Z</time></trkpt><trkpt lat="45.61367303262823" lon="8.5683062889049"><ele>236.8</ele><time>2026-04-03T14:35:00Z</time></trkpt><trkpt lat="45.613603387541815" lon="8.568182702144398"><ele>237.20000000000002</ele><time>2026-04-03T14:35:01Z</time></trkpt><trkpt lat="45.613538483462136" lon="8.568036796497417"><ele>237.60000000000002</ele><time>2026-04-03T14:35:02Z</time></trkpt><trkpt lat="45.613486566561306" lon="8.567915565125745"><ele>238.0</ele><time>2026-04-03T14:35:03Z</time></trkpt><trkpt lat="45.613443870956466" lon="8.56782141208406"><ele>238.0</ele><time>2026-04-03T14:35:04Z</time></trkpt><trkpt lat="45.613396644683974" lon="8.56772462485245"><ele>238.0</ele><time>2026-04-03T14:35:05Z</time></trkpt><trkpt lat="45.613346061794935" lon="8.567612896238696"><ele>238.0</ele><time>2026-04-03T14:35:05.999Z</time></trkpt><trkpt lat="45.61329338530612" lon="8.567493693045108"><ele>238.0</ele><time>2026-04-03T14:35:06.999Z</time></trkpt><trkpt lat="45.61324436683762" lon="8.567377963191385"><ele>238.0</ele><time>2026-04-03T14:35:07.999Z</time></trkpt><trkpt lat="45.613198220555624" lon="8.567254872001184"><ele>238.0</ele><time>2026-04-03T14:35:08.999Z</time></trkpt><trkpt lat="45.61313934364056" lon="8.567142268175756"><ele>238.0</ele><time>2026-04-03T14:35:09.999Z</time></trkpt><trkpt lat="45.61307694596904" lon="8.56704320177932"><ele>238.0</ele><time>2026-04-03T14:35:10.999Z</time></trkpt><trkpt lat="45.61302834950691" lon="8.566951704483063"><ele>238.0</ele><time>2026-04-03T14:35:11.999Z</time></trkpt><trkpt lat="45.61297895599786" lon="8.566851041925256"><ele>238.0</ele><time>2026-04-03T14:35:12.999Z</time></trkpt><trkpt lat="45.61292651562589" lon="8.566734237011003"><ele>237.8</ele><time>2026-04-03T14:35:13.999Z</time></trkpt><trkpt lat="45.61286943844263" lon="8.566609239533102"><ele>237.60000000000002</ele><time>2026-04-03T14:35:14.999Z</time></trkpt><trkpt lat="45.61280637741275" lon="8.566483250193846"><ele>237.39999999999998</ele><time>2026-04-03T14:35:15.999Z</time></trkpt><trkpt lat="45.612746434542835" lon="8.566362062794594"><ele>237.2</ele><time>2026-04-03T14:35:16.999Z</time></trkpt><trkpt lat="45.612695761588284" lon="8.566249124624253"><ele>237.0</ele><time>2026-04-03T14:35:17.999Z</time></trkpt><trkpt lat="45.61263823222832" lon="8.56613206369914"><ele>236.8</ele><time>2026-04-03T14:35:18.999Z</time></trkpt><trkpt lat="45.61257543646174" lon="8.566007664437757"><ele>236.6</ele><time>2026-04-03T14:35:19.999Z</time></trkpt><trkpt lat="45.61251677497909" lon="8.565889910985465"><ele>236.40000000000003</ele><time>2026-04-03T14:35:20.999Z</time></trkpt><trkpt lat="45.61246632025869" lon="8.565784919127834"><ele>236.20000000000002</ele><time>2026-04-03T14:35:21.999Z</time></trkpt><trkpt lat="45.61241251147215" lon="8.565671880599279"><ele>236.0</ele><time>2026-04-03T14:35:22.999Z</time></trkpt><trkpt lat="45.612356756308245" lon="8.565558757722217"><ele>236.0</ele><time>2026-04-03T14:35:23.999Z</time></trkpt><trkpt lat="45.612317966641065" lon="8.565428693491633"><ele>236.00000000000003</ele><time>2026-04-03T14:35:24.999Z</time></trkpt><trkpt lat="45.61226168787486" lon="8.565317400336067"><ele>236.00000000000003</ele><time>2026-04-03T14:35:25.999Z</time></trkpt><trkpt lat="45.61220565579738" lon="8.565206972199858"><ele>236.0</ele><time>2026-04-03T14:35:26.999Z</time></trkpt><trkpt lat="45.612155380324474" lon="8.56510871649122"><ele>236.0</ele><time>2026-04-03T14:35:27.999Z</time></trkpt><trkpt lat="45.612106687923806" lon="8.565013151283855"><ele>236.50000000000003</ele><time>2026-04-03T14:35:28.999Z</time></trkpt><trkpt lat="45.61205882344359" lon="8.56491710784548"><ele>237.0</ele><time>2026-04-03T14:35:29.999Z</time></trkpt><trkpt lat="45.61201139252018" lon="8.564821934408744"><ele>237.5</ele><time>2026-04-03T14:35:30.999Z</time></trkpt><trkpt lat="45.61196874279363" lon="8.564735712750913"><ele>238.0</ele><time>2026-04-03T14:35:31.999Z</time></trkpt><trkpt lat="45.611917074103" lon="8.56462764321949"><ele>238.50000000000003</ele><time>2026-04-03T14:35:33.999Z</time></trkpt><trkpt lat="45.611873729578726" lon="8.564547101790943"><ele>239.0</ele><time>2026-04-03T14:35:36.999Z</time></trkpt><trkpt lat="45.61201641614784" lon="8.564441719703682"><ele>239.83333333333334</ele><time>2026-04-03T14:35:38.999Z</time></trkpt><trkpt lat="45.612077334317625" lon="8.564370180427327"><ele>240.66666666666669</ele><time>2026-04-03T14:35:39.999Z</time></trkpt><trkpt lat="45.61215123605437" lon="8.56429789561675"><ele>241.5</ele><time>2026-04-03T14:35:40.999Z</time></trkpt><trkpt lat="45.61222754579336" lon="8.564227606418168"><ele>242.33333333333331</ele><time>2026-04-03T14:35:41.999Z</time></trkpt><trkpt lat="45.61230370409027" lon="8.564149202255003"><ele>243.16666666666666</ele><time>2026-04-03T14:35:42.999Z</time></trkpt><trkpt lat="45.612381083318574" lon="8.564068356547345"><ele>244.0</ele><time>2026-04-03T14:35:43.999Z</time></trkpt><trkpt lat="45.612461208227955" lon="8.563971290814242"><ele>244.0</ele><time>2026-04-03T14:35:44.999Z</time></trkpt><trkpt lat="45.61254982002281" lon="8.563870893584642"><ele>244.0</ele><time>2026-04-03T14:35:45.999Z</time></trkpt><trkpt lat="45.612645984474774" lon="8.563771268114731"><ele>244.0</ele><time>2026-04-03T14:35:46.999Z</time></trkpt><trkpt lat="45.61274173623719" lon="8.563655594207018"><ele>244.0</ele><time>2026-04-03T14:35:47.999Z</time></trkpt><trkpt lat="45.6128547136202" lon="8.563544419699296"><ele>243.75</ele><time>2026-04-03T14:35:48.999Z</time></trkpt><trkpt lat="45.61297488786414" lon="8.56342605009712"><ele>243.5</ele><time>2026-04-03T14:35:49.999Z</time></trkpt><trkpt lat="45.61308094485047" lon="8.563317150958685"><ele>243.25</ele><time>2026-04-03T14:35:50.999Z</time></trkpt><trkpt lat="45.61318199317167" lon="8.56322042133498"><ele>243.0</ele><time>2026-04-03T14:35:51.999Z</time></trkpt><trkpt lat="45.61327953254742" lon="8.563120164032409"><ele>243.0</ele><time>2026-04-03T14:35:52.998Z</time></trkpt><trkpt lat="45.613377590215315" lon="8.563018971054245"><ele>243.0</ele><time>2026-04-03T14:35:53.998Z</time></trkpt><trkpt lat="45.61347695019225" lon="8.562918818615772"><ele>243.0</ele><time>2026-04-03T14:35:54.998Z</time></trkpt><trkpt lat="45.613574664812056" lon="8.562821975977759"><ele>243.0</ele><time>2026-04-03T14:35:55.998Z</time></trkpt><trkpt lat="45.61367059996739" lon="8.562726412740881"><ele>243.5</ele><time>2026-04-03T14:35:56.998Z</time></trkpt><trkpt lat="45.61376608894828" lon="8.562631858296442"><ele>244.0</ele><time>2026-04-03T14:35:57.998Z</time></trkpt><trkpt lat="45.613858352041156" lon="8.562539320980159"><ele>244.5</ele><time>2026-04-03T14:35:58.998Z</time></trkpt><trkpt lat="45.6139523687771" lon="8.562444553989403"><ele>245.0</ele><time>2026-04-03T14:35:59.998Z</time></trkpt><trkpt lat="45.61404135565868" lon="8.56235876667624"><ele>245.0</ele><time>2026-04-03T14:36:00.998Z</time></trkpt><trkpt lat="45.61412044920105" lon="8.562275748114962"><ele>245.0</ele><time>2026-04-03T14:36:01.998Z</time></trkpt><trkpt lat="45.61420334444827" lon="8.562189244668978"><ele>245.0</ele><time>2026-04-03T14:36:02.998Z</time></trkpt><trkpt lat="45.61428804115677" lon="8.56210283190029"><ele>245.0</ele><time>2026-04-03T14:36:03.998Z</time></trkpt><trkpt lat="45.614373720668546" lon="8.5620168978966"><ele>245.0</ele><time>2026-04-03T14:36:04.998Z</time></trkpt><trkpt lat="45.61445843629737" lon="8.561926952958315"><ele>245.0</ele><time>2026-04-03T14:36:05.998Z</time></trkpt><trkpt lat="45.61454364794939" lon="8.561840294483195"><ele>245.0</ele><time>2026-04-03T14:36:06.998Z</time></trkpt><trkpt lat="45.6146240826696" lon="8.561758551784788"><ele>245.0</ele><time>2026-04-03T14:36:07.998Z</time></trkpt><trkpt lat="45.614698736860696" lon="8.561680745151342"><ele>245.0</ele><time>2026-04-03T14:36:08.998Z</time></trkpt><trkpt lat="45.614782599641075" lon="8.56160443187979"><ele>245.0</ele><time>2026-04-03T14:36:09.998Z</time></trkpt><trkpt lat="45.61486158062386" lon="8.561526135447659"><ele>245.0</ele><time>2026-04-03T14:36:10.998Z</time></trkpt><trkpt lat="45.61494469546939" lon="8.56144189500177"><ele>245.0</ele><time>2026-04-03T14:36:11.998Z</time></trkpt><trkpt lat="45.6150294920604" lon="8.561355888194067"><ele>245.0</ele><time>2026-04-03T14:36:12.998Z</time></trkpt><trkpt lat="45.61510443210562" lon="8.561278353941304"><ele>245.0</ele><time>2026-04-03T14:36:13.998Z</time></trkpt><trkpt lat="45.61517786959624" lon="8.561199375395143"><ele>245.0</ele><time>2026-04-03T14:36:14.998Z</time></trkpt><trkpt lat="45.61525594416335" lon="8.561124171159934"><ele>245.83333333333334</ele><time>2026-04-03T14:36:15.998Z</time></trkpt><trkpt lat="45.61533553945902" lon="8.56104787477561"><ele>246.66666666666669</ele><time>2026-04-03T14:36:16.998Z</time></trkpt><trkpt lat="45.61541412656062" lon="8.560968959345912"><ele>247.5</ele><time>2026-04-03T14:36:17.998Z</time></trkpt><trkpt lat="45.615479682941235" lon="8.5608944030847"><ele>248.33333333333331</ele><time>2026-04-03T14:36:18.998Z</time></trkpt><trkpt lat="45.615532895767146" lon="8.560839178436071"><ele>249.16666666666666</ele><time>2026-04-03T14:36:19.998Z</time></trkpt><trkpt lat="45.61558860806834" lon="8.560790134025543"><ele>250.0</ele><time>2026-04-03T14:36:20.998Z</time></trkpt><trkpt lat="45.61565666581345" lon="8.560724177386538"><ele>249.99999999999997</ele><time>2026-04-03T14:36:21.998Z</time></trkpt><trkpt lat="45.615715219146544" lon="8.560662354810008"><ele>250.0</ele><time>2026-04-03T14:36:22.998Z</time></trkpt><trkpt lat="45.61577675327775" lon="8.560607671541879"><ele>250.0</ele><time>2026-04-03T14:36:23.998Z</time></trkpt><trkpt lat="45.61584695174604" lon="8.560538327925496"><ele>250.0</ele><time>2026-04-03T14:36:24.998Z</time></trkpt><trkpt lat="45.615923086697244" lon="8.560463214689127"><ele>249.99999999999997</ele><time>2026-04-03T14:36:25.998Z</time></trkpt><trkpt lat="45.61600138481447" lon="8.560385882433756"><ele>250.0</ele><time>2026-04-03T14:36:26.998Z</time></trkpt><trkpt lat="45.61607160429939" lon="8.560319417273774"><ele>249.8</ele><time>2026-04-03T14:36:27.998Z</time></trkpt><trkpt lat="45.616129774184216" lon="8.560242215380832"><ele>249.6</ele><time>2026-04-03T14:36:28.998Z</time></trkpt><trkpt lat="45.6161769547764" lon="8.560130485268623"><ele>249.39999999999998</ele><time>2026-04-03T14:36:29.998Z</time></trkpt><trkpt lat="45.616220498392046" lon="8.559972050814817"><ele>249.2</ele><time>2026-04-03T14:36:30.998Z</time></trkpt><trkpt lat="45.61626026966757" lon="8.559795563634133"><ele>249.0</ele><time>2026-04-03T14:36:31.998Z</time></trkpt><trkpt lat="45.616299775863986" lon="8.55964196854467"><ele>249.5</ele><time>2026-04-03T14:36:32.998Z</time></trkpt><trkpt lat="45.61634618579657" lon="8.55948052379756"><ele>250.0</ele><time>2026-04-03T14:36:33.998Z</time></trkpt><trkpt lat="45.61640634354729" lon="8.559287941546138"><ele>250.5</ele><time>2026-04-03T14:36:34.998Z</time></trkpt><trkpt lat="45.61647283235763" lon="8.559071545757732"><ele>251.0</ele><time>2026-04-03T14:36:35.998Z</time></trkpt><trkpt lat="45.61652515034486" lon="8.55890995410437"><ele>251.00000000000003</ele><time>2026-04-03T14:36:36.998Z</time></trkpt><trkpt lat="45.61656493350646" lon="8.558783451440236"><ele>251.0</ele><time>2026-04-03T14:36:37.998Z</time></trkpt><trkpt lat="45.616603635947314" lon="8.55865844646054"><ele>251.0</ele><time>2026-04-03T14:36:38.998Z</time></trkpt><trkpt lat="45.6166384876825" lon="8.558550154490836"><ele>251.0</ele><time>2026-04-03T14:36:39.998Z</time></trkpt><trkpt lat="45.61666998719701" lon="8.558471397875877"><ele>251.00000000000003</ele><time>2026-04-03T14:36:41Z</time></trkpt><trkpt lat="45.61670653274604" lon="8.55839049559086"><ele>251.0</ele><time>2026-04-03T14:36:42Z</time></trkpt><trkpt lat="45.61678205347565" lon="8.55828554512936"><ele>251.0</ele><time>2026-04-03T14:36:43Z</time></trkpt><trkpt lat="45.616855459870834" lon="8.558198996841018"><ele>251.00000000000003</ele><time>2026-04-03T14:36:44Z</time></trkpt><trkpt lat="45.61694035420172" lon="8.558102437662109"><ele>251.00000000000003</ele><time>2026-04-03T14:36:45Z</time></trkpt><trkpt lat="45.61701542570882" lon="8.558005805085479"><ele>251.0</ele><time>2026-04-03T14:36:46Z</time></trkpt><trkpt lat="45.61708743852135" lon="8.55791045823295"><ele>251.0</ele><time>2026-04-03T14:36:47Z</time></trkpt><trkpt lat="45.61714181843609" lon="8.557829529187842"><ele>251.66666666666669</ele><time>2026-04-03T14:36:48Z</time></trkpt><trkpt lat="45.61719136481814" lon="8.55776495704563"><ele>252.33333333333334</ele><time>2026-04-03T14:36:49Z</time></trkpt><trkpt lat="45.617248311259054" lon="8.557703613835017"><ele>253.0</ele><time>2026-04-03T14:36:50Z</time></trkpt><trkpt lat="45.617324976172554" lon="8.557655392517404"><ele>253.66666666666669</ele><time>2026-04-03T14:36:51Z</time></trkpt><trkpt lat="45.61741219279546" lon="8.557617769355103"><ele>254.33333333333334</ele><time>2026-04-03T14:36:52Z</time></trkpt><trkpt lat="45.61748465631793" lon="8.557600450527394"><ele>255.0</ele><time>2026-04-03T14:36:53Z</time></trkpt><trkpt lat="45.61759611745402" lon="8.55752618501713"><ele>255.0</ele><time>2026-04-03T14:36:55Z</time></trkpt><trkpt lat="45.61765195594647" lon="8.557470985190614"><ele>255.0</ele><time>2026-04-03T14:36:56Z</time></trkpt><trkpt lat="45.617734082131676" lon="8.557422108439509"><ele>255.0</ele><time>2026-04-03T14:36:57Z</time></trkpt><trkpt lat="45.61782497435252" lon="8.55734930868742"><ele>255.0</ele><time>2026-04-03T14:36:58Z</time></trkpt><trkpt lat="45.61793155168728" lon="8.557235459120884"><ele>255.0</ele><time>2026-04-03T14:36:59Z</time></trkpt><trkpt lat="45.618038878556774" lon="8.55715168526921"><ele>254.4</ele><time>2026-04-03T14:37:00Z</time></trkpt><trkpt lat="45.61812480628905" lon="8.557091536268452"><ele>253.8</ele><time>2026-04-03T14:37:01Z</time></trkpt><trkpt lat="45.618218704915165" lon="8.557043678791143"><ele>253.2</ele><time>2026-04-03T14:37:02Z</time></trkpt><trkpt lat="45.61830765420334" lon="8.5570382116269"><ele>252.6</ele><time>2026-04-03T14:37:03Z</time></trkpt><trkpt lat="45.61842301513702" lon="8.557042031536797"><ele>252.0</ele><time>2026-04-03T14:37:04Z</time></trkpt><trkpt lat="45.61850428405003" lon="8.557032252800958"><ele>252.0</ele><time>2026-04-03T14:37:05Z</time></trkpt><trkpt lat="45.618580859869674" lon="8.557028127215967"><ele>252.0</ele><time>2026-04-03T14:37:07Z</time></trkpt><trkpt lat="45.618659577851005" lon="8.55700491290965"><ele>252.0</ele><time>2026-04-03T14:37:09.999Z</time></trkpt><trkpt lat="45.61876992192332" lon="8.556961471587323"><ele>252.0</ele><time>2026-04-03T14:37:12.999Z</time></trkpt><trkpt lat="45.61883400607675" lon="8.556909056257593"><ele>252.0</ele><time>2026-04-03T14:37:13.999Z</time></trkpt><trkpt lat="45.618923749252396" lon="8.556832765711377"><ele>252.6</ele><time>2026-04-03T14:37:14.999Z</time></trkpt><trkpt lat="45.61900138055749" lon="8.556742087716216"><ele>253.2</ele><time>2026-04-03T14:37:15.999Z</time></trkpt><trkpt lat="45.61910288348689" lon="8.556594126139299"><ele>253.8</ele><time>2026-04-03T14:37:17.999Z</time></trkpt><trkpt lat="45.61918320654941" lon="8.556535421070897"><ele>254.4</ele><time>2026-04-03T14:37:18.999Z</time></trkpt><trkpt lat="45.61922351252742" lon="8.556413845061348"><ele>255.0</ele><time>2026-04-03T14:37:19.999Z</time></trkpt><trkpt lat="45.61928375871797" lon="8.556327582467855"><ele>255.0</ele><time>2026-04-03T14:37:20.999Z</time></trkpt><trkpt lat="45.619339005509595" lon="8.55622432149023"><ele>255.0</ele><time>2026-04-03T14:37:22.999Z</time></trkpt><trkpt lat="45.61942098885783" lon="8.556317459939146"><ele>255.0</ele><time>2026-04-03T14:37:31.999Z</time></trkpt><trkpt lat="45.619446580544725" lon="8.55644963438857"><ele>255.0</ele><time>2026-04-03T14:37:32.999Z</time></trkpt><trkpt lat="45.619491843257144" lon="8.55658240736241"><ele>255.0</ele><time>2026-04-03T14:37:33.999Z</time></trkpt><trkpt lat="45.61955342476842" lon="8.556718078039005"><ele>255.2</ele><time>2026-04-03T14:37:34.999Z</time></trkpt><trkpt lat="45.619610870646255" lon="8.556848466403643"><ele>255.4</ele><time>2026-04-03T14:37:35.999Z</time></trkpt><trkpt lat="45.61966410018807" lon="8.556980759836758"><ele>255.60000000000002</ele><time>2026-04-03T14:37:36.999Z</time></trkpt><trkpt lat="45.61972069183215" lon="8.55711970868563"><ele>255.8</ele><time>2026-04-03T14:37:37.999Z</time></trkpt><trkpt lat="45.61975836530655" lon="8.55723281970291"><ele>256.0</ele><time>2026-04-03T14:37:38.999Z</time></trkpt><trkpt lat="45.61977761364832" lon="8.557321334524365"><ele>255.49999999999997</ele><time>2026-04-03T14:37:39.999Z</time></trkpt><trkpt lat="45.619787911730285" lon="8.557410331158193"><ele>255.0</ele><time>2026-04-03T14:37:40.999Z</time></trkpt><trkpt lat="45.61978396288571" lon="8.55752508176668"><ele>254.5</ele><time>2026-04-03T14:37:41.999Z</time></trkpt><trkpt lat="45.619763946695976" lon="8.55765924668489"><ele>254.0</ele><time>2026-04-03T14:37:42.999Z</time></trkpt><trkpt lat="45.61974581848932" lon="8.557788711597308"><ele>253.49999999999997</ele><time>2026-04-03T14:37:43.999Z</time></trkpt><trkpt lat="45.61972956390506" lon="8.557901776844353"><ele>253.0</ele><time>2026-04-03T14:37:44.999Z</time></trkpt><trkpt lat="45.619712807424214" lon="8.558003007576351"><ele>252.99999999999997</ele><time>2026-04-03T14:37:45.999Z</time></trkpt><trkpt lat="45.619701638064655" lon="8.558099337961115"><ele>253.0</ele><time>2026-04-03T14:37:46.999Z</time></trkpt><trkpt lat="45.619684157293015" lon="8.558187790344087"><ele>253.0</ele><time>2026-04-03T14:37:47.999Z</time></trkpt><trkpt lat="45.61966727097064" lon="8.558279858574954"><ele>253.0</ele><time>2026-04-03T14:37:48.999Z</time></trkpt><trkpt lat="45.61966960082302" lon="8.55842777304402"><ele>252.99999999999997</ele><time>2026-04-03T14:37:50.999Z</time></trkpt><trkpt lat="45.61963897233371" lon="8.55857776294445"><ele>253.0</ele><time>2026-04-03T14:37:52.999Z</time></trkpt><trkpt lat="45.61960400470287" lon="8.55869948283331"><ele>252.83333333333331</ele><time>2026-04-03T14:37:53.999Z</time></trkpt><trkpt lat="45.61958095683794" lon="8.558818936040234"><ele>252.66666666666666</ele><time>2026-04-03T14:37:54.999Z</time></trkpt><trkpt lat="45.619561762031054" lon="8.558934304072343"><ele>252.5</ele><time>2026-04-03T14:37:55.999Z</time></trkpt><trkpt lat="45.61952899089907" lon="8.559058584470643"><ele>252.33333333333331</ele><time>2026-04-03T14:37:56.999Z</time></trkpt><trkpt lat="45.619491275416244" lon="8.55918171421066"><ele>252.16666666666666</ele><time>2026-04-03T14:37:57.998Z</time></trkpt><trkpt lat="45.61946704996474" lon="8.559302771583603"><ele>252.0</ele><time>2026-04-03T14:37:58.998Z</time></trkpt><trkpt lat="45.61945581147386" lon="8.559411087724207"><ele>252.66666666666666</ele><time>2026-04-03T14:37:59.998Z</time></trkpt><trkpt lat="45.61944576907851" lon="8.559515171227533"><ele>253.33333333333331</ele><time>2026-04-03T14:38:00.998Z</time></trkpt><trkpt lat="45.61943886876086" lon="8.55961066015201"><ele>254.0</ele><time>2026-04-03T14:38:01.998Z</time></trkpt><trkpt lat="45.61943390225659" lon="8.55971403470068"><ele>254.66666666666666</ele><time>2026-04-03T14:38:02.998Z</time></trkpt><trkpt lat="45.61942981390598" lon="8.559834666389644"><ele>255.33333333333331</ele><time>2026-04-03T14:38:03.998Z</time></trkpt><trkpt lat="45.6194283204837" lon="8.559943431781118"><ele>256.0</ele><time>2026-04-03T14:38:04.998Z</time></trkpt><trkpt lat="45.619409190157214" lon="8.560059186593344"><ele>256.0</ele><time>2026-04-03T14:38:05.998Z</time></trkpt><trkpt lat="45.61938794884002" lon="8.560155023484867"><ele>256.0</ele><time>2026-04-03T14:38:06.998Z</time></trkpt><trkpt lat="45.61940033134831" lon="8.56034560416053"><ele>256.0</ele><time>2026-04-03T14:38:08.998Z</time></trkpt><trkpt lat="45.619411484086726" lon="8.560466324714511"><ele>256.0</ele><time>2026-04-03T14:38:09.998Z</time></trkpt><trkpt lat="45.61941210990236" lon="8.560580310248564"><ele>256.0</ele><time>2026-04-03T14:38:10.998Z</time></trkpt><trkpt lat="45.61942240040024" lon="8.5607194989565"><ele>255.16666666666666</ele><time>2026-04-03T14:38:11.998Z</time></trkpt><trkpt lat="45.61943229907677" lon="8.560855413197327"><ele>254.33333333333331</ele><time>2026-04-03T14:38:12.998Z</time></trkpt><trkpt lat="45.619439458665745" lon="8.56097159750575"><ele>253.5</ele><time>2026-04-03T14:38:13.998Z</time></trkpt><trkpt lat="45.61945000243497" lon="8.561077037941018"><ele>252.66666666666669</ele><time>2026-04-03T14:38:14.998Z</time></trkpt><trkpt lat="45.61947316965921" lon="8.5611809794672"><ele>251.83333333333334</ele><time>2026-04-03T14:38:15.998Z</time></trkpt><trkpt lat="45.61948388462393" lon="8.56126987119039"><ele>251.0</ele><time>2026-04-03T14:38:16.998Z</time></trkpt><trkpt lat="45.61942347224688" lon="8.56139147819704"><ele>251.00000000000003</ele><time>2026-04-03T14:38:18.998Z</time></trkpt><trkpt lat="45.61934259360845" lon="8.56142120843167"><ele>251.0</ele><time>2026-04-03T14:38:20.998Z</time></trkpt><trkpt lat="45.61928103841008" lon="8.561443162400053"><ele>251.0</ele><time>2026-04-03T14:38:21.998Z</time></trkpt><trkpt lat="45.61915455123711" lon="8.561462791338695"><ele>251.0</ele><time>2026-04-03T14:38:23.998Z</time></trkpt><trkpt lat="45.61908327397767" lon="8.561454596487781"><ele>251.00000000000003</ele><time>2026-04-03T14:38:24.998Z</time></trkpt><trkpt lat="45.61901054402934" lon="8.561442124103317"><ele>251.0</ele><time>2026-04-03T14:38:25.998Z</time></trkpt><trkpt lat="45.61891189715086" lon="8.561431736728844"><ele>250.99999999999997</ele><time>2026-04-03T14:38:27.998Z</time></trkpt><trkpt lat="45.61884525107048" lon="8.561416219202293"><ele>251.0</ele><time>2026-04-03T14:38:29.998Z</time></trkpt><trkpt lat="45.61880981776332" lon="8.561320275923547"><ele>250.99999999999997</ele><time>2026-04-03T14:38:32.998Z</time></trkpt><trkpt lat="45.6188536255002" lon="8.561232823668666"><ele>250.99999999999997</ele><time>2026-04-03T14:38:34.998Z</time></trkpt><trkpt lat="45.61891497029638" lon="8.561203543746403"><ele>251.0</ele><time>2026-04-03T14:38:35.998Z</time></trkpt><trkpt lat="45.61898835046925" lon="8.561209574757864"><ele>250.99999999999997</ele><time>2026-04-03T14:38:36.998Z</time></trkpt><trkpt lat="45.61906952671478" lon="8.56123704505324"><ele>250.99999999999997</ele><time>2026-04-03T14:38:37.998Z</time></trkpt><trkpt lat="45.61915218284202" lon="8.561267106190751"><ele>251.00000000000003</ele><time>2026-04-03T14:38:38.998Z</time></trkpt><trkpt lat="45.619223023883826" lon="8.561302177865821"><ele>251.0</ele><time>2026-04-03T14:38:39.998Z</time></trkpt><trkpt lat="45.61929134421123" lon="8.56132953826325"><ele>251.0</ele><time>2026-04-03T14:38:40.998Z</time></trkpt><trkpt lat="45.619364591780574" lon="8.56134299707369"><ele>251.0</ele><time>2026-04-03T14:38:41.998Z</time></trkpt><trkpt lat="45.61946742259529" lon="8.561376036110813"><ele>251.00000000000003</ele><time>2026-04-03T14:38:43.998Z</time></trkpt><trkpt lat="45.61951960071009" lon="8.56132408919212"><ele>251.0</ele><time>2026-04-03T14:38:45.997Z</time></trkpt><trkpt lat="45.61959148186249" lon="8.561341242789467"><ele>250.83333333333334</ele><time>2026-04-03T14:38:50Z</time></trkpt><trkpt lat="45.61966385438072" lon="8.561408102139785"><ele>250.66666666666669</ele><time>2026-04-03T14:38:53Z</time></trkpt><trkpt lat="45.619743277417996" lon="8.561369081564989"><ele>250.5</ele><time>2026-04-03T14:38:55Z</time></trkpt><trkpt lat="45.619830601701416" lon="8.561294727985505"><ele>250.33333333333331</ele><time>2026-04-03T14:38:56Z</time></trkpt><trkpt lat="45.61988054914353" lon="8.561208637576776"><ele>250.16666666666666</ele><time>2026-04-03T14:38:57Z</time></trkpt><trkpt lat="45.61991182078564" lon="8.561117745521967"><ele>250.0</ele><time>2026-04-03T14:38:58Z</time></trkpt><trkpt lat="45.61993749855435" lon="8.561012479621246"><ele>250.4</ele><time>2026-04-03T14:38:59Z</time></trkpt><trkpt lat="45.61998477435183" lon="8.560864132447866"><ele>250.8</ele><time>2026-04-03T14:39:01Z</time></trkpt><trkpt lat="45.6200244102085" lon="8.560726928631883"><ele>251.2</ele><time>2026-04-03T14:39:03Z</time></trkpt><trkpt lat="45.62007656917858" lon="8.560609415142428"><ele>251.6</ele><time>2026-04-03T14:39:05Z</time></trkpt><trkpt lat="45.620184215145834" lon="8.560516106108336"><ele>252.0</ele><time>2026-04-03T14:39:07Z</time></trkpt><trkpt lat="45.620271120249406" lon="8.560446281398832"><ele>251.75</ele><time>2026-04-03T14:39:08Z</time></trkpt><trkpt lat="45.62038932825192" lon="8.560343617767838"><ele>251.5</ele><time>2026-04-03T14:39:09Z</time></trkpt><trkpt lat="45.620509951092465" lon="8.560220148285174"><ele>251.25</ele><time>2026-04-03T14:39:10Z</time></trkpt><trkpt lat="45.62060229454484" lon="8.560136096726799"><ele>251.0</ele><time>2026-04-03T14:39:11Z</time></trkpt><trkpt lat="45.620678793172765" lon="8.56007330879762"><ele>251.00000000000003</ele><time>2026-04-03T14:39:12Z</time></trkpt><trkpt lat="45.62075959171372" lon="8.560010653867314"><ele>251.0</ele><time>2026-04-03T14:39:13Z</time></trkpt><trkpt lat="45.62085180928771" lon="8.559930091193223"><ele>251.0</ele><time>2026-04-03T14:39:14Z</time></trkpt><trkpt lat="45.620915087484974" lon="8.55986969109937"><ele>251.0</ele><time>2026-04-03T14:39:15Z</time></trkpt><trkpt lat="45.62097799110633" lon="8.559862206402501"><ele>251.00000000000003</ele><time>2026-04-03T14:39:17.999Z</time></trkpt><trkpt lat="45.62100799502309" lon="8.559966646585746"><ele>251.0</ele><time>2026-04-03T14:39:22.999Z</time></trkpt><trkpt lat="45.6209784182035" lon="8.560094764082693"><ele>251.00000000000003</ele><time>2026-04-03T14:39:24.999Z</time></trkpt><trkpt lat="45.621002826185716" lon="8.560192433005593"><ele>251.0</ele><time>2026-04-03T14:39:26.999Z</time></trkpt><trkpt lat="45.621054154730516" lon="8.56032238727063"><ele>251.0</ele><time>2026-04-03T14:41:54.999Z</time></trkpt><trkpt lat="45.621126784606524" lon="8.560380291975028"><ele>251.0</ele><time>2026-04-03T14:41:57.999Z</time></trkpt><trkpt lat="45.62118877149928" lon="8.560426594514455"><ele>251.00000000000003</ele><time>2026-04-03T14:42:07.998Z</time></trkpt><trkpt lat="45.62126926201979" lon="8.56042539797208"><ele>251.0</ele><time>2026-04-03T14:42:18.998Z</time></trkpt><trkpt lat="45.621380347230165" lon="8.560364368481396"><ele>251.1428571428571</ele><time>2026-04-03T14:42:40.998Z</time></trkpt><trkpt lat="45.62143323327913" lon="8.56031537400628"><ele>251.28571428571428</ele><time>2026-04-03T14:42:47.998Z</time></trkpt><trkpt lat="45.6215073117663" lon="8.56029597146015"><ele>251.42857142857142</ele><time>2026-04-03T14:43:01Z</time></trkpt><trkpt lat="45.621588788047106" lon="8.560305839733811"><ele>251.57142857142856</ele><time>2026-04-03T14:43:19.999Z</time></trkpt><trkpt lat="45.621659759866425" lon="8.560329539709379"><ele>251.71428571428572</ele><time>2026-04-03T14:43:38.999Z</time></trkpt><trkpt lat="45.62172200306131" lon="8.560269225854501"><ele>251.85714285714286</ele><time>2026-04-03T14:43:42.999Z</time></trkpt><trkpt lat="45.62166828284029" lon="8.56020882358494"><ele>252.0</ele><time>2026-04-03T14:43:55.999Z</time></trkpt><trkpt lat="45.621595325126876" lon="8.560220967074377"><ele>252.0</ele><time>2026-04-03T14:44:10.999Z</time></trkpt><trkpt lat="45.62153410071246" lon="8.560253514741722"><ele>252.0</ele><time>2026-04-03T14:44:16.998Z</time></trkpt><trkpt lat="45.62142678584097" lon="8.560295714638572"><ele>252.0</ele><time>2026-04-03T14:44:27.998Z</time></trkpt><trkpt lat="45.621356951004515" lon="8.560301883468016"><ele>252.0</ele><time>2026-04-03T14:44:30.998Z</time></trkpt><trkpt lat="45.62128195905779" lon="8.560322792195567"><ele>252.0</ele><time>2026-04-03T14:44:33.998Z</time></trkpt><trkpt lat="45.62120903461128" lon="8.56033728002147"><ele>252.0</ele><time>2026-04-03T14:44:35.998Z</time></trkpt><trkpt lat="45.62113419673591" lon="8.56029741519772"><ele>251.83333333333334</ele><time>2026-04-03T14:44:38.998Z</time></trkpt><trkpt lat="45.621093002739514" lon="8.560186375746058"><ele>251.66666666666669</ele><time>2026-04-03T14:44:41.998Z</time></trkpt><trkpt lat="45.62106426058071" lon="8.560086999454628"><ele>251.5</ele><time>2026-04-03T14:44:46.998Z</time></trkpt><trkpt lat="45.621000447685745" lon="8.560052839499939"><ele>251.33333333333334</ele><time>2026-04-03T14:44:47.998Z</time></trkpt><trkpt lat="45.62094476323628" lon="8.559958872386286"><ele>251.16666666666669</ele><time>2026-04-03T14:44:50.998Z</time></trkpt><trkpt lat="45.620841885275674" lon="8.559973758370102"><ele>251.0</ele><time>2026-04-03T14:44:52.998Z</time></trkpt><trkpt lat="45.62078132953097" lon="8.560010964171191"><ele>251.00000000000003</ele><time>2026-04-03T14:44:53.998Z</time></trkpt><trkpt lat="45.620713641686145" lon="8.56005966460321"><ele>251.0</ele><time>2026-04-03T14:44:54.998Z</time></trkpt><trkpt lat="45.62064995061447" lon="8.560101313872932"><ele>251.0</ele><time>2026-04-03T14:44:55.998Z</time></trkpt><trkpt lat="45.62056952015873" lon="8.560146730819502"><ele>251.0</ele><time>2026-04-03T14:44:56.998Z</time></trkpt><trkpt lat="45.620481091980984" lon="8.560213018671956"><ele>251.00000000000003</ele><time>2026-04-03T14:44:57.998Z</time></trkpt><trkpt lat="45.62039159609904" lon="8.560276600469575"><ele>251.0</ele><time>2026-04-03T14:44:58.998Z</time></trkpt><trkpt lat="45.62031007273233" lon="8.560344786910028"><ele>251.20000000000002</ele><time>2026-04-03T14:44:59.998Z</time></trkpt><trkpt lat="45.62022860923335" lon="8.560411649706381"><ele>251.40000000000003</ele><time>2026-04-03T14:45:00.998Z</time></trkpt><trkpt lat="45.620143657470074" lon="8.56047394128189"><ele>251.6</ele><time>2026-04-03T14:45:01.998Z</time></trkpt><trkpt lat="45.62006957922259" lon="8.560555375724475"><ele>251.8</ele><time>2026-04-03T14:45:02.998Z</time></trkpt><trkpt lat="45.620007280701685" lon="8.560647313685006"><ele>252.0</ele><time>2026-04-03T14:45:03.998Z</time></trkpt><trkpt lat="45.619954566001084" lon="8.560747923188195"><ele>252.0</ele><time>2026-04-03T14:45:05Z</time></trkpt><trkpt lat="45.61991173538151" lon="8.560850953186026"><ele>252.0</ele><time>2026-04-03T14:45:06Z</time></trkpt><trkpt lat="45.619867804620355" lon="8.56094815247932"><ele>252.0</ele><time>2026-04-03T14:45:07Z</time></trkpt><trkpt lat="45.6198262115886" lon="8.56103541294853"><ele>252.0</ele><time>2026-04-03T14:45:08Z</time></trkpt><trkpt lat="45.61977663431444" lon="8.561124264577094"><ele>252.0</ele><time>2026-04-03T14:45:09Z</time></trkpt><trkpt lat="45.61972066352554" lon="8.561216111715739"><ele>252.0</ele><time>2026-04-03T14:45:10Z</time></trkpt><trkpt lat="45.619671351789435" lon="8.561298678895977"><ele>251.66666666666666</ele><time>2026-04-03T14:45:11Z</time></trkpt><trkpt lat="45.61963538264138" lon="8.561373784807019"><ele>251.33333333333331</ele><time>2026-04-03T14:45:12Z</time></trkpt><trkpt lat="45.6196231074141" lon="8.561521258423085"><ele>251.0</ele><time>2026-04-03T14:45:14Z</time></trkpt><trkpt lat="45.61963706554843" lon="8.561642828947047"><ele>250.66666666666666</ele><time>2026-04-03T14:45:16Z</time></trkpt><trkpt lat="45.6196468762863" lon="8.561786572653592"><ele>250.33333333333331</ele><time>2026-04-03T14:45:18Z</time></trkpt><trkpt lat="45.619709270336614" lon="8.561764041804544"><ele>250.0</ele><time>2026-04-03T14:45:21Z</time></trkpt><trkpt lat="45.619772455556216" lon="8.561785160704494"><ele>250.0</ele><time>2026-04-03T14:45:23Z</time></trkpt><trkpt lat="45.6197959437558" lon="8.561870367727835"><ele>250.0</ele><time>2026-04-03T14:45:28.999Z</time></trkpt><trkpt lat="45.61978953558049" lon="8.561961829864963"><ele>250.0</ele><time>2026-04-03T14:45:36.999Z</time></trkpt><trkpt lat="45.61977831083262" lon="8.5620529129526"><ele>250.0</ele><time>2026-04-03T14:45:40.999Z</time></trkpt><trkpt lat="45.6197778901132" lon="8.562145840500142"><ele>250.0</ele><time>2026-04-03T14:45:48.999Z</time></trkpt><trkpt lat="45.61976689890662" lon="8.562256406329523"><ele>250.0</ele><time>2026-04-03T14:45:52.999Z</time></trkpt><trkpt lat="45.619704843054826" lon="8.562330048853855"><ele>250.0</ele><time>2026-04-03T14:45:55.999Z</time></trkpt><trkpt lat="45.61966339316368" lon="8.562467177913042"><ele>249.99999999999997</ele><time>2026-04-03T14:45:58.999Z</time></trkpt><trkpt lat="45.6196124791356" lon="8.562529341720946"><ele>250.0</ele><time>2026-04-03T14:46:00.999Z</time></trkpt><trkpt lat="45.619559495819686" lon="8.562605832261813"><ele>250.0</ele><time>2026-04-03T14:46:03.999Z</time></trkpt><trkpt lat="45.61948757450771" lon="8.562672377417574"><ele>250.0</ele><time>2026-04-03T14:46:06.999Z</time></trkpt><trkpt lat="45.61939462929997" lon="8.56271845068464"><ele>249.99999999999997</ele><time>2026-04-03T14:46:08.999Z</time></trkpt><trkpt lat="45.61936490072566" lon="8.562802057139445"><ele>250.0</ele><time>2026-04-03T14:46:10.999Z</time></trkpt><trkpt lat="45.61932242372683" lon="8.562878060971652"><ele>249.99999999999997</ele><time>2026-04-03T14:46:18.998Z</time></trkpt><trkpt lat="45.61926046025523" lon="8.562907736617476"><ele>250.0</ele><time>2026-04-03T14:46:24.998Z</time></trkpt><trkpt lat="45.619209620223344" lon="8.562837109619526"><ele>250.0</ele><time>2026-04-03T14:46:26.998Z</time></trkpt><trkpt lat="45.61912346364682" lon="8.562818670140762"><ele>250.0</ele><time>2026-04-03T14:46:28.998Z</time></trkpt><trkpt lat="45.61903794042351" lon="8.562798375404057"><ele>249.99999999999997</ele><time>2026-04-03T14:46:37.998Z</time></trkpt><trkpt lat="45.61891399157712" lon="8.562862231808788"><ele>250.0</ele><time>2026-04-03T14:46:50.998Z</time></trkpt><trkpt lat="45.61886109875336" lon="8.562919613437073"><ele>248.85714285714283</ele><time>2026-04-03T14:47:04.998Z</time></trkpt><trkpt lat="45.61880701505227" lon="8.562985452650622"><ele>247.71428571428572</ele><time>2026-04-03T14:47:07.998Z</time></trkpt><trkpt lat="45.61874658379091" lon="8.56303694637751"><ele>246.57142857142856</ele><time>2026-04-03T14:47:11Z</time></trkpt><trkpt lat="45.61874777092782" lon="8.563139519797689"><ele>245.42857142857142</ele><time>2026-04-03T14:47:15Z</time></trkpt><trkpt lat="45.618745535903926" lon="8.563268886366982"><ele>244.28571428571428</ele><time>2026-04-03T14:47:18Z</time></trkpt><trkpt lat="45.61881908143607" lon="8.563256656497764"><ele>243.14285714285714</ele><time>2026-04-03T14:47:26Z</time></trkpt><trkpt lat="45.61887924117854" lon="8.563204078616552"><ele>242.0</ele><time>2026-04-03T14:47:29.999Z</time></trkpt><trkpt lat="45.61883420898952" lon="8.563283855545563"><ele>242.0</ele><time>2026-04-03T14:47:54.999Z</time></trkpt><trkpt lat="45.618771165932465" lon="8.563355423384122"><ele>241.99999999999997</ele><time>2026-04-03T14:47:56.999Z</time></trkpt><trkpt lat="45.6187140828078" lon="8.563397769203165"><ele>242.0</ele><time>2026-04-03T14:47:59.999Z</time></trkpt><trkpt lat="45.61864830992648" lon="8.563440202364243"><ele>242.0</ele><time>2026-04-03T14:48:02.999Z</time></trkpt><trkpt lat="45.61858939481111" lon="8.563478507443145"><ele>241.99999999999997</ele><time>2026-04-03T14:48:20.998Z</time></trkpt><trkpt lat="45.618667058646054" lon="8.563474492512347"><ele>242.0</ele><time>2026-04-03T14:50:32.998Z</time></trkpt><trkpt lat="45.61874246907787" lon="8.563425199994917"><ele>242.0</ele><time>2026-04-03T14:50:35.998Z</time></trkpt><trkpt lat="45.61879373007445" lon="8.563330931921582"><ele>242.00000000000003</ele><time>2026-04-03T14:50:39.998Z</time></trkpt><trkpt lat="45.61885248315803" lon="8.563284442242994"><ele>242.0</ele><time>2026-04-03T14:50:42.998Z</time></trkpt><trkpt lat="45.618920393912724" lon="8.563254917324615"><ele>242.0</ele><time>2026-04-03T14:50:46.998Z</time></trkpt><trkpt lat="45.618986323122634" lon="8.563248284995556"><ele>242.0</ele><time>2026-04-03T14:50:49.998Z</time></trkpt><trkpt lat="45.61910165121687" lon="8.563145250289594"><ele>242.00000000000003</ele><time>2026-04-03T14:51:18.998Z</time></trkpt><trkpt lat="45.61917756309497" lon="8.563159103806035"><ele>242.0</ele><time>2026-04-03T14:51:24Z</time></trkpt><trkpt lat="45.61924345144956" lon="8.563119391585236"><ele>242.0</ele><time>2026-04-03T14:51:28Z</time></trkpt><trkpt lat="45.61930883531154" lon="8.563099605362885"><ele>241.99999999999997</ele><time>2026-04-03T14:51:35Z</time></trkpt><trkpt lat="45.619365706386084" lon="8.563057656509438"><ele>242.0</ele><time>2026-04-03T14:51:40Z</time></trkpt><trkpt lat="45.61943223422227" lon="8.563044022418868"><ele>242.0</ele><time>2026-04-03T14:51:42.999Z</time></trkpt><trkpt lat="45.619495310477085" lon="8.563012494620116"><ele>241.99999999999997</ele><time>2026-04-03T14:51:46.999Z</time></trkpt><trkpt lat="45.619538422346004" lon="8.562934941616504"><ele>242.0</ele><time>2026-04-03T14:51:49.999Z</time></trkpt><trkpt lat="45.6196067379855" lon="8.562900826392795"><ele>242.0</ele><time>2026-04-03T14:51:52.999Z</time></trkpt><trkpt lat="45.619689929404004" lon="8.562873949265066"><ele>242.00000000000003</ele><time>2026-04-03T14:51:59.999Z</time></trkpt><trkpt lat="45.61966865570266" lon="8.562978827121713"><ele>242.0</ele><time>2026-04-03T14:52:22.999Z</time></trkpt><trkpt lat="45.61956853991669" lon="8.563032267389941"><ele>242.0</ele><time>2026-04-03T14:52:25.999Z</time></trkpt><trkpt lat="45.61951295020488" lon="8.563079693053503"><ele>242.0</ele><time>2026-04-03T14:52:27.999Z</time></trkpt><trkpt lat="45.619454286697" lon="8.56313598880539"><ele>242.00000000000003</ele><time>2026-04-03T14:52:30.998Z</time></trkpt><trkpt lat="45.61938981748436" lon="8.563163159896822"><ele>242.0</ele><time>2026-04-03T14:52:45.998Z</time></trkpt><trkpt lat="45.619312582944865" lon="8.563155899158069"><ele>242.00000000000003</ele><time>2026-04-03T14:52:51.998Z</time></trkpt><trkpt lat="45.61924226857236" lon="8.56316659506687"><ele>242.0</ele><time>2026-04-03T14:52:59.998Z</time></trkpt><trkpt lat="45.619152381961015" lon="8.563183540036672"><ele>242.0</ele><time>2026-04-03T14:53:05.998Z</time></trkpt><trkpt lat="45.61908386148596" lon="8.563231129408983"><ele>242.0</ele><time>2026-04-03T14:53:14.998Z</time></trkpt><trkpt lat="45.619016250083575" lon="8.56328878592717"><ele>242.00000000000003</ele><time>2026-04-03T14:53:16.998Z</time></trkpt><trkpt lat="45.61894150442983" lon="8.563340239132415"><ele>242.0</ele><time>2026-04-03T14:53:18.998Z</time></trkpt><trkpt lat="45.61888094597058" lon="8.563398240266412"><ele>242.00000000000003</ele><time>2026-04-03T14:53:20.998Z</time></trkpt><trkpt lat="45.61884968817489" lon="8.56351480527669"><ele>242.0</ele><time>2026-04-03T14:53:22.997Z</time></trkpt><trkpt lat="45.61878111605971" lon="8.563619555935226"><ele>242.0</ele><time>2026-04-03T14:53:24.997Z</time></trkpt><trkpt lat="45.618712456086826" lon="8.56367244887617"><ele>242.0</ele><time>2026-04-03T14:53:34.999Z</time></trkpt><trkpt lat="45.618652520639564" lon="8.56372255301069"><ele>242.00000000000003</ele><time>2026-04-03T14:53:42.999Z</time></trkpt><trkpt lat="45.618592984597605" lon="8.563796184218374"><ele>242.0</ele><time>2026-04-03T14:53:46.999Z</time></trkpt><trkpt lat="45.61850654182156" lon="8.563847427352488"><ele>241.66666666666669</ele><time>2026-04-03T14:53:49.999Z</time></trkpt><trkpt lat="45.618434724942404" lon="8.563849288324379"><ele>241.33333333333334</ele><time>2026-04-03T14:53:52.999Z</time></trkpt><trkpt lat="45.61841894557201" lon="8.563718861389592"><ele>241.0</ele><time>2026-04-03T14:55:31.997Z</time></trkpt><trkpt lat="45.618412217232425" lon="8.563603796112243"><ele>240.66666666666669</ele><time>2026-04-03T14:55:34.999Z</time></trkpt><trkpt lat="45.618368746100586" lon="8.563500379175329"><ele>240.33333333333334</ele><time>2026-04-03T14:55:39.999Z</time></trkpt><trkpt lat="45.618282297781285" lon="8.563431403044637"><ele>240.0</ele><time>2026-04-03T14:55:42.999Z</time></trkpt><trkpt lat="45.61822994162768" lon="8.563377681392"><ele>240.0</ele><time>2026-04-03T14:55:46.999Z</time></trkpt><trkpt lat="45.618173279551435" lon="8.563337444631177"><ele>240.0</ele><time>2026-04-03T14:55:56.999Z</time></trkpt><trkpt lat="45.61823632506581" lon="8.563407088531186"><ele>240.0</ele><time>2026-04-03T14:57:07.998Z</time></trkpt><trkpt lat="45.618301555828026" lon="8.563445339340642"><ele>240.0</ele><time>2026-04-03T14:57:11.998Z</time></trkpt><trkpt lat="45.6183126810179" lon="8.563551280353874"><ele>240.0</ele><time>2026-04-03T14:57:17.998Z</time></trkpt><trkpt lat="45.61829193213295" lon="8.563682823954416"><ele>240.0</ele><time>2026-04-03T14:57:20.998Z</time></trkpt><trkpt lat="45.618269679419925" lon="8.563772777524907"><ele>240.0</ele><time>2026-04-03T14:57:26.998Z</time></trkpt><trkpt lat="45.61829694668297" lon="8.563909321568023"><ele>240.0</ele><time>2026-04-03T14:57:39.999Z</time></trkpt><trkpt lat="45.6183568890937" lon="8.563967580959593"><ele>240.0</ele><time>2026-04-03T14:57:42.999Z</time></trkpt><trkpt lat="45.61841195609366" lon="8.564068155098571"><ele>240.0</ele><time>2026-04-03T14:58:27.998Z</time></trkpt><trkpt lat="45.61838116022328" lon="8.56419894533153"><ele>240.0</ele><time>2026-04-03T14:58:30.998Z</time></trkpt><trkpt lat="45.618321710694566" lon="8.564312646369679"><ele>240.0</ele><time>2026-04-03T14:58:32.998Z</time></trkpt><trkpt lat="45.61827899026884" lon="8.56439665112349"><ele>240.0</ele><time>2026-04-03T14:58:34.998Z</time></trkpt><trkpt lat="45.61824679882559" lon="8.564482085072033"><ele>240.0</ele><time>2026-04-03T14:58:38.998Z</time></trkpt><trkpt lat="45.61817202367433" lon="8.564430413836629"><ele>240.0</ele><time>2026-04-03T14:58:41.998Z</time></trkpt><trkpt lat="45.6180936305694" lon="8.564425776834348"><ele>240.0</ele><time>2026-04-03T14:58:43.998Z</time></trkpt><trkpt lat="45.618016051010564" lon="8.564462232507859"><ele>240.0</ele><time>2026-04-03T14:58:45.998Z</time></trkpt><trkpt lat="45.61792765202027" lon="8.564500037267054"><ele>240.0</ele><time>2026-04-03T14:58:47.998Z</time></trkpt><trkpt lat="45.61781838894245" lon="8.564568421188783"><ele>239.66666666666666</ele><time>2026-04-03T14:58:49.998Z</time></trkpt><trkpt lat="45.61772691775651" lon="8.564617624768374"><ele>239.33333333333331</ele><time>2026-04-03T14:58:51.998Z</time></trkpt><trkpt lat="45.61763604562541" lon="8.564658053364159"><ele>239.0</ele><time>2026-04-03T14:58:53.998Z</time></trkpt><trkpt lat="45.61756399155514" lon="8.564698452504867"><ele>238.66666666666666</ele><time>2026-04-03T14:58:55.998Z</time></trkpt><trkpt lat="45.61746991599063" lon="8.564750794722695"><ele>238.33333333333331</ele><time>2026-04-03T14:58:57.998Z</time></trkpt><trkpt lat="45.61740522682207" lon="8.564773372729265"><ele>238.0</ele><time>2026-04-03T14:58:58.998Z</time></trkpt><trkpt lat="45.617287894517574" lon="8.56479670099734"><ele>238.0</ele><time>2026-04-03T14:59:00.998Z</time></trkpt><trkpt lat="45.61718111382828" lon="8.564838090198386"><ele>238.0</ele><time>2026-04-03T14:59:02.998Z</time></trkpt><trkpt lat="45.61707800407671" lon="8.564887948663621"><ele>238.0</ele><time>2026-04-03T14:59:04.998Z</time></trkpt><trkpt lat="45.616973894402015" lon="8.564960611864526"><ele>238.0</ele><time>2026-04-03T14:59:06.998Z</time></trkpt><trkpt lat="45.616868389443574" lon="8.565036318834602"><ele>237.8</ele><time>2026-04-03T14:59:08.998Z</time></trkpt><trkpt lat="45.61680318480963" lon="8.565083222161336"><ele>237.60000000000002</ele><time>2026-04-03T14:59:09.998Z</time></trkpt><trkpt lat="45.61671338023459" lon="8.565138323768851"><ele>237.39999999999998</ele><time>2026-04-03T14:59:11.998Z</time></trkpt><trkpt lat="45.616653622344884" lon="8.565178184285617"><ele>237.2</ele><time>2026-04-03T14:59:12.998Z</time></trkpt><trkpt lat="45.61654366998407" lon="8.565218949372555"><ele>237.0</ele><time>2026-04-03T14:59:14.998Z</time></trkpt><trkpt lat="45.61644524936852" lon="8.56524635239116"><ele>237.0</ele><time>2026-04-03T14:59:16.998Z</time></trkpt><trkpt lat="45.61635706266611" lon="8.565301296674791"><ele>237.0</ele><time>2026-04-03T14:59:18.998Z</time></trkpt><trkpt lat="45.616266002839176" lon="8.565395885027804"><ele>237.0</ele><time>2026-04-03T14:59:20.998Z</time></trkpt><trkpt lat="45.616160280828545" lon="8.565469606512083"><ele>237.0</ele><time>2026-04-03T14:59:22.998Z</time></trkpt><trkpt lat="45.616082029802676" lon="8.565550203208215"><ele>237.0</ele><time>2026-04-03T14:59:24.998Z</time></trkpt><trkpt lat="45.61605029374517" lon="8.565698133822806"><ele>237.0</ele><time>2026-04-03T14:59:35.997Z</time></trkpt><trkpt lat="45.616015595388944" lon="8.565880158330167"><ele>237.0</ele><time>2026-04-03T14:59:37.997Z</time></trkpt><trkpt lat="45.61600879423472" lon="8.56599068613275"><ele>237.0</ele><time>2026-04-03T14:59:38.997Z</time></trkpt><trkpt lat="45.616003672307194" lon="8.566098544073945"><ele>237.0</ele><time>2026-04-03T14:59:39.997Z</time></trkpt><trkpt lat="45.61599503689677" lon="8.566203328109276"><ele>237.0</ele><time>2026-04-03T14:59:40.997Z</time></trkpt><trkpt lat="45.61595933278689" lon="8.566309809912049"><ele>237.0</ele><time>2026-04-03T14:59:41.997Z</time></trkpt><trkpt lat="45.61593716730591" lon="8.566448296985161"><ele>237.0</ele><time>2026-04-03T14:59:42.997Z</time></trkpt><trkpt lat="45.61590537217491" lon="8.566584557053964"><ele>237.0</ele><time>2026-04-03T14:59:43.997Z</time></trkpt><trkpt lat="45.6158634574136" lon="8.566708907802932"><ele>237.0</ele><time>2026-04-03T14:59:44.999Z</time></trkpt><trkpt lat="45.61582658148294" lon="8.566831675221158"><ele>237.0</ele><time>2026-04-03T14:59:45.999Z</time></trkpt><trkpt lat="45.61579281570814" lon="8.566960684446704"><ele>237.0</ele><time>2026-04-03T14:59:46.999Z</time></trkpt><trkpt lat="45.61576454144951" lon="8.567088897402304"><ele>236.6</ele><time>2026-04-03T14:59:47.999Z</time></trkpt><trkpt lat="45.61572275558449" lon="8.567228008833323"><ele>236.2</ele><time>2026-04-03T14:59:48.999Z</time></trkpt><trkpt lat="45.61569202969439" lon="8.567376397190007"><ele>235.8</ele><time>2026-04-03T14:59:49.999Z</time></trkpt><trkpt lat="45.61566060954494" lon="8.567505829472978"><ele>235.4</ele><time>2026-04-03T14:59:50.999Z</time></trkpt><trkpt lat="45.615639619626826" lon="8.567636796495707"><ele>235.0</ele><time>2026-04-03T14:59:51.999Z</time></trkpt><trkpt lat="45.61562300491356" lon="8.567770682627291"><ele>235.16666666666666</ele><time>2026-04-03T14:59:52.999Z</time></trkpt><trkpt lat="45.61559857686499" lon="8.567907292785309"><ele>235.33333333333331</ele><time>2026-04-03T14:59:53.999Z</time></trkpt><trkpt lat="45.61558698735939" lon="8.568033921364439"><ele>235.5</ele><time>2026-04-03T14:59:54.999Z</time></trkpt><trkpt lat="45.61557108816226" lon="8.56815703732071"><ele>235.66666666666669</ele><time>2026-04-03T14:59:55.999Z</time></trkpt><trkpt lat="45.615551740689426" lon="8.568267831872285"><ele>235.83333333333334</ele><time>2026-04-03T14:59:56.999Z</time></trkpt><trkpt lat="45.61552375215427" lon="8.568351048062159"><ele>236.0</ele><time>2026-04-03T14:59:57.999Z</time></trkpt><trkpt lat="45.61547302598532" lon="8.568461687051045"><ele>236.0</ele><time>2026-04-03T14:59:59.999Z</time></trkpt><trkpt lat="45.615467191527706" lon="8.568603005489615"><ele>236.00000000000003</ele><time>2026-04-03T15:00:01.999Z</time></trkpt><trkpt lat="45.61546741290365" lon="8.568707968936618"><ele>236.00000000000003</ele><time>2026-04-03T15:00:02.999Z</time></trkpt><trkpt lat="45.61551360487108" lon="8.568844437472631"><ele>236.0</ele><time>2026-04-03T15:00:04.999Z</time></trkpt><trkpt lat="45.615559909826864" lon="8.56891640680092"><ele>236.0</ele><time>2026-04-03T15:01:04.998Z</time></trkpt><trkpt lat="45.61569008762832" lon="8.5688100361062"><ele>236.00000000000003</ele><time>2026-04-03T15:01:06.998Z</time></trkpt><trkpt lat="45.6157617421141" lon="8.568751176132848"><ele>236.0</ele><time>2026-04-03T15:01:07.998Z</time></trkpt><trkpt lat="45.61584913981881" lon="8.568696023977019"><ele>236.0</ele><time>2026-04-03T15:01:08.998Z</time></trkpt><trkpt lat="45.61591124920543" lon="8.568646051568411"><ele>236.0</ele><time>2026-04-03T15:01:09.998Z</time></trkpt><trkpt lat="45.61601349366469" lon="8.568618871975433"><ele>236.00000000000003</ele><time>2026-04-03T15:01:11.998Z</time></trkpt><trkpt lat="45.6160579039214" lon="8.56868613132441"><ele>236.0</ele><time>2026-04-03T15:01:13.998Z</time></trkpt><trkpt lat="45.61609296331449" lon="8.568906216086976"><ele>236.66666666666669</ele><time>2026-04-03T15:01:15.998Z</time></trkpt><trkpt lat="45.61609874570089" lon="8.56902317904866"><ele>237.33333333333334</ele><time>2026-04-03T15:01:16.998Z</time></trkpt><trkpt lat="45.61611982125289" lon="8.569109415365672"><ele>238.0</ele><time>2026-04-03T15:01:17.998Z</time></trkpt><trkpt lat="45.616198447970255" lon="8.569164548759124"><ele>238.66666666666669</ele><time>2026-04-03T15:01:19.999Z</time></trkpt><trkpt lat="45.61627347094033" lon="8.569127431957611"><ele>239.33333333333334</ele><time>2026-04-03T15:01:20.999Z</time></trkpt><trkpt lat="45.616371270389905" lon="8.569051738669335"><ele>240.0</ele><time>2026-04-03T15:01:21.999Z</time></trkpt><trkpt lat="45.61646107127153" lon="8.568981310301586"><ele>240.0</ele><time>2026-04-03T15:01:22.999Z</time></trkpt><trkpt lat="45.61652199371674" lon="8.568949174839833"><ele>240.0</ele><time>2026-04-03T15:01:23.999Z</time></trkpt><trkpt lat="45.61658800828251" lon="8.568925414829035"><ele>240.0</ele><time>2026-04-03T15:01:24.999Z</time></trkpt><trkpt lat="45.61665473974372" lon="8.56891082451232"><ele>240.0</ele><time>2026-04-03T15:01:25.999Z</time></trkpt><trkpt lat="45.61673087887083" lon="8.568887517722953"><ele>240.0</ele><time>2026-04-03T15:01:26.999Z</time></trkpt><trkpt lat="45.61679925095939" lon="8.56886120818573"><ele>240.0</ele><time>2026-04-03T15:01:27.999Z</time></trkpt><trkpt lat="45.616893372829146" lon="8.568834882119384"><ele>240.0</ele><time>2026-04-03T15:01:29.999Z</time></trkpt><trkpt lat="45.61695680048855" lon="8.568872188059709"><ele>240.2</ele><time>2026-04-03T15:01:31.999Z</time></trkpt><trkpt lat="45.617013217897934" lon="8.568919678384928"><ele>240.4</ele><time>2026-04-03T15:01:33.999Z</time></trkpt><trkpt lat="45.61710367758626" lon="8.568912238631619"><ele>240.60000000000002</ele><time>2026-04-03T15:01:35.999Z</time></trkpt><trkpt lat="45.61723835514336" lon="8.568874735998257"><ele>240.8</ele><time>2026-04-03T15:01:37.999Z</time></trkpt><trkpt lat="45.61730981932624" lon="8.56886303112895"><ele>241.0</ele><time>2026-04-03T15:01:38.999Z</time></trkpt><trkpt lat="45.61743154076689" lon="8.568838129596895"><ele>240.99999999999997</ele><time>2026-04-03T15:01:40.999Z</time></trkpt><trkpt lat="45.61750196451664" lon="8.56882410433778"><ele>241.0</ele><time>2026-04-03T15:01:41.999Z</time></trkpt><trkpt lat="45.61757604403086" lon="8.568809020736309"><ele>241.0</ele><time>2026-04-03T15:01:42.999Z</time></trkpt><trkpt lat="45.61765274136205" lon="8.568793568681544"><ele>241.0</ele><time>2026-04-03T15:01:43.999Z</time></trkpt><trkpt lat="45.61772997581108" lon="8.568780377095562"><ele>240.99999999999997</ele><time>2026-04-03T15:01:44.999Z</time></trkpt><trkpt lat="45.61780945931523" lon="8.568763952057004"><ele>241.0</ele><time>2026-04-03T15:01:45.998Z</time></trkpt><trkpt lat="45.61788805866325" lon="8.56875320839038"><ele>241.16666666666666</ele><time>2026-04-03T15:01:46.998Z</time></trkpt><trkpt lat="45.61795817145844" lon="8.56873961222338"><ele>241.33333333333331</ele><time>2026-04-03T15:01:47.998Z</time></trkpt><trkpt lat="45.618029780306365" lon="8.568725277780494"><ele>241.5</ele><time>2026-04-03T15:01:48.998Z</time></trkpt><trkpt lat="45.61810056911407" lon="8.568709592314793"><ele>241.66666666666669</ele><time>2026-04-03T15:01:49.998Z</time></trkpt><trkpt lat="45.61817781112763" lon="8.568694065872506"><ele>241.83333333333334</ele><time>2026-04-03T15:01:51Z</time></trkpt><trkpt lat="45.61825169426603" lon="8.568676149563213"><ele>242.0</ele><time>2026-04-03T15:01:52Z</time></trkpt><trkpt lat="45.618344299847664" lon="8.568661835247184"><ele>241.83333333333334</ele><time>2026-04-03T15:01:53Z</time></trkpt><trkpt lat="45.618416686995225" lon="8.568650574069736"><ele>241.66666666666669</ele><time>2026-04-03T15:01:54Z</time></trkpt><trkpt lat="45.618494771953266" lon="8.568636908973028"><ele>241.5</ele><time>2026-04-03T15:01:55Z</time></trkpt><trkpt lat="45.61857259513721" lon="8.56862601066921"><ele>241.33333333333331</ele><time>2026-04-03T15:01:56Z</time></trkpt><trkpt lat="45.61864064488809" lon="8.568610133742473"><ele>241.16666666666666</ele><time>2026-04-03T15:01:57Z</time></trkpt><trkpt lat="45.61871491175944" lon="8.568592256348559"><ele>241.0</ele><time>2026-04-03T15:01:58Z</time></trkpt><trkpt lat="45.6187931946461" lon="8.568578853016076"><ele>240.99999999999997</ele><time>2026-04-03T15:01:59Z</time></trkpt><trkpt lat="45.618861147968374" lon="8.568562542938766"><ele>241.0</ele><time>2026-04-03T15:02:00Z</time></trkpt><trkpt lat="45.6189694524562" lon="8.568542919150616"><ele>241.0</ele><time>2026-04-03T15:02:02Z</time></trkpt><trkpt lat="45.61903603141137" lon="8.568563197042744"><ele>241.0</ele><time>2026-04-03T15:02:08Z</time></trkpt><trkpt lat="45.61901502843528" lon="8.568695537726395"><ele>240.99999999999997</ele><time>2026-04-03T15:02:10Z</time></trkpt><trkpt lat="45.61900740368999" lon="8.56881761724664"><ele>241.0</ele><time>2026-04-03T15:02:11Z</time></trkpt><trkpt lat="45.61899515875219" lon="8.568942087334403"><ele>241.16666666666666</ele><time>2026-04-03T15:02:12Z</time></trkpt><trkpt lat="45.618988722907275" lon="8.569080237550706"><ele>241.33333333333331</ele><time>2026-04-03T15:02:13Z</time></trkpt><trkpt lat="45.61898021796004" lon="8.569218665228945"><ele>241.5</ele><time>2026-04-03T15:02:14Z</time></trkpt><trkpt lat="45.61898940528465" lon="8.569356465011566"><ele>241.66666666666669</ele><time>2026-04-03T15:02:15Z</time></trkpt><trkpt lat="45.61898771801289" lon="8.569462549862175"><ele>241.83333333333334</ele><time>2026-04-03T15:02:16Z</time></trkpt><trkpt lat="45.618985575923304" lon="8.569556250995632"><ele>242.0</ele><time>2026-04-03T15:02:17Z</time></trkpt><trkpt lat="45.61900185967891" lon="8.569656169825102"><ele>242.16666666666669</ele><time>2026-04-03T15:02:18Z</time></trkpt><trkpt lat="45.61901170989254" lon="8.569778892008998"><ele>242.33333333333334</ele><time>2026-04-03T15:02:19Z</time></trkpt><trkpt lat="45.61901815576731" lon="8.569899836261083"><ele>242.5</ele><time>2026-04-03T15:02:20Z</time></trkpt><trkpt lat="45.61902341584041" lon="8.570008164211911"><ele>242.66666666666669</ele><time>2026-04-03T15:02:21Z</time></trkpt><trkpt lat="45.61902831558331" lon="8.570132050825507"><ele>242.83333333333334</ele><time>2026-04-03T15:02:22Z</time></trkpt><trkpt lat="45.61902968752143" lon="8.57026730729789"><ele>243.0</ele><time>2026-04-03T15:02:23Z</time></trkpt><trkpt lat="45.61902956274577" lon="8.57039597168021"><ele>243.2</ele><time>2026-04-03T15:02:24Z</time></trkpt><trkpt lat="45.619033731526685" lon="8.570531923508856"><ele>243.4</ele><time>2026-04-03T15:02:25Z</time></trkpt><trkpt lat="45.61903420330759" lon="8.570682589529573"><ele>243.59999999999997</ele><time>2026-04-03T15:02:26Z</time></trkpt><trkpt lat="45.619036811299054" lon="8.570834812080232"><ele>243.79999999999998</ele><time>2026-04-03T15:02:27Z</time></trkpt><trkpt lat="45.61904356418003" lon="8.570961108607062"><ele>244.0</ele><time>2026-04-03T15:02:28Z</time></trkpt><trkpt lat="45.61904682437302" lon="8.571092272333845"><ele>244.2</ele><time>2026-04-03T15:02:29Z</time></trkpt><trkpt lat="45.61905134755993" lon="8.571239292614928"><ele>244.39999999999998</ele><time>2026-04-03T15:02:30Z</time></trkpt><trkpt lat="45.61906255314093" lon="8.571383356768049"><ele>244.6</ele><time>2026-04-03T15:02:31Z</time></trkpt><trkpt lat="45.61905280646889" lon="8.571524531123904"><ele>244.8</ele><time>2026-04-03T15:02:32Z</time></trkpt><trkpt lat="45.619055450450524" lon="8.571647260730616"><ele>245.0</ele><time>2026-04-03T15:02:33Z</time></trkpt><trkpt lat="45.61907480100679" lon="8.571749218063522"><ele>245.0</ele><time>2026-04-03T15:02:34Z</time></trkpt><trkpt lat="45.61907746151692" lon="8.571928955289044"><ele>245.0</ele><time>2026-04-03T15:02:36Z</time></trkpt><trkpt lat="45.619065255535546" lon="8.572065076732867"><ele>245.0</ele><time>2026-04-03T15:02:38Z</time></trkpt><trkpt lat="45.619061208401995" lon="8.572194156736337"><ele>245.0</ele><time>2026-04-03T15:02:40Z</time></trkpt><trkpt lat="45.61908477587984" lon="8.572340345017809"><ele>245.0</ele><time>2026-04-03T15:02:42Z</time></trkpt><trkpt lat="45.61908289087706" lon="8.572522154640822"><ele>245.0</ele><time>2026-04-03T15:02:44Z</time></trkpt><trkpt lat="45.6190873544164" lon="8.572637763704344"><ele>245.0</ele><time>2026-04-03T15:02:45Z</time></trkpt><trkpt lat="45.619092482612935" lon="8.572748821195328"><ele>245.0</ele><time>2026-04-03T15:02:46Z</time></trkpt><trkpt lat="45.61910522503528" lon="8.572868599031256"><ele>245.0</ele><time>2026-04-03T15:02:47Z</time></trkpt><trkpt lat="45.619102561900554" lon="8.573004606664842"><ele>245.0</ele><time>2026-04-03T15:02:48Z</time></trkpt><trkpt lat="45.61909500559027" lon="8.573176192946752"><ele>245.25</ele><time>2026-04-03T15:02:49Z</time></trkpt><trkpt lat="45.61909877347639" lon="8.573348564630308"><ele>245.5</ele><time>2026-04-03T15:02:50Z</time></trkpt><trkpt lat="45.619099205084375" lon="8.573521261040975"><ele>245.75</ele><time>2026-04-03T15:02:51Z</time></trkpt><trkpt lat="45.61910202210099" lon="8.573688325569501"><ele>246.0</ele><time>2026-04-03T15:02:52Z</time></trkpt><trkpt lat="45.61910500694036" lon="8.573853627087253"><ele>246.0</ele><time>2026-04-03T15:02:53Z</time></trkpt><trkpt lat="45.619107532374244" lon="8.574007456179988"><ele>246.00000000000003</ele><time>2026-04-03T15:02:54Z</time></trkpt><trkpt lat="45.61911003793722" lon="8.574140486988542"><ele>246.00000000000003</ele><time>2026-04-03T15:02:55Z</time></trkpt><trkpt lat="45.61911616406107" lon="8.574275640274632"><ele>246.0</ele><time>2026-04-03T15:02:56Z</time></trkpt><trkpt lat="45.61912216651611" lon="8.574411476224313"><ele>246.0</ele><time>2026-04-03T15:02:57Z</time></trkpt><trkpt lat="45.619125514725404" lon="8.574546965689356"><ele>247.4</ele><time>2026-04-03T15:02:58Z</time></trkpt><trkpt lat="45.61912650042571" lon="8.574686584988424"><ele>248.8</ele><time>2026-04-03T15:02:59Z</time></trkpt><trkpt lat="45.61913285189302" lon="8.574840735732964"><ele>250.20000000000002</ele><time>2026-04-03T15:03:00Z</time></trkpt><trkpt lat="45.61913568558689" lon="8.57497948060918"><ele>251.60000000000002</ele><time>2026-04-03T15:03:01Z</time></trkpt><trkpt lat="45.619136198779046" lon="8.575112899396732"><ele>253.0</ele><time>2026-04-03T15:03:02Z</time></trkpt><trkpt lat="45.61913830783609" lon="8.575234936131007"><ele>253.0</ele><time>2026-04-03T15:03:02.999Z</time></trkpt><trkpt lat="45.619142740427726" lon="8.575374349441852"><ele>253.0</ele><time>2026-04-03T15:03:03.999Z</time></trkpt><trkpt lat="45.61914701946479" lon="8.575503129517164"><ele>253.0</ele><time>2026-04-03T15:03:04.999Z</time></trkpt><trkpt lat="45.619147186906595" lon="8.575641638557629"><ele>253.0</ele><time>2026-04-03T15:03:05.999Z</time></trkpt><trkpt lat="45.61915049834276" lon="8.575801471543809"><ele>253.0</ele><time>2026-04-03T15:03:06.999Z</time></trkpt><trkpt lat="45.61915715730708" lon="8.575963746759152"><ele>253.0</ele><time>2026-04-03T15:03:07.999Z</time></trkpt><trkpt lat="45.61916097607081" lon="8.576118546085716"><ele>253.0</ele><time>2026-04-03T15:03:08.999Z</time></trkpt><trkpt lat="45.61916068447766" lon="8.576262688391756"><ele>253.0</ele><time>2026-04-03T15:03:09.999Z</time></trkpt><trkpt lat="45.6191624153211" lon="8.576387553253761"><ele>253.0</ele><time>2026-04-03T15:03:10.999Z</time></trkpt><trkpt lat="45.619163343082434" lon="8.576488592839544"><ele>253.0</ele><time>2026-04-03T15:03:11.999Z</time></trkpt><trkpt lat="45.61916235067736" lon="8.576611634447389"><ele>253.2</ele><time>2026-04-03T15:03:13.999Z</time></trkpt><trkpt lat="45.619166894431395" lon="8.576715562790977"><ele>253.4</ele><time>2026-04-03T15:03:16.999Z</time></trkpt><trkpt lat="45.61927215901865" lon="8.576761348481853"><ele>253.59999999999997</ele><time>2026-04-03T15:03:19.999Z</time></trkpt><trkpt lat="45.619363118734086" lon="8.57671792434406"><ele>253.79999999999998</ele><time>2026-04-03T15:03:20.999Z</time></trkpt><trkpt lat="45.6194546816903" lon="8.576682907879444"><ele>254.0</ele><time>2026-04-03T15:03:21.999Z</time></trkpt><trkpt lat="45.619580916265804" lon="8.5766491762658"><ele>254.2</ele><time>2026-04-03T15:03:22.999Z</time></trkpt><trkpt lat="45.61968564464551" lon="8.576633022001458"><ele>254.39999999999998</ele><time>2026-04-03T15:03:23.999Z</time></trkpt><trkpt lat="45.61978753894864" lon="8.57661067664451"><ele>254.6</ele><time>2026-04-03T15:03:24.999Z</time></trkpt><trkpt lat="45.61988742410314" lon="8.576569996206096"><ele>254.8</ele><time>2026-04-03T15:03:25.999Z</time></trkpt><trkpt lat="45.619982388688356" lon="8.576536529629076"><ele>255.0</ele><time>2026-04-03T15:03:26.999Z</time></trkpt><trkpt lat="45.620072023286134" lon="8.576503426910769"><ele>255.0</ele><time>2026-04-03T15:03:27.999Z</time></trkpt><trkpt lat="45.62016119028992" lon="8.576484415408656"><ele>255.0</ele><time>2026-04-03T15:03:28.999Z</time></trkpt><trkpt lat="45.62024666841964" lon="8.57646918449779"><ele>255.0</ele><time>2026-04-03T15:03:29.999Z</time></trkpt><trkpt lat="45.62032694356076" lon="8.576441046100582"><ele>255.0</ele><time>2026-04-03T15:03:30.999Z</time></trkpt><trkpt lat="45.62040283889536" lon="8.576417562833909"><ele>255.0</ele><time>2026-04-03T15:03:31.999Z</time></trkpt><trkpt lat="45.62047747133178" lon="8.576393736754554"><ele>255.0</ele><time>2026-04-03T15:03:32.999Z</time></trkpt><trkpt lat="45.620547806424916" lon="8.57636687840634"><ele>255.0</ele><time>2026-04-03T15:03:33.999Z</time></trkpt><trkpt lat="45.62061864285427" lon="8.57634266798759"><ele>255.0</ele><time>2026-04-03T15:03:34.999Z</time></trkpt><trkpt lat="45.62068926093629" lon="8.576322394404118"><ele>255.0</ele><time>2026-04-03T15:03:35.999Z</time></trkpt><trkpt lat="45.62075751181191" lon="8.576294473097667"><ele>255.0</ele><time>2026-04-03T15:03:36.999Z</time></trkpt><trkpt lat="45.6208222550166" lon="8.576271024170907"><ele>255.0</ele><time>2026-04-03T15:03:37.999Z</time></trkpt><trkpt lat="45.620919332367656" lon="8.576222423779953"><ele>255.0</ele><time>2026-04-03T15:03:39.999Z</time></trkpt><trkpt lat="45.62100720142342" lon="8.576184085240074"><ele>255.0</ele><time>2026-04-03T15:03:41.999Z</time></trkpt><trkpt lat="45.621093330923635" lon="8.576153734179409"><ele>255.0</ele><time>2026-04-03T15:03:43.999Z</time></trkpt><trkpt lat="45.621163626783" lon="8.576168135247901"><ele>255.0</ele><time>2026-04-03T15:03:45.999Z</time></trkpt><trkpt lat="45.62121465890731" lon="8.576304323473803"><ele>255.0</ele><time>2026-04-03T15:03:48.999Z</time></trkpt><trkpt lat="45.621229162492604" lon="8.576452152099572"><ele>255.0</ele><time>2026-04-03T15:03:50.999Z</time></trkpt><trkpt lat="45.6212798974351" lon="8.576611736602734"><ele>254.4</ele><time>2026-04-03T15:03:52.999Z</time></trkpt><trkpt lat="45.62130533148436" lon="8.57669919615045"><ele>253.8</ele><time>2026-04-03T15:03:53.999Z</time></trkpt><trkpt lat="45.62134651458336" lon="8.576835403165209"><ele>253.2</ele><time>2026-04-03T15:03:55.999Z</time></trkpt><trkpt lat="45.62138979193245" lon="8.576977828942631"><ele>252.6</ele><time>2026-04-03T15:03:58.001Z</time></trkpt><trkpt lat="45.6214456475252" lon="8.577144944169497"><ele>252.0</ele><time>2026-04-03T15:04:00.001Z</time></trkpt><trkpt lat="45.62148764399857" lon="8.577300596041116"><ele>252.0</ele><time>2026-04-03T15:04:02.001Z</time></trkpt><trkpt lat="45.62152389403489" lon="8.57743537104571"><ele>252.0</ele><time>2026-04-03T15:04:04.001Z</time></trkpt><trkpt lat="45.621551055727494" lon="8.57753183719017"><ele>252.0</ele><time>2026-04-03T15:04:06.001Z</time></trkpt><trkpt lat="45.6215771037909" lon="8.577647330163844"><ele>252.0</ele><time>2026-04-03T15:04:08.001Z</time></trkpt><trkpt lat="45.62161464396593" lon="8.577777176566277"><ele>252.0</ele><time>2026-04-03T15:04:10.001Z</time></trkpt><trkpt lat="45.62164973436423" lon="8.577886992469795"><ele>252.0</ele><time>2026-04-03T15:04:12.001Z</time></trkpt><trkpt lat="45.621678601754056" lon="8.578014427589666"><ele>252.0</ele><time>2026-04-03T15:04:14Z</time></trkpt><trkpt lat="45.6216934572351" lon="8.578156157783514"><ele>252.0</ele><time>2026-04-03T15:04:16Z</time></trkpt><trkpt lat="45.621695657378496" lon="8.578319005645206"><ele>252.0</ele><time>2026-04-03T15:04:18Z</time></trkpt><trkpt lat="45.62169414664614" lon="8.578461777227306"><ele>252.0</ele><time>2026-04-03T15:04:20Z</time></trkpt><trkpt lat="45.62169261000391" lon="8.578572055260544"><ele>252.0</ele><time>2026-04-03T15:04:22Z</time></trkpt><trkpt lat="45.62168615895544" lon="8.578702736265804"><ele>252.0</ele><time>2026-04-03T15:04:24Z</time></trkpt><trkpt lat="45.621678613376325" lon="8.578856462987954"><ele>252.0</ele><time>2026-04-03T15:04:26Z</time></trkpt><trkpt lat="45.621679667428396" lon="8.5789475839246"><ele>252.0</ele><time>2026-04-03T15:04:27Z</time></trkpt><trkpt lat="45.62167988142069" lon="8.57904121815766"><ele>252.0</ele><time>2026-04-03T15:04:28Z</time></trkpt><trkpt lat="45.62168188598472" lon="8.57920840084841"><ele>252.0</ele><time>2026-04-03T15:04:30Z</time></trkpt><trkpt lat="45.62168434857136" lon="8.579365538393583"><ele>252.0</ele><time>2026-04-03T15:04:32Z</time></trkpt><trkpt lat="45.62167994217587" lon="8.579512068065666"><ele>252.0</ele><time>2026-04-03T15:04:34Z</time></trkpt><trkpt lat="45.621664726172405" lon="8.579651190774316"><ele>252.0</ele><time>2026-04-03T15:04:36Z</time></trkpt><trkpt lat="45.62163151089864" lon="8.579774356840323"><ele>252.0</ele><time>2026-04-03T15:04:38Z</time></trkpt><trkpt lat="45.62160195812611" lon="8.579894969762815"><ele>252.0</ele><time>2026-04-03T15:04:40Z</time></trkpt><trkpt lat="45.62159417491121" lon="8.579993135041253"><ele>252.5</ele><time>2026-04-03T15:04:42Z</time></trkpt><trkpt lat="45.621574180121634" lon="8.58008271747856"><ele>253.0</ele><time>2026-04-03T15:04:44Z</time></trkpt><trkpt lat="45.62155240042408" lon="8.580173665719645"><ele>253.5</ele><time>2026-04-03T15:04:46Z</time></trkpt><trkpt lat="45.62150524985622" lon="8.580281014344777"><ele>254.0</ele><time>2026-04-03T15:04:49Z</time></trkpt><trkpt lat="45.62149461666475" lon="8.580373250780749"><ele>254.5</ele><time>2026-04-03T15:05:30.999Z</time></trkpt><trkpt lat="45.621446908174846" lon="8.580475510912889"><ele>255.0</ele><time>2026-04-03T15:05:33.999Z</time></trkpt><trkpt lat="45.62138908756903" lon="8.580565096016144"><ele>255.0</ele><time>2026-04-03T15:05:36.999Z</time></trkpt><trkpt lat="45.62153953664648" lon="8.580869257027107"><ele>255.0</ele><time>2026-04-03T15:05:40.999Z</time></trkpt><trkpt lat="45.621597607711095" lon="8.580916164299072"><ele>255.0</ele><time>2026-04-03T15:05:50.999Z</time></trkpt><trkpt lat="45.621689578391035" lon="8.580941654575623"><ele>255.0</ele><time>2026-04-03T15:05:53.999Z</time></trkpt><trkpt lat="45.62175148513367" lon="8.580967539146384"><ele>255.0</ele><time>2026-04-03T15:05:57.999Z</time></trkpt><trkpt lat="45.62181997713198" lon="8.580956699594047"><ele>255.0</ele><time>2026-04-03T15:06:04Z</time></trkpt><trkpt lat="45.62188683287223" lon="8.580952434994673"><ele>255.0</ele><time>2026-04-03T15:06:14Z</time></trkpt><trkpt lat="45.62197310572376" lon="8.580940003290372"><ele>255.0</ele><time>2026-04-03T15:06:25Z</time></trkpt><trkpt lat="45.622019673869005" lon="8.581179600343786"><ele>255.0</ele><time>2026-04-03T15:06:34Z</time></trkpt><trkpt lat="45.621982582003284" lon="8.58127489008014"><ele>255.4</ele><time>2026-04-03T15:06:35Z</time></trkpt><trkpt lat="45.62198583083412" lon="8.58141410433894"><ele>255.8</ele><time>2026-04-03T15:06:36Z</time></trkpt><trkpt lat="45.62198476238989" lon="8.581522911253682"><ele>256.2</ele><time>2026-04-03T15:06:37Z</time></trkpt><trkpt lat="45.62199687726363" lon="8.581662932867646"><ele>256.6</ele><time>2026-04-03T15:06:39Z</time></trkpt><trkpt lat="45.62204414513029" lon="8.581728737620189"><ele>257.0</ele><time>2026-04-03T15:06:40Z</time></trkpt><trkpt lat="45.62213178159342" lon="8.581843485374687"><ele>257.0</ele><time>2026-04-03T15:06:41Z</time></trkpt><trkpt lat="45.62223071798236" lon="8.581969601214674"><ele>257.0</ele><time>2026-04-03T15:06:42Z</time></trkpt><trkpt lat="45.62232774893874" lon="8.582115480744658"><ele>257.0</ele><time>2026-04-03T15:06:43Z</time></trkpt><trkpt lat="45.622427686707645" lon="8.582273363788815"><ele>257.0</ele><time>2026-04-03T15:06:44Z</time></trkpt><trkpt lat="45.62250327298359" lon="8.582380984685784"><ele>256.4</ele><time>2026-04-03T15:06:45Z</time></trkpt><trkpt lat="45.62255429165949" lon="8.582469053890303"><ele>255.79999999999998</ele><time>2026-04-03T15:06:46Z</time></trkpt><trkpt lat="45.62260108195145" lon="8.582533029308939"><ele>255.2</ele><time>2026-04-03T15:06:47Z</time></trkpt><trkpt lat="45.62267855640533" lon="8.582661984678861"><ele>254.6</ele><time>2026-04-03T15:06:49Z</time></trkpt><trkpt lat="45.62277001200824" lon="8.58280929505911"><ele>254.0</ele><time>2026-04-03T15:06:51Z</time></trkpt><trkpt lat="45.62282174032138" lon="8.582887928245825"><ele>253.83333333333334</ele><time>2026-04-03T15:06:52Z</time></trkpt><trkpt lat="45.622873874514084" lon="8.582967655614535"><ele>253.66666666666669</ele><time>2026-04-03T15:06:53Z</time></trkpt><trkpt lat="45.622914227817816" lon="8.583041796351496"><ele>253.5</ele><time>2026-04-03T15:06:54Z</time></trkpt><trkpt lat="45.622973926463274" lon="8.583096023184764"><ele>253.33333333333331</ele><time>2026-04-03T15:07:00Z</time></trkpt><trkpt lat="45.62306333139674" lon="8.58314523423182"><ele>253.16666666666666</ele><time>2026-04-03T15:07:29.999Z</time></trkpt><trkpt lat="45.6230774414119" lon="8.583238861660503"><ele>253.0</ele><time>2026-04-03T15:08:10Z</time></trkpt><trkpt lat="45.62310222328633" lon="8.583339794232382"><ele>252.99999999999997</ele><time>2026-04-03T15:08:29Z</time></trkpt><trkpt lat="45.62314693496017" lon="8.58327508067014"><ele>253.0</ele><time>2026-04-03T15:09:42.999Z</time></trkpt><trkpt lat="45.62310102651648" lon="8.58317989554662"><ele>253.0</ele><time>2026-04-03T15:09:48.999Z</time></trkpt><trkpt lat="45.6230210195646" lon="8.58308205039698"><ele>253.0</ele><time>2026-04-03T15:09:50.999Z</time></trkpt><trkpt lat="45.6229669655095" lon="8.583002093294576"><ele>252.99999999999997</ele><time>2026-04-03T15:09:51.999Z</time></trkpt><trkpt lat="45.62290903532913" lon="8.582912595306182"><ele>253.0</ele><time>2026-04-03T15:09:52.999Z</time></trkpt><trkpt lat="45.62285010179319" lon="8.582820244593329"><ele>253.16666666666666</ele><time>2026-04-03T15:09:53.999Z</time></trkpt><trkpt lat="45.62278692322861" lon="8.582720800845301"><ele>253.33333333333331</ele><time>2026-04-03T15:09:54.999Z</time></trkpt><trkpt lat="45.622729658632856" lon="8.582625682696909"><ele>253.5</ele><time>2026-04-03T15:09:55.999Z</time></trkpt><trkpt lat="45.622679169461485" lon="8.582550665419774"><ele>253.66666666666669</ele><time>2026-04-03T15:09:56.999Z</time></trkpt><trkpt lat="45.62261193877544" lon="8.58246044038457"><ele>253.83333333333334</ele><time>2026-04-03T15:09:57.999Z</time></trkpt><trkpt lat="45.62255116345076" lon="8.582354422440554"><ele>254.0</ele><time>2026-04-03T15:09:58.999Z</time></trkpt><trkpt lat="45.62248399930038" lon="8.582244970033475"><ele>254.00000000000003</ele><time>2026-04-03T15:09:59.999Z</time></trkpt><trkpt lat="45.62241670291554" lon="8.582148995008376"><ele>254.0</ele><time>2026-04-03T15:10:00.999Z</time></trkpt><trkpt lat="45.622359624951656" lon="8.582065460893066"><ele>254.0</ele><time>2026-04-03T15:10:01.999Z</time></trkpt><trkpt lat="45.62230408813084" lon="8.581985011368714"><ele>254.0</ele><time>2026-04-03T15:10:02.999Z</time></trkpt><trkpt lat="45.62226411781193" lon="8.581913961677195"><ele>254.00000000000003</ele><time>2026-04-03T15:10:03.999Z</time></trkpt><trkpt lat="45.622219092462345" lon="8.58184673881927"><ele>254.0</ele><time>2026-04-03T15:10:04.999Z</time></trkpt><trkpt lat="45.622145048640554" lon="8.581755599047385"><ele>254.50000000000003</ele><time>2026-04-03T15:10:06.999Z</time></trkpt><trkpt lat="45.622107346940425" lon="8.581669871849181"><ele>255.0</ele><time>2026-04-03T15:10:08.999Z</time></trkpt><trkpt lat="45.622124820488985" lon="8.58151159809934"><ele>255.5</ele><time>2026-04-03T15:10:11.998Z</time></trkpt><trkpt lat="45.6221305728766" lon="8.581419617341922"><ele>256.0</ele><time>2026-04-03T15:10:13Z</time></trkpt><trkpt lat="45.622155776925936" lon="8.58129662183961"><ele>256.5</ele><time>2026-04-03T15:10:15Z</time></trkpt><trkpt lat="45.62222582782501" lon="8.58122231636731"><ele>257.0</ele><time>2026-04-03T15:10:17Z</time></trkpt><trkpt lat="45.622316539405766" lon="8.581301489211953"><ele>257.0</ele><time>2026-04-03T15:10:19Z</time></trkpt><trkpt lat="45.62235713525499" lon="8.581384401093203"><ele>257.0</ele><time>2026-04-03T15:10:20Z</time></trkpt><trkpt lat="45.622407926389926" lon="8.581460614873222"><ele>257.0</ele><time>2026-04-03T15:10:21Z</time></trkpt><trkpt lat="45.62247180654447" lon="8.581530130794167"><ele>257.0</ele><time>2026-04-03T15:10:23Z</time></trkpt><trkpt lat="45.62252385013564" lon="8.581588766768343"><ele>257.0</ele><time>2026-04-03T15:10:25Z</time></trkpt><trkpt lat="45.62258960498743" lon="8.581595714349655"><ele>257.0</ele><time>2026-04-03T15:11:32.999Z</time></trkpt><trkpt lat="45.622641250977416" lon="8.5816544290025"><ele>257.0</ele><time>2026-04-03T15:11:38.999Z</time></trkpt><trkpt lat="45.6227058756801" lon="8.581728516483382"><ele>257.0</ele><time>2026-04-03T15:11:44.999Z</time></trkpt><trkpt lat="45.62275416785183" lon="8.581816635537946"><ele>257.0</ele><time>2026-04-03T15:11:47.999Z</time></trkpt><trkpt lat="45.62281768790996" lon="8.581873817683418"><ele>257.0</ele><time>2026-04-03T15:11:50.999Z</time></trkpt><trkpt lat="45.62289331409719" lon="8.581958879840062"><ele>257.0</ele><time>2026-04-03T15:11:53.999Z</time></trkpt><trkpt lat="45.62300815013333" lon="8.5820126205061"><ele>257.0</ele><time>2026-04-03T15:11:55.999Z</time></trkpt><trkpt lat="45.623067731645335" lon="8.582097452048291"><ele>257.0</ele><time>2026-04-03T15:11:59.999Z</time></trkpt><trkpt lat="45.6231413673212" lon="8.58214714975574"><ele>257.0</ele><time>2026-04-03T15:12:03.999Z</time></trkpt><trkpt lat="45.623210054816546" lon="8.582200704325912"><ele>257.0</ele><time>2026-04-03T15:12:05.999Z</time></trkpt><trkpt lat="45.62327074136369" lon="8.582271410014577"><ele>257.0</ele><time>2026-04-03T15:12:07.999Z</time></trkpt><trkpt lat="45.62329856796539" lon="8.582365619300184"><ele>257.0</ele><time>2026-04-03T15:12:09.999Z</time></trkpt><trkpt lat="45.62335109332521" lon="8.582441985530025"><ele>257.0</ele><time>2026-04-03T15:12:11.999Z</time></trkpt><trkpt lat="45.62341761899715" lon="8.582595230104557"><ele>257.0</ele><time>2026-04-03T15:12:13.999Z</time></trkpt><trkpt lat="45.623439244635854" lon="8.582693158052859"><ele>257.0</ele><time>2026-04-03T15:12:16.999Z</time></trkpt><trkpt lat="45.62351873701573" lon="8.582748116682989"><ele>257.0</ele><time>2026-04-03T15:12:22Z</time></trkpt><trkpt lat="45.62370166375859" lon="8.582674014087695"><ele>257.0</ele><time>2026-04-03T15:12:25Z</time></trkpt><trkpt lat="45.62378780094601" lon="8.582627566102797"><ele>257.0</ele><time>2026-04-03T15:12:26Z</time></trkpt><trkpt lat="45.62388158778478" lon="8.582579534815968"><ele>257.75</ele><time>2026-04-03T15:12:27Z</time></trkpt><trkpt lat="45.62395573029366" lon="8.582549273627277"><ele>258.5</ele><time>2026-04-03T15:12:28Z</time></trkpt><trkpt lat="45.6240250053355" lon="8.58260075451705"><ele>259.25</ele><time>2026-04-03T15:12:30Z</time></trkpt><trkpt lat="45.62421314352014" lon="8.582817060062897"><ele>260.0</ele><time>2026-04-03T15:12:33Z</time></trkpt><trkpt lat="45.624273520850295" lon="8.582907511343086"><ele>260.0</ele><time>2026-04-03T15:12:34Z</time></trkpt><trkpt lat="45.624332567765755" lon="8.582960145402481"><ele>260.0</ele><time>2026-04-03T15:12:35Z</time></trkpt><trkpt lat="45.62437685589057" lon="8.583027717681405"><ele>260.0</ele><time>2026-04-03T15:12:37Z</time></trkpt><trkpt lat="45.624464326756694" lon="8.583082098895241"><ele>260.0</ele><time>2026-04-03T15:12:46Z</time></trkpt><trkpt lat="45.624522178981664" lon="8.583160981782264"><ele>260.0</ele><time>2026-04-03T15:12:58Z</time></trkpt><trkpt lat="45.62460778412668" lon="8.583266509823284"><ele>260.0</ele><time>2026-04-03T15:13:00Z</time></trkpt><trkpt lat="45.624665624233494" lon="8.583345390061176"><ele>260.00000000000006</ele><time>2026-04-03T15:13:01Z</time></trkpt><trkpt lat="45.624743421918346" lon="8.583437336172361"><ele>260.0</ele><time>2026-04-03T15:13:02Z</time></trkpt><trkpt lat="45.62480165735664" lon="8.583496627413886"><ele>260.0</ele><time>2026-04-03T15:13:03Z</time></trkpt><trkpt lat="45.62486455023747" lon="8.583548508746052"><ele>260.0</ele><time>2026-04-03T15:13:04Z</time></trkpt><trkpt lat="45.624921786312264" lon="8.583597161312719"><ele>260.0</ele><time>2026-04-03T15:13:05Z</time></trkpt><trkpt lat="45.62497146684264" lon="8.583652557369092"><ele>260.00000000000006</ele><time>2026-04-03T15:13:06Z</time></trkpt><trkpt lat="45.62502100227651" lon="8.583708175611108"><ele>260.0</ele><time>2026-04-03T15:13:07Z</time></trkpt><trkpt lat="45.625073744870846" lon="8.58376148834171"><ele>260.0</ele><time>2026-04-03T15:13:08Z</time></trkpt><trkpt lat="45.6251689110513" lon="8.583858869691895"><ele>260.0</ele><time>2026-04-03T15:13:10Z</time></trkpt><trkpt lat="45.625229153391224" lon="8.583925943627523"><ele>260.0</ele><time>2026-04-03T15:13:11Z</time></trkpt><trkpt lat="45.62530991072092" lon="8.584015622250742"><ele>260.0</ele><time>2026-04-03T15:13:13Z</time></trkpt><trkpt lat="45.62537756491325" lon="8.584049979554743"><ele>260.0</ele><time>2026-04-03T15:13:17Z</time></trkpt><trkpt lat="45.62540759953168" lon="8.58396699708766"><ele>260.0</ele><time>2026-04-03T15:13:23Z</time></trkpt><trkpt lat="45.62547332641664" lon="8.583920218603112"><ele>260.83333333333337</ele><time>2026-04-03T15:13:27Z</time></trkpt><trkpt lat="45.625538877216144" lon="8.583874764084086"><ele>261.6666666666667</ele><time>2026-04-03T15:13:30.999Z</time></trkpt><trkpt lat="45.6255835915166" lon="8.583785019536796"><ele>262.5</ele><time>2026-04-03T15:13:35.999Z</time></trkpt><trkpt lat="45.62563022052518" lon="8.583677142208343"><ele>263.3333333333333</ele><time>2026-04-03T15:13:39.999Z</time></trkpt><trkpt lat="45.62568568529392" lon="8.583614144091873"><ele>264.16666666666663</ele><time>2026-04-03T15:13:42.999Z</time></trkpt><trkpt lat="45.625744568551895" lon="8.583571455053184"><ele>265.0</ele><time>2026-04-03T15:13:47.999Z</time></trkpt><trkpt lat="45.625823062090916" lon="8.583580782326825"><ele>265.25</ele><time>2026-04-03T15:13:51.999Z</time></trkpt><trkpt lat="45.62590688624748" lon="8.583583764620748"><ele>265.5</ele><time>2026-04-03T15:13:55.999Z</time></trkpt><trkpt lat="45.62597750162148" lon="8.58355894839816"><ele>265.75</ele><time>2026-04-03T15:14:00.999Z</time></trkpt><trkpt lat="45.626051256633815" lon="8.583523501210284"><ele>266.0</ele><time>2026-04-03T15:14:02.999Z</time></trkpt><trkpt lat="45.62626705337913" lon="8.583353897259743"><ele>266.0</ele><time>2026-04-03T15:14:15.999Z</time></trkpt><trkpt lat="45.62633740635422" lon="8.583309979787192"><ele>266.0</ele><time>2026-04-03T15:14:18.999Z</time></trkpt><trkpt lat="45.62640437301683" lon="8.58320662660611"><ele>266.0</ele><time>2026-04-03T15:14:20.999Z</time></trkpt><trkpt lat="45.62643508227991" lon="8.58312327756471"><ele>266.0</ele><time>2026-04-03T15:14:22.999Z</time></trkpt><trkpt lat="45.626498505080995" lon="8.583056608534285"><ele>266.0</ele><time>2026-04-03T15:14:26Z</time></trkpt><trkpt lat="45.62662012902286" lon="8.583056925404486"><ele>266.0</ele><time>2026-04-03T15:14:30Z</time></trkpt><trkpt lat="45.62668418685079" lon="8.583062772484809"><ele>266.0</ele><time>2026-04-03T15:14:32Z</time></trkpt><trkpt lat="45.62674258625998" lon="8.582976116995829"><ele>266.0</ele><time>2026-04-03T15:14:34Z</time></trkpt><trkpt lat="45.62678066132452" lon="8.582893906513203"><ele>266.0</ele><time>2026-04-03T15:14:35Z</time></trkpt><trkpt lat="45.6268585045296" lon="8.582859774456535"><ele>266.0</ele><time>2026-04-03T15:14:37Z</time></trkpt><trkpt lat="45.62691002230721" lon="8.582790471961115"><ele>266.0</ele><time>2026-04-03T15:14:40Z</time></trkpt><trkpt lat="45.62696870045093" lon="8.582750858075567"><ele>266.0</ele><time>2026-04-03T15:14:42Z</time></trkpt><trkpt lat="45.62704483303064" lon="8.582710500379259"><ele>266.33333333333337</ele><time>2026-04-03T15:14:44Z</time></trkpt><trkpt lat="45.62707282236892" lon="8.58262070455322"><ele>266.6666666666667</ele><time>2026-04-03T15:14:48Z</time></trkpt><trkpt lat="45.62713848148521" lon="8.582455971348013"><ele>267.0</ele><time>2026-04-03T15:15:27Z</time></trkpt><trkpt lat="45.627097171907195" lon="8.582383303452872"><ele>267.3333333333333</ele><time>2026-04-03T15:15:35.999Z</time></trkpt><trkpt lat="45.62703388816089" lon="8.582401901830885"><ele>267.66666666666663</ele><time>2026-04-03T15:16:05.999Z</time></trkpt><trkpt lat="45.62697115536308" lon="8.582411853892681"><ele>268.0</ele><time>2026-04-03T15:16:13.999Z</time></trkpt><trkpt lat="45.6269209040838" lon="8.582466388765605"><ele>268.42857142857144</ele><time>2026-04-03T15:16:18.999Z</time></trkpt><trkpt lat="45.62687734296585" lon="8.582533776539435"><ele>268.85714285714283</ele><time>2026-04-03T15:16:22.999Z</time></trkpt><trkpt lat="45.626865715266874" lon="8.582630273397205"><ele>269.2857142857143</ele><time>2026-04-03T15:16:30Z</time></trkpt><trkpt lat="45.62692484546745" lon="8.582679188603835"><ele>269.7142857142857</ele><time>2026-04-03T15:16:35Z</time></trkpt><trkpt lat="45.62689493766519" lon="8.582581250358754"><ele>270.14285714285717</ele><time>2026-04-03T15:16:38Z</time></trkpt><trkpt lat="45.62685499484164" lon="8.58251095770121"><ele>270.57142857142856</ele><time>2026-04-03T15:16:47Z</time></trkpt><trkpt lat="45.626848933566656" lon="8.582363188147335"><ele>271.0</ele><time>2026-04-03T15:21:04Z</time></trkpt><trkpt lat="45.62688564088281" lon="8.582463360697885"><ele>271.0</ele><time>2026-04-03T15:21:52.998Z</time></trkpt><trkpt lat="45.626966435682796" lon="8.58248820094943"><ele>271.0</ele><time>2026-04-03T15:21:56.998Z</time></trkpt><trkpt lat="45.62707937459223" lon="8.582490503755503"><ele>271.0</ele><time>2026-04-03T15:22:20.998Z</time></trkpt><trkpt lat="45.62711883656564" lon="8.582403493198346"><ele>271.0</ele><time>2026-04-03T15:22:24.998Z</time></trkpt><trkpt lat="45.62725190963638" lon="8.582408988831192"><ele>271.0</ele><time>2026-04-03T15:23:22Z</time></trkpt><trkpt lat="45.62736644303776" lon="8.5824037104932"><ele>270.40000000000003</ele><time>2026-04-03T15:23:24Z</time></trkpt><trkpt lat="45.62749227466428" lon="8.582407320127519"><ele>269.8</ele><time>2026-04-03T15:23:28Z</time></trkpt><trkpt lat="45.627569766001706" lon="8.582443207450005"><ele>269.20000000000005</ele><time>2026-04-03T15:23:30Z</time></trkpt><trkpt lat="45.62759596052418" lon="8.582531955841924"><ele>268.6</ele><time>2026-04-03T15:23:33Z</time></trkpt><trkpt lat="45.62761929532252" lon="8.582749630848188"><ele>268.0</ele><time>2026-04-03T15:23:35Z</time></trkpt><trkpt lat="45.627624631519204" lon="8.582883154263724"><ele>267.8333333333333</ele><time>2026-04-03T15:23:36Z</time></trkpt><trkpt lat="45.62763114312491" lon="8.582986576673715"><ele>267.66666666666663</ele><time>2026-04-03T15:23:37Z</time></trkpt><trkpt lat="45.6276543312054" lon="8.58308420430302"><ele>267.5</ele><time>2026-04-03T15:23:38Z</time></trkpt><trkpt lat="45.62769442811036" lon="8.583226704435745"><ele>267.3333333333333</ele><time>2026-04-03T15:23:39Z</time></trkpt><trkpt lat="45.62766554213462" lon="8.583313479549963"><ele>267.1666666666667</ele><time>2026-04-03T15:23:43Z</time></trkpt><trkpt lat="45.62761494510083" lon="8.583404850108629"><ele>267.0</ele><time>2026-04-03T15:23:45Z</time></trkpt><trkpt lat="45.627587080952246" lon="8.583546216790397"><ele>267.0</ele><time>2026-04-03T15:23:47Z</time></trkpt><trkpt lat="45.62757764369266" lon="8.58371789183233"><ele>267.0</ele><time>2026-04-03T15:23:49Z</time></trkpt><trkpt lat="45.62760151494921" lon="8.583821008210757"><ele>267.0</ele><time>2026-04-03T15:23:50Z</time></trkpt><trkpt lat="45.62762875498795" lon="8.583930912982948"><ele>267.0</ele><time>2026-04-03T15:23:51Z</time></trkpt><trkpt lat="45.62765170456469" lon="8.58404112552515"><ele>267.0</ele><time>2026-04-03T15:23:52Z</time></trkpt><trkpt lat="45.62767545197342" lon="8.584161111210728"><ele>267.0</ele><time>2026-04-03T15:23:53Z</time></trkpt><trkpt lat="45.62770597143909" lon="8.584284314795488"><ele>267.0</ele><time>2026-04-03T15:23:54Z</time></trkpt><trkpt lat="45.627734958997806" lon="8.5844065170358"><ele>267.0</ele><time>2026-04-03T15:23:55Z</time></trkpt><trkpt lat="45.6277645412478" lon="8.584530130092501"><ele>267.0</ele><time>2026-04-03T15:23:56Z</time></trkpt><trkpt lat="45.62779548917145" lon="8.58465120110504"><ele>267.0</ele><time>2026-04-03T15:23:57Z</time></trkpt><trkpt lat="45.62782517877052" lon="8.584770922250138"><ele>267.0</ele><time>2026-04-03T15:23:58Z</time></trkpt><trkpt lat="45.6278543324117" lon="8.584892407223666"><ele>269.4</ele><time>2026-04-03T15:23:59Z</time></trkpt><trkpt lat="45.62788163337001" lon="8.585016402857837"><ele>271.79999999999995</ele><time>2026-04-03T15:24:00Z</time></trkpt><trkpt lat="45.62791161754283" lon="8.585140164381508"><ele>274.2</ele><time>2026-04-03T15:24:01Z</time></trkpt><trkpt lat="45.62794386270407" lon="8.585266368417745"><ele>276.59999999999997</ele><time>2026-04-03T15:24:01.999Z</time></trkpt><trkpt lat="45.627974584172705" lon="8.58539617121586"><ele>279.0</ele><time>2026-04-03T15:24:02.999Z</time></trkpt><trkpt lat="45.62800557298219" lon="8.585523286240218"><ele>280.2</ele><time>2026-04-03T15:24:03.999Z</time></trkpt><trkpt lat="45.628037995595236" lon="8.585651493750923"><ele>281.4</ele><time>2026-04-03T15:24:04.999Z</time></trkpt><trkpt lat="45.62807105610281" lon="8.585778240483897"><ele>282.6</ele><time>2026-04-03T15:24:05.999Z</time></trkpt><trkpt lat="45.628100774847084" lon="8.58590410134445"><ele>283.8</ele><time>2026-04-03T15:24:06.999Z</time></trkpt><trkpt lat="45.628129568703315" lon="8.586029256493081"><ele>285.0</ele><time>2026-04-03T15:24:07.999Z</time></trkpt><trkpt lat="45.62814937033547" lon="8.586165967070668"><ele>286.4</ele><time>2026-04-03T15:24:08.999Z</time></trkpt><trkpt lat="45.62813703621982" lon="8.586286977045672"><ele>287.8</ele><time>2026-04-03T15:24:09.999Z</time></trkpt><trkpt lat="45.628116899439995" lon="8.58641543378927"><ele>289.2</ele><time>2026-04-03T15:24:10.999Z</time></trkpt><trkpt lat="45.62809004425573" lon="8.586545390219085"><ele>290.6</ele><time>2026-04-03T15:24:11.999Z</time></trkpt><trkpt lat="45.62805747739937" lon="8.586674241926557"><ele>292.0</ele><time>2026-04-03T15:24:12.999Z</time></trkpt><trkpt lat="45.628004949985105" lon="8.58679024982024"><ele>292.0</ele><time>2026-04-03T15:24:13.999Z</time></trkpt><trkpt lat="45.62794148074004" lon="8.58689580380089"><ele>292.0</ele><time>2026-04-03T15:24:14.999Z</time></trkpt><trkpt lat="45.62788228450954" lon="8.586986830765136"><ele>292.0</ele><time>2026-04-03T15:24:15.999Z</time></trkpt><trkpt lat="45.62782421824771" lon="8.587070740372798"><ele>292.0</ele><time>2026-04-03T15:24:16.999Z</time></trkpt><trkpt lat="45.62776189764627" lon="8.587144507239415"><ele>292.0</ele><time>2026-04-03T15:24:17.999Z</time></trkpt><trkpt lat="45.62768626444217" lon="8.587193484371209"><ele>292.0</ele><time>2026-04-03T15:24:18.999Z</time></trkpt><trkpt lat="45.62760349481781" lon="8.587216155176705"><ele>291.66666666666663</ele><time>2026-04-03T15:24:19.999Z</time></trkpt><trkpt lat="45.62751631121442" lon="8.58721574202302"><ele>291.3333333333333</ele><time>2026-04-03T15:24:20.999Z</time></trkpt><trkpt lat="45.627428410693874" lon="8.587223651231112"><ele>291.0</ele><time>2026-04-03T15:24:21.999Z</time></trkpt><trkpt lat="45.627340761104804" lon="8.587229723436625"><ele>290.6666666666667</ele><time>2026-04-03T15:24:22.999Z</time></trkpt><trkpt lat="45.62725059911963" lon="8.587232431574439"><ele>290.33333333333337</ele><time>2026-04-03T15:24:23.999Z</time></trkpt><trkpt lat="45.62716111859357" lon="8.58723797122881"><ele>290.0</ele><time>2026-04-03T15:24:24.999Z</time></trkpt><trkpt lat="45.62707188682085" lon="8.587257873066225"><ele>290.0</ele><time>2026-04-03T15:24:25.999Z</time></trkpt><trkpt lat="45.62699988254736" lon="8.587328285882881"><ele>290.0</ele><time>2026-04-03T15:24:26.999Z</time></trkpt><trkpt lat="45.626941595137446" lon="8.587449039601315"><ele>290.0</ele><time>2026-04-03T15:24:27.999Z</time></trkpt><trkpt lat="45.626911871606474" lon="8.587594512039875"><ele>290.0</ele><time>2026-04-03T15:24:28.999Z</time></trkpt><trkpt lat="45.62689189585091" lon="8.587754433438285"><ele>290.0</ele><time>2026-04-03T15:24:29.999Z</time></trkpt><trkpt lat="45.626866528361404" lon="8.587916873775745"><ele>290.2</ele><time>2026-04-03T15:24:30.999Z</time></trkpt><trkpt lat="45.626843433355454" lon="8.588064024185437"><ele>290.4</ele><time>2026-04-03T15:24:31.999Z</time></trkpt><trkpt lat="45.626824311518554" lon="8.588221325501006"><ele>290.6</ele><time>2026-04-03T15:24:32.999Z</time></trkpt><trkpt lat="45.62680105654999" lon="8.588377874954535"><ele>290.8</ele><time>2026-04-03T15:24:33.999Z</time></trkpt><trkpt lat="45.62677803932158" lon="8.588536191647874"><ele>291.0</ele><time>2026-04-03T15:24:34.999Z</time></trkpt><trkpt lat="45.62675617479953" lon="8.588694878156934"><ele>291.0</ele><time>2026-04-03T15:24:35.999Z</time></trkpt><trkpt lat="45.6267317279871" lon="8.588859658820853"><ele>291.0</ele><time>2026-04-03T15:24:36.999Z</time></trkpt><trkpt lat="45.62670579281397" lon="8.589029225753096"><ele>291.0</ele><time>2026-04-03T15:24:37.999Z</time></trkpt><trkpt lat="45.62667995975665" lon="8.589206648441401"><ele>291.0</ele><time>2026-04-03T15:24:38.999Z</time></trkpt><trkpt lat="45.626654701868574" lon="8.589389293769084"><ele>290.75</ele><time>2026-04-03T15:24:39.999Z</time></trkpt><trkpt lat="45.62662920718643" lon="8.589573111224958"><ele>290.5</ele><time>2026-04-03T15:24:40.999Z</time></trkpt><trkpt lat="45.62659819805256" lon="8.589757652051905"><ele>290.25</ele><time>2026-04-03T15:24:41.999Z</time></trkpt><trkpt lat="45.62655916190192" lon="8.589937361146388"><ele>290.0</ele><time>2026-04-03T15:24:42.999Z</time></trkpt><trkpt lat="45.62651578227409" lon="8.59010376164965"><ele>290.0</ele><time>2026-04-03T15:24:43.999Z</time></trkpt><trkpt lat="45.62647078968091" lon="8.590259170821978"><ele>290.0</ele><time>2026-04-03T15:24:44.999Z</time></trkpt><trkpt lat="45.62642865352352" lon="8.590408976517011"><ele>290.0</ele><time>2026-04-03T15:24:45.999Z</time></trkpt><trkpt lat="45.62639295444764" lon="8.590555424075722"><ele>290.0</ele><time>2026-04-03T15:24:46.999Z</time></trkpt><trkpt lat="45.626354886061186" lon="8.590695433152385"><ele>290.0</ele><time>2026-04-03T15:24:47.999Z</time></trkpt><trkpt lat="45.62631514974364" lon="8.590828580640268"><ele>289.2</ele><time>2026-04-03T15:24:48.999Z</time></trkpt><trkpt lat="45.626276465415366" lon="8.590973674390618"><ele>288.4</ele><time>2026-04-03T15:24:49.999Z</time></trkpt><trkpt lat="45.62626148403121" lon="8.59110982626525"><ele>287.6</ele><time>2026-04-03T15:24:50.999Z</time></trkpt><trkpt lat="45.6262713939231" lon="8.59126744438795"><ele>286.8</ele><time>2026-04-03T15:24:51.999Z</time></trkpt><trkpt lat="45.62627259419223" lon="8.591428414415427"><ele>286.0</ele><time>2026-04-03T15:24:53Z</time></trkpt><trkpt lat="45.62628011153981" lon="8.591595178672982"><ele>285.2</ele><time>2026-04-03T15:24:54Z</time></trkpt><trkpt lat="45.626292742251756" lon="8.591766923110985"><ele>284.40000000000003</ele><time>2026-04-03T15:24:55Z</time></trkpt><trkpt lat="45.62630249572271" lon="8.591932761523719"><ele>283.6</ele><time>2026-04-03T15:24:56Z</time></trkpt><trkpt lat="45.62630929466982" lon="8.592084742015405"><ele>282.8</ele><time>2026-04-03T15:24:57Z</time></trkpt><trkpt lat="45.62628845385571" lon="8.592222067283773"><ele>282.0</ele><time>2026-04-03T15:24:58Z</time></trkpt><trkpt lat="45.626222191266905" lon="8.59231613121325"><ele>281.6</ele><time>2026-04-03T15:24:59Z</time></trkpt><trkpt lat="45.6261318674626" lon="8.592378726314937"><ele>281.2</ele><time>2026-04-03T15:25:00Z</time></trkpt><trkpt lat="45.62603682799963" lon="8.592452141753514"><ele>280.8</ele><time>2026-04-03T15:25:01Z</time></trkpt><trkpt lat="45.625958921792375" lon="8.592562686935407"><ele>280.4</ele><time>2026-04-03T15:25:02Z</time></trkpt><trkpt lat="45.62589223332054" lon="8.592669840137425"><ele>280.0</ele><time>2026-04-03T15:25:03Z</time></trkpt><trkpt lat="45.62583404883896" lon="8.592776680935515"><ele>280.6</ele><time>2026-04-03T15:25:04Z</time></trkpt><trkpt lat="45.62580149133395" lon="8.592902692666007"><ele>281.2</ele><time>2026-04-03T15:25:05Z</time></trkpt><trkpt lat="45.62579663298887" lon="8.593040180418319"><ele>281.8</ele><time>2026-04-03T15:25:06Z</time></trkpt><trkpt lat="45.625803546014964" lon="8.593182082055897"><ele>282.4</ele><time>2026-04-03T15:25:07Z</time></trkpt><trkpt lat="45.62581358438031" lon="8.59332800134182"><ele>283.0</ele><time>2026-04-03T15:25:08Z</time></trkpt><trkpt lat="45.625821353038184" lon="8.593476132681849"><ele>283.0</ele><time>2026-04-03T15:25:09Z</time></trkpt><trkpt lat="45.625824622236706" lon="8.593626893559371"><ele>283.0</ele><time>2026-04-03T15:25:10Z</time></trkpt><trkpt lat="45.625832794309254" lon="8.593778111376356"><ele>283.0</ele><time>2026-04-03T15:25:11Z</time></trkpt><trkpt lat="45.62584175393637" lon="8.59392884709391"><ele>283.0</ele><time>2026-04-03T15:25:12Z</time></trkpt><trkpt lat="45.625846624467464" lon="8.594079855405367"><ele>283.0</ele><time>2026-04-03T15:25:13Z</time></trkpt><trkpt lat="45.62584961453287" lon="8.594222963293333"><ele>283.2</ele><time>2026-04-03T15:25:14Z</time></trkpt><trkpt lat="45.62583312269221" lon="8.59434270371463"><ele>283.4</ele><time>2026-04-03T15:25:15Z</time></trkpt><trkpt lat="45.62579710348036" lon="8.594439905264164"><ele>283.59999999999997</ele><time>2026-04-03T15:25:17Z</time></trkpt><trkpt lat="45.625955539929194" lon="8.594481719166918"><ele>283.8</ele><time>2026-04-03T15:25:20Z</time></trkpt><trkpt lat="45.626057512139106" lon="8.59442959063104"><ele>284.0</ele><time>2026-04-03T15:25:21Z</time></trkpt><trkpt lat="45.62611517599856" lon="8.594375413036712"><ele>285.0</ele><time>2026-04-03T15:25:22Z</time></trkpt><trkpt lat="45.626220906824635" lon="8.594327418688003"><ele>286.0</ele><time>2026-04-03T15:25:24Z</time></trkpt><trkpt lat="45.626335990787425" lon="8.594283761448295"><ele>287.0</ele><time>2026-04-03T15:25:26Z</time></trkpt><trkpt lat="45.62640191764974" lon="8.594245553458997"><ele>288.0</ele><time>2026-04-03T15:25:27Z</time></trkpt><trkpt lat="45.62647703973035" lon="8.594212366512204"><ele>289.0</ele><time>2026-04-03T15:25:28Z</time></trkpt><trkpt lat="45.62655054418741" lon="8.594175621978334"><ele>289.0</ele><time>2026-04-03T15:25:29Z</time></trkpt><trkpt lat="45.62661771429361" lon="8.594145725272986"><ele>289.0</ele><time>2026-04-03T15:25:30Z</time></trkpt><trkpt lat="45.626686357781274" lon="8.594112852381446"><ele>289.0</ele><time>2026-04-03T15:25:31Z</time></trkpt><trkpt lat="45.62675826440407" lon="8.594071668232539"><ele>289.0</ele><time>2026-04-03T15:25:32Z</time></trkpt><trkpt lat="45.62682873475203" lon="8.59403671792433"><ele>289.0</ele><time>2026-04-03T15:25:33Z</time></trkpt><trkpt lat="45.62690592697825" lon="8.594003653605244"><ele>289.0</ele><time>2026-04-03T15:25:34Z</time></trkpt><trkpt lat="45.62698644170815" lon="8.59396784875833"><ele>289.16666666666663</ele><time>2026-04-03T15:25:35Z</time></trkpt><trkpt lat="45.62706066784465" lon="8.593929075474946"><ele>289.3333333333333</ele><time>2026-04-03T15:25:36Z</time></trkpt><trkpt lat="45.62713433501312" lon="8.593889298277885"><ele>289.5</ele><time>2026-04-03T15:25:37Z</time></trkpt><trkpt lat="45.62720979234105" lon="8.593850960359175"><ele>289.6666666666667</ele><time>2026-04-03T15:25:38Z</time></trkpt><trkpt lat="45.62728050555052" lon="8.593810883626057"><ele>289.83333333333337</ele><time>2026-04-03T15:25:39Z</time></trkpt><trkpt lat="45.62734781868163" lon="8.593768441606773"><ele>290.0</ele><time>2026-04-03T15:25:40Z</time></trkpt><trkpt lat="45.62741431407882" lon="8.59370461038443"><ele>289.8</ele><time>2026-04-03T15:25:41Z</time></trkpt><trkpt lat="45.62748646518315" lon="8.59363600312168"><ele>289.6</ele><time>2026-04-03T15:25:42Z</time></trkpt><trkpt lat="45.627568043937806" lon="8.593561940785584"><ele>289.4</ele><time>2026-04-03T15:25:43Z</time></trkpt><trkpt lat="45.62764615023743" lon="8.593484788316921"><ele>289.2</ele><time>2026-04-03T15:25:44Z</time></trkpt><trkpt lat="45.62773148635364" lon="8.5934123402269"><ele>289.0</ele><time>2026-04-03T15:25:45Z</time></trkpt><trkpt lat="45.62781542600886" lon="8.593337517536645"><ele>289.0</ele><time>2026-04-03T15:25:46Z</time></trkpt><trkpt lat="45.627900429702855" lon="8.593273055045096"><ele>289.0</ele><time>2026-04-03T15:25:47Z</time></trkpt><trkpt lat="45.62797958359438" lon="8.593220910051574"><ele>289.0</ele><time>2026-04-03T15:25:48Z</time></trkpt><trkpt lat="45.62806167092826" lon="8.593159568712302"><ele>289.0</ele><time>2026-04-03T15:25:49Z</time></trkpt><trkpt lat="45.62813168489008" lon="8.593111437364547"><ele>289.0</ele><time>2026-04-03T15:25:50Z</time></trkpt><trkpt lat="45.62823623831628" lon="8.59305894812401"><ele>289.0</ele><time>2026-04-03T15:25:52Z</time></trkpt><trkpt lat="45.62833242491169" lon="8.593109458275093"><ele>289.0</ele><time>2026-04-03T15:25:53.999Z</time></trkpt><trkpt lat="45.628369180188336" lon="8.59319731448792"><ele>289.0</ele><time>2026-04-03T15:25:54.999Z</time></trkpt><trkpt lat="45.62839095039463" lon="8.593333804871799"><ele>289.0</ele><time>2026-04-03T15:25:55.999Z</time></trkpt><trkpt lat="45.62841890411529" lon="8.593509379318693"><ele>289.0</ele><time>2026-04-03T15:25:56.999Z</time></trkpt><trkpt lat="45.62846242107183" lon="8.593685820175075"><ele>289.0</ele><time>2026-04-03T15:25:57.999Z</time></trkpt><trkpt lat="45.628495029919044" lon="8.593818012948487"><ele>289.0</ele><time>2026-04-03T15:25:58.999Z</time></trkpt><trkpt lat="45.62852100051278" lon="8.593922395561451"><ele>289.0</ele><time>2026-04-03T15:25:59.999Z</time></trkpt><trkpt lat="45.62860325187083" lon="8.59401146201481"><ele>289.0</ele><time>2026-04-03T15:26:01.999Z</time></trkpt><trkpt lat="45.62867764770047" lon="8.594011518993463"><ele>289.0</ele><time>2026-04-03T15:26:02.999Z</time></trkpt><trkpt lat="45.62878466130138" lon="8.59390381980127"><ele>289.3333333333333</ele><time>2026-04-03T15:26:03.999Z</time></trkpt><trkpt lat="45.6289272108072" lon="8.593793783654764"><ele>289.6666666666667</ele><time>2026-04-03T15:26:04.999Z</time></trkpt><trkpt lat="45.62910071298029" lon="8.593684008239583"><ele>290.0</ele><time>2026-04-03T15:26:05.999Z</time></trkpt><trkpt lat="45.62929949644264" lon="8.593574492432884"><ele>290.0</ele><time>2026-04-03T15:26:06.999Z</time></trkpt><trkpt lat="45.62950780731352" lon="8.593442186979377"><ele>290.0</ele><time>2026-04-03T15:26:07.999Z</time></trkpt><trkpt lat="45.62972507003905" lon="8.593291147901263"><ele>290.0</ele><time>2026-04-03T15:26:08.999Z</time></trkpt><trkpt lat="45.62993782364719" lon="8.593145488254166"><ele>290.0</ele><time>2026-04-03T15:26:09.999Z</time></trkpt><trkpt lat="45.63010951280483" lon="8.593025800682822"><ele>290.0</ele><time>2026-04-03T15:26:10.999Z</time></trkpt><trkpt lat="45.63026000289081" lon="8.592918979272133"><ele>290.75</ele><time>2026-04-03T15:26:11.999Z</time></trkpt><trkpt lat="45.63039667970524" lon="8.592834346758282"><ele>291.5</ele><time>2026-04-03T15:26:12.999Z</time></trkpt><trkpt lat="45.630519353164765" lon="8.592757891079517"><ele>292.25</ele><time>2026-04-03T15:26:13.999Z</time></trkpt><trkpt lat="45.63062017239354" lon="8.592692717867815"><ele>293.0</ele><time>2026-04-03T15:26:14.999Z</time></trkpt><trkpt lat="45.63070196412446" lon="8.592636236925056"><ele>293.0</ele><time>2026-04-03T15:26:15.999Z</time></trkpt><trkpt lat="45.63076651035016" lon="8.592585248078544"><ele>293.0</ele><time>2026-04-03T15:26:16.999Z</time></trkpt><trkpt lat="45.6308229306791" lon="8.592542212484783"><ele>293.0</ele><time>2026-04-03T15:26:17.999Z</time></trkpt><trkpt lat="45.630915213355834" lon="8.592534360007562"><ele>293.0</ele><time>2026-04-03T15:26:19.999Z</time></trkpt><trkpt lat="45.630960170745354" lon="8.592703581863507"><ele>293.0</ele><time>2026-04-03T15:26:21.999Z</time></trkpt><trkpt lat="45.630993833010386" lon="8.592827243709392"><ele>293.0</ele><time>2026-04-03T15:26:22.999Z</time></trkpt><trkpt lat="45.63099964566836" lon="8.592961472940486"><ele>293.0</ele><time>2026-04-03T15:26:23.999Z</time></trkpt><trkpt lat="45.63102953565776" lon="8.593045708580025"><ele>293.0</ele><time>2026-04-03T15:26:24.999Z</time></trkpt><trkpt lat="45.631145885970454" lon="8.59310070947861"><ele>293.0</ele><time>2026-04-03T15:26:26.999Z</time></trkpt><trkpt lat="45.631221820226344" lon="8.593059844749016"><ele>293.0</ele><time>2026-04-03T15:26:27.999Z</time></trkpt><trkpt lat="45.63131758205989" lon="8.59298143750981"><ele>293.0</ele><time>2026-04-03T15:26:28.999Z</time></trkpt><trkpt lat="45.631461951066974" lon="8.592893711044843"><ele>294.0</ele><time>2026-04-03T15:26:29.999Z</time></trkpt><trkpt lat="45.63163646168912" lon="8.592812308726153"><ele>295.0</ele><time>2026-04-03T15:26:30.999Z</time></trkpt><trkpt lat="45.63181317003832" lon="8.592712485863283"><ele>296.0</ele><time>2026-04-03T15:26:31.999Z</time></trkpt><trkpt lat="45.63201357384316" lon="8.59260384579396"><ele>296.6666666666667</ele><time>2026-04-03T15:26:32.999Z</time></trkpt><trkpt lat="45.6322229767461" lon="8.592508571795282"><ele>297.3333333333333</ele><time>2026-04-03T15:26:33.999Z</time></trkpt><trkpt lat="45.63239066054716" lon="8.592422329081367"><ele>298.0</ele><time>2026-04-03T15:26:34.999Z</time></trkpt><trkpt lat="45.63251676039305" lon="8.592354797757322"><ele>298.0</ele><time>2026-04-03T15:26:35.999Z</time></trkpt><trkpt lat="45.63262849391294" lon="8.592307278169487"><ele>298.0</ele><time>2026-04-03T15:26:36.999Z</time></trkpt><trkpt lat="45.632717937514535" lon="8.592265414562105"><ele>298.0</ele><time>2026-04-03T15:26:37.999Z</time></trkpt><trkpt lat="45.63278902286229" lon="8.592232770826127"><ele>298.0</ele><time>2026-04-03T15:26:38.999Z</time></trkpt><trkpt lat="45.63288662881647" lon="8.59219762330422"><ele>298.0</ele><time>2026-04-03T15:26:40.999Z</time></trkpt><trkpt lat="45.63296389632488" lon="8.592269551758735"><ele>298.75</ele><time>2026-04-03T15:26:42.999Z</time></trkpt><trkpt lat="45.63296282065948" lon="8.592418102527432"><ele>299.5</ele><time>2026-04-03T15:26:43.999Z</time></trkpt><trkpt lat="45.63297074267318" lon="8.592615287960237"><ele>300.25</ele><time>2026-04-03T15:26:44.999Z</time></trkpt><trkpt lat="45.63300120192839" lon="8.59283901482139"><ele>301.0</ele><time>2026-04-03T15:26:45.999Z</time></trkpt><trkpt lat="45.633036364366376" lon="8.593091787118395"><ele>301.0</ele><time>2026-04-03T15:26:46.999Z</time></trkpt><trkpt lat="45.633082635675834" lon="8.593353474060324"><ele>301.0</ele><time>2026-04-03T15:26:47.999Z</time></trkpt><trkpt lat="45.63313479228521" lon="8.59361853851647"><ele>301.0</ele><time>2026-04-03T15:26:48.999Z</time></trkpt><trkpt lat="45.63317753314887" lon="8.593880275131415"><ele>301.75</ele><time>2026-04-03T15:26:49.999Z</time></trkpt><trkpt lat="45.63321740215208" lon="8.594085297387798"><ele>302.5</ele><time>2026-04-03T15:26:50.999Z</time></trkpt><trkpt lat="45.633252434745835" lon="8.594269388420269"><ele>303.25</ele><time>2026-04-03T15:26:51.999Z</time></trkpt><trkpt lat="45.63327603647233" lon="8.594427961478681"><ele>304.0</ele><time>2026-04-03T15:26:52.999Z</time></trkpt><trkpt lat="45.63328752094993" lon="8.594538788337411"><ele>304.16666666666663</ele><time>2026-04-03T15:26:53.999Z</time></trkpt><trkpt lat="45.63330710932158" lon="8.594638763429462"><ele>304.3333333333333</ele><time>2026-04-03T15:26:57.999Z</time></trkpt><trkpt lat="45.63333403340921" lon="8.594736267113902"><ele>304.5</ele><time>2026-04-03T15:27:03Z</time></trkpt><trkpt lat="45.6333375169046" lon="8.594826557167726"><ele>304.6666666666667</ele><time>2026-04-03T15:27:05Z</time></trkpt><trkpt lat="45.63335309353565" lon="8.594953454976757"><ele>304.83333333333337</ele><time>2026-04-03T15:27:08Z</time></trkpt><trkpt lat="45.63330285952318" lon="8.595033970403216"><ele>305.0</ele><time>2026-04-03T15:27:13Z</time></trkpt><trkpt lat="45.633235863632294" lon="8.595092965371887"><ele>305.0</ele><time>2026-04-03T15:27:16Z</time></trkpt><trkpt lat="45.63316641070697" lon="8.595155670738773"><ele>305.0</ele><time>2026-04-03T15:27:18Z</time></trkpt><trkpt lat="45.633092647410265" lon="8.595227302582902"><ele>305.0</ele><time>2026-04-03T15:27:20Z</time></trkpt><trkpt lat="45.63301176730466" lon="8.59530446913497"><ele>305.0</ele><time>2026-04-03T15:27:22Z</time></trkpt><trkpt lat="45.632959784292936" lon="8.59535704812625"><ele>305.0</ele><time>2026-04-03T15:27:23Z</time></trkpt><trkpt lat="45.632893459181446" lon="8.595414956917924"><ele>305.0</ele><time>2026-04-03T15:27:24Z</time></trkpt><trkpt lat="45.63281197451308" lon="8.595490440983264"><ele>302.0</ele><time>2026-04-03T15:27:25Z</time></trkpt><trkpt lat="45.63271095809508" lon="8.5955975093703"><ele>299.0</ele><time>2026-04-03T15:27:26Z</time></trkpt><trkpt lat="45.6325713515647" lon="8.595737894357967"><ele>296.0</ele><time>2026-04-03T15:27:27Z</time></trkpt><trkpt lat="45.6323984407421" lon="8.595909086020617"><ele>296.0</ele><time>2026-04-03T15:27:28Z</time></trkpt><trkpt lat="45.63221623124095" lon="8.596087108541836"><ele>296.0</ele><time>2026-04-03T15:27:29Z</time></trkpt><trkpt lat="45.632064421870645" lon="8.596241069359834"><ele>296.0</ele><time>2026-04-03T15:27:30Z</time></trkpt><trkpt lat="45.63192415346669" lon="8.596382828547224"><ele>294.6666666666667</ele><time>2026-04-03T15:27:31Z</time></trkpt><trkpt lat="45.63178068757154" lon="8.596516733572821"><ele>293.3333333333333</ele><time>2026-04-03T15:27:32Z</time></trkpt><trkpt lat="45.63161899317093" lon="8.596633600457775"><ele>292.0</ele><time>2026-04-03T15:27:33Z</time></trkpt><trkpt lat="45.631419373091774" lon="8.596709197410254"><ele>292.0</ele><time>2026-04-03T15:27:34Z</time></trkpt><trkpt lat="45.63120312287232" lon="8.59683140735956"><ele>292.0</ele><time>2026-04-03T15:27:35Z</time></trkpt><trkpt lat="45.63097003669569" lon="8.59693199287666"><ele>293.5</ele><time>2026-04-03T15:27:36Z</time></trkpt><trkpt lat="45.63073743468029" lon="8.597047324623933"><ele>295.0</ele><time>2026-04-03T15:27:37Z</time></trkpt><trkpt lat="45.630502224986415" lon="8.597168600755127"><ele>294.66666666666663</ele><time>2026-04-03T15:27:38Z</time></trkpt><trkpt lat="45.630272938155926" lon="8.597258713052062"><ele>294.3333333333333</ele><time>2026-04-03T15:27:39Z</time></trkpt><trkpt lat="45.63008303362735" lon="8.597348903358652"><ele>294.0</ele><time>2026-04-03T15:27:40Z</time></trkpt><trkpt lat="45.62992607217685" lon="8.597447026634443"><ele>294.0</ele><time>2026-04-03T15:27:41Z</time></trkpt><trkpt lat="45.62977642918672" lon="8.597514005238272"><ele>294.0</ele><time>2026-04-03T15:27:42Z</time></trkpt><trkpt lat="45.62964493252419" lon="8.597580685013122"><ele>294.0</ele><time>2026-04-03T15:27:43Z</time></trkpt><trkpt lat="45.62954708639973" lon="8.597632276756359"><ele>294.0</ele><time>2026-04-03T15:27:44Z</time></trkpt><trkpt lat="45.62946991233384" lon="8.597663708151442"><ele>293.6666666666667</ele><time>2026-04-03T15:27:45Z</time></trkpt><trkpt lat="45.62940902715457" lon="8.597689026655656"><ele>293.3333333333333</ele><time>2026-04-03T15:27:46Z</time></trkpt><trkpt lat="45.629311241808956" lon="8.597714079727247"><ele>293.0</ele><time>2026-04-03T15:27:48Z</time></trkpt><trkpt lat="45.62922944997486" lon="8.597752678926774"><ele>292.66666666666663</ele><time>2026-04-03T15:27:50Z</time></trkpt><trkpt lat="45.62914794636426" lon="8.597794317074138"><ele>292.3333333333333</ele><time>2026-04-03T15:27:52Z</time></trkpt><trkpt lat="45.62906509946951" lon="8.597851756736357"><ele>292.0</ele><time>2026-04-03T15:27:54Z</time></trkpt><trkpt lat="45.62897487162989" lon="8.59789087898115"><ele>291.8</ele><time>2026-04-03T15:27:56Z</time></trkpt><trkpt lat="45.628882481989706" lon="8.597929499478475"><ele>291.6</ele><time>2026-04-03T15:27:58Z</time></trkpt><trkpt lat="45.62878958735674" lon="8.597975728662236"><ele>291.40000000000003</ele><time>2026-04-03T15:27:59.999Z</time></trkpt><trkpt lat="45.62868822061806" lon="8.59802441634974"><ele>291.2</ele><time>2026-04-03T15:28:01.999Z</time></trkpt><trkpt lat="45.628581798953704" lon="8.598095388950107"><ele>291.0</ele><time>2026-04-03T15:28:03.999Z</time></trkpt><trkpt lat="45.628463627324564" lon="8.598146684738492"><ele>289.8333333333333</ele><time>2026-04-03T15:28:05.999Z</time></trkpt><trkpt lat="45.628399148962124" lon="8.59815302126869"><ele>288.6666666666667</ele><time>2026-04-03T15:28:06.999Z</time></trkpt><trkpt lat="45.62833886603458" lon="8.598183514376686"><ele>287.5</ele><time>2026-04-03T15:28:07.999Z</time></trkpt><trkpt lat="45.62827614115713" lon="8.598215200747068"><ele>286.33333333333337</ele><time>2026-04-03T15:28:08.999Z</time></trkpt><trkpt lat="45.62821510060689" lon="8.598245308898315"><ele>285.1666666666667</ele><time>2026-04-03T15:28:09.999Z</time></trkpt><trkpt lat="45.628103115239085" lon="8.598323015062663"><ele>284.0</ele><time>2026-04-03T15:28:11.999Z</time></trkpt><trkpt lat="45.62799551105608" lon="8.598372489310021"><ele>284.0</ele><time>2026-04-03T15:28:13.999Z</time></trkpt><trkpt lat="45.627902200745886" lon="8.598425288668126"><ele>284.0</ele><time>2026-04-03T15:28:15.999Z</time></trkpt><trkpt lat="45.6277877517022" lon="8.598478611746074"><ele>284.0</ele><time>2026-04-03T15:28:17.999Z</time></trkpt><trkpt lat="45.627724108028424" lon="8.598493076524397"><ele>284.0</ele><time>2026-04-03T15:28:18.999Z</time></trkpt><trkpt lat="45.627663866696075" lon="8.598523907019919"><ele>284.0</ele><time>2026-04-03T15:28:19.999Z</time></trkpt><trkpt lat="45.62754768771837" lon="8.598591509296666"><ele>282.0</ele><time>2026-04-03T15:28:21.999Z</time></trkpt><trkpt lat="45.62747479174288" lon="8.59862458962195"><ele>280.0</ele><time>2026-04-03T15:28:22.999Z</time></trkpt><trkpt lat="45.6274062769946" lon="8.598653258409463"><ele>278.0</ele><time>2026-04-03T15:28:23.999Z</time></trkpt><trkpt lat="45.627341151035196" lon="8.598676267572777"><ele>276.0</ele><time>2026-04-03T15:28:24.999Z</time></trkpt><trkpt lat="45.62724333480363" lon="8.598694842564834"><ele>274.0</ele><time>2026-04-03T15:28:26.999Z</time></trkpt><trkpt lat="45.627185801396735" lon="8.598741049203559"><ele>272.0</ele><time>2026-04-03T15:28:29.999Z</time></trkpt><trkpt lat="45.62721758937959" lon="8.598868191797692"><ele>271.71428571428567</ele><time>2026-04-03T15:28:33.999Z</time></trkpt><trkpt lat="45.62723224800554" lon="8.598967848429222"><ele>271.42857142857144</ele><time>2026-04-03T15:28:35.999Z</time></trkpt><trkpt lat="45.627259531151864" lon="8.59906027282173"><ele>271.1428571428571</ele><time>2026-04-03T15:28:37.999Z</time></trkpt><trkpt lat="45.62726580263303" lon="8.599156775571903"><ele>270.85714285714283</ele><time>2026-04-03T15:28:39.999Z</time></trkpt><trkpt lat="45.627288022748516" lon="8.599263790348907"><ele>270.57142857142856</ele><time>2026-04-03T15:28:41.999Z</time></trkpt><trkpt lat="45.62731285781715" lon="8.599367576032108"><ele>270.2857142857143</ele><time>2026-04-03T15:28:43.999Z</time></trkpt><trkpt lat="45.627335538878235" lon="8.599473789902735"><ele>270.0</ele><time>2026-04-03T15:28:45.999Z</time></trkpt><trkpt lat="45.62735943354047" lon="8.599577532149839"><ele>269.3333333333333</ele><time>2026-04-03T15:28:47.999Z</time></trkpt><trkpt lat="45.62738493257132" lon="8.59968408333873"><ele>268.6666666666667</ele><time>2026-04-03T15:28:49.999Z</time></trkpt><trkpt lat="45.6274115056633" lon="8.599790186918508"><ele>268.0</ele><time>2026-04-03T15:28:51.999Z</time></trkpt><trkpt lat="45.62743552139754" lon="8.599898568761216"><ele>267.33333333333337</ele><time>2026-04-03T15:28:53.999Z</time></trkpt><trkpt lat="45.62746870943406" lon="8.600010010538952"><ele>266.6666666666667</ele><time>2026-04-03T15:28:55.999Z</time></trkpt><trkpt lat="45.62749617723021" lon="8.600126455777284"><ele>266.0</ele><time>2026-04-03T15:28:57.999Z</time></trkpt><trkpt lat="45.62751978798178" lon="8.600244677455732"><ele>265.1666666666667</ele><time>2026-04-03T15:28:59.999Z</time></trkpt><trkpt lat="45.62755047665981" lon="8.600358886479384"><ele>264.33333333333337</ele><time>2026-04-03T15:29:01.999Z</time></trkpt><trkpt lat="45.627580410288104" lon="8.600469103045944"><ele>263.5</ele><time>2026-04-03T15:29:03.999Z</time></trkpt><trkpt lat="45.62760482849957" lon="8.600577620352277"><ele>262.6666666666667</ele><time>2026-04-03T15:29:06Z</time></trkpt><trkpt lat="45.62763386695011" lon="8.60070839858735"><ele>261.8333333333333</ele><time>2026-04-03T15:29:08Z</time></trkpt><trkpt lat="45.62766932500557" lon="8.60084720342789"><ele>261.0</ele><time>2026-04-03T15:29:10Z</time></trkpt><trkpt lat="45.627703378694605" lon="8.600987448438744"><ele>261.0</ele><time>2026-04-03T15:29:12Z</time></trkpt><trkpt lat="45.627732841763255" lon="8.60111522048534"><ele>261.0</ele><time>2026-04-03T15:29:14Z</time></trkpt><trkpt lat="45.627723682316066" lon="8.60123195573576"><ele>261.0</ele><time>2026-04-03T15:29:16Z</time></trkpt><trkpt lat="45.627660079833625" lon="8.60132757854275"><ele>261.0</ele><time>2026-04-03T15:29:18Z</time></trkpt><trkpt lat="45.627552953509934" lon="8.601382925309323"><ele>261.0</ele><time>2026-04-03T15:29:20Z</time></trkpt><trkpt lat="45.627440461662836" lon="8.601457697481626"><ele>261.0</ele><time>2026-04-03T15:29:22Z</time></trkpt><trkpt lat="45.62738172824526" lon="8.60157190657462"><ele>261.0</ele><time>2026-04-03T15:29:24Z</time></trkpt><trkpt lat="45.627382008173825" lon="8.60173908655172"><ele>261.0</ele><time>2026-04-03T15:29:26Z</time></trkpt><trkpt lat="45.6273710607503" lon="8.60189872934787"><ele>261.0</ele><time>2026-04-03T15:29:28Z</time></trkpt><trkpt lat="45.62730941320079" lon="8.602037292961553"><ele>261.0</ele><time>2026-04-03T15:29:30Z</time></trkpt><trkpt lat="45.627179487207194" lon="8.602059218098962"><ele>261.0</ele><time>2026-04-03T15:29:32Z</time></trkpt><trkpt lat="45.62707018067346" lon="8.602061078368239"><ele>261.0</ele><time>2026-04-03T15:29:34Z</time></trkpt><trkpt lat="45.62696687686424" lon="8.602054752811194"><ele>261.0</ele><time>2026-04-03T15:29:36Z</time></trkpt><trkpt lat="45.6268555741704" lon="8.60205597469355"><ele>261.0</ele><time>2026-04-03T15:29:38Z</time></trkpt><trkpt lat="45.626789261640404" lon="8.602058822356165"><ele>261.0</ele><time>2026-04-03T15:29:39Z</time></trkpt><trkpt lat="45.62671470201375" lon="8.602064608674228"><ele>261.2</ele><time>2026-04-03T15:29:40Z</time></trkpt><trkpt lat="45.62664809613839" lon="8.602067595407137"><ele>261.40000000000003</ele><time>2026-04-03T15:29:41Z</time></trkpt><trkpt lat="45.626529347514435" lon="8.60205885713669"><ele>261.6</ele><time>2026-04-03T15:29:43Z</time></trkpt><trkpt lat="45.62641768350574" lon="8.602047967032512"><ele>261.8</ele><time>2026-04-03T15:29:45Z</time></trkpt><trkpt lat="45.62627484433139" lon="8.60204031286193"><ele>262.0</ele><time>2026-04-03T15:29:47Z</time></trkpt><trkpt lat="45.626195142482445" lon="8.60203193027483"><ele>261.57142857142856</ele><time>2026-04-03T15:29:48Z</time></trkpt><trkpt lat="45.626126745887575" lon="8.602024031022774"><ele>261.14285714285717</ele><time>2026-04-03T15:29:49Z</time></trkpt><trkpt lat="45.62605206109896" lon="8.60201098715474"><ele>260.7142857142857</ele><time>2026-04-03T15:29:50Z</time></trkpt><trkpt lat="45.62597677726602" lon="8.602001301226746"><ele>260.2857142857143</ele><time>2026-04-03T15:29:51Z</time></trkpt><trkpt lat="45.625904542470046" lon="8.601990391314867"><ele>259.8571428571429</ele><time>2026-04-03T15:29:52Z</time></trkpt><trkpt lat="45.62583268012426" lon="8.601978855057915"><ele>259.42857142857144</ele><time>2026-04-03T15:29:53Z</time></trkpt><trkpt lat="45.62576669941329" lon="8.601966319918326"><ele>259.0</ele><time>2026-04-03T15:29:54Z</time></trkpt><trkpt lat="45.62570398691347" lon="8.601952804795314"><ele>259.0</ele><time>2026-04-03T15:29:55Z</time></trkpt><trkpt lat="45.625633519191624" lon="8.601939549307245"><ele>259.0</ele><time>2026-04-03T15:29:56Z</time></trkpt><trkpt lat="45.62556223949168" lon="8.60192555415169"><ele>259.0</ele><time>2026-04-03T15:29:57Z</time></trkpt><trkpt lat="45.625489540706994" lon="8.601915330036555"><ele>259.0</ele><time>2026-04-03T15:29:58Z</time></trkpt><trkpt lat="45.62541719569935" lon="8.601904702524651"><ele>259.0</ele><time>2026-04-03T15:29:59Z</time></trkpt><trkpt lat="45.62535157650058" lon="8.601897762826537"><ele>259.0</ele><time>2026-04-03T15:30:00Z</time></trkpt><trkpt lat="45.62522172518513" lon="8.601884234379499"><ele>259.16666666666663</ele><time>2026-04-03T15:30:01.999Z</time></trkpt><trkpt lat="45.62515692607639" lon="8.601874275521133"><ele>259.3333333333333</ele><time>2026-04-03T15:30:02.999Z</time></trkpt><trkpt lat="45.62509228983035" lon="8.60186683438215"><ele>259.5</ele><time>2026-04-03T15:30:03.999Z</time></trkpt><trkpt lat="45.624971317158376" lon="8.60185769550809"><ele>259.6666666666667</ele><time>2026-04-03T15:30:05.999Z</time></trkpt><trkpt lat="45.62489833055047" lon="8.601857041160695"><ele>259.83333333333337</ele><time>2026-04-03T15:30:06.999Z</time></trkpt><trkpt lat="45.624820166117054" lon="8.601861312923692"><ele>260.0</ele><time>2026-04-03T15:30:07.999Z</time></trkpt><trkpt lat="45.62474533839474" lon="8.601866474746657"><ele>260.00000000000006</ele><time>2026-04-03T15:30:08.999Z</time></trkpt><trkpt lat="45.624675108887246" lon="8.601870588167742"><ele>260.0</ele><time>2026-04-03T15:30:09.999Z</time></trkpt><trkpt lat="45.6245994572509" lon="8.601870010184644"><ele>260.0</ele><time>2026-04-03T15:30:10.999Z</time></trkpt><trkpt lat="45.62452868927928" lon="8.60187532513286"><ele>260.0</ele><time>2026-04-03T15:30:11.999Z</time></trkpt><trkpt lat="45.624448445306804" lon="8.601877323090934"><ele>260.0</ele><time>2026-04-03T15:30:12.999Z</time></trkpt><trkpt lat="45.62437794558613" lon="8.601881628903701"><ele>260.00000000000006</ele><time>2026-04-03T15:30:13.999Z</time></trkpt><trkpt lat="45.62430156141205" lon="8.601882344875284"><ele>260.0</ele><time>2026-04-03T15:30:14.999Z</time></trkpt><trkpt lat="45.624228908297425" lon="8.601883003821031"><ele>259.5</ele><time>2026-04-03T15:30:15.999Z</time></trkpt><trkpt lat="45.624152800232544" lon="8.601883743304468"><ele>259.0</ele><time>2026-04-03T15:30:16.999Z</time></trkpt><trkpt lat="45.6240825151298" lon="8.601884328615798"><ele>258.5</ele><time>2026-04-03T15:30:17.999Z</time></trkpt><trkpt lat="45.62401494989342" lon="8.601889115618254"><ele>258.0</ele><time>2026-04-03T15:30:18.999Z</time></trkpt><trkpt lat="45.62390391093459" lon="8.601911679542624"><ele>257.5</ele><time>2026-04-03T15:30:20.999Z</time></trkpt><trkpt lat="45.62382370841229" lon="8.601891156008524"><ele>257.0</ele><time>2026-04-03T15:30:22.999Z</time></trkpt><trkpt lat="45.62370334003085" lon="8.601985032049372"><ele>256.57142857142856</ele><time>2026-04-03T15:30:24.999Z</time></trkpt><trkpt lat="45.62363627994304" lon="8.602046144489286"><ele>256.14285714285717</ele><time>2026-04-03T15:30:25.999Z</time></trkpt><trkpt lat="45.623567251304756" lon="8.602095835171314"><ele>255.71428571428572</ele><time>2026-04-03T15:30:26.999Z</time></trkpt><trkpt lat="45.6235038130559" lon="8.602144213800141"><ele>255.28571428571428</ele><time>2026-04-03T15:30:27.999Z</time></trkpt><trkpt lat="45.623445491776614" lon="8.602190509861966"><ele>254.85714285714283</ele><time>2026-04-03T15:30:28.999Z</time></trkpt><trkpt lat="45.62338397796115" lon="8.60224094881345"><ele>254.42857142857144</ele><time>2026-04-03T15:30:29.999Z</time></trkpt><trkpt lat="45.62332467386016" lon="8.602303571067885"><ele>254.0</ele><time>2026-04-03T15:30:30.999Z</time></trkpt><trkpt lat="45.62326107506234" lon="8.602365970884032"><ele>254.00000000000003</ele><time>2026-04-03T15:30:31.999Z</time></trkpt><trkpt lat="45.62319850889182" lon="8.60242444539475"><ele>254.0</ele><time>2026-04-03T15:30:32.999Z</time></trkpt><trkpt lat="45.62313247885834" lon="8.602486029809873"><ele>254.0</ele><time>2026-04-03T15:30:33.999Z</time></trkpt><trkpt lat="45.623062052485075" lon="8.602534855688724"><ele>254.0</ele><time>2026-04-03T15:30:34.999Z</time></trkpt><trkpt lat="45.6229887663121" lon="8.60257948735171"><ele>254.00000000000003</ele><time>2026-04-03T15:30:35.999Z</time></trkpt><trkpt lat="45.622911702812395" lon="8.602618268335195"><ele>254.0</ele><time>2026-04-03T15:30:36.999Z</time></trkpt><trkpt lat="45.62284227008626" lon="8.602662122069583"><ele>253.66666666666669</ele><time>2026-04-03T15:30:37.999Z</time></trkpt><trkpt lat="45.62277337219146" lon="8.602712240862651"><ele>253.33333333333334</ele><time>2026-04-03T15:30:38.999Z</time></trkpt><trkpt lat="45.622703208948224" lon="8.602759461409994"><ele>253.0</ele><time>2026-04-03T15:30:39.999Z</time></trkpt><trkpt lat="45.62263118484731" lon="8.602801502648218"><ele>252.66666666666669</ele><time>2026-04-03T15:30:40.999Z</time></trkpt><trkpt lat="45.62255887383391" lon="8.60284481644928"><ele>252.33333333333334</ele><time>2026-04-03T15:30:41.999Z</time></trkpt><trkpt lat="45.62248001022411" lon="8.602899747017755"><ele>252.0</ele><time>2026-04-03T15:30:42.999Z</time></trkpt><trkpt lat="45.62240663108475" lon="8.602944485858107"><ele>252.5</ele><time>2026-04-03T15:30:43.999Z</time></trkpt><trkpt lat="45.62233811055034" lon="8.603003293479972"><ele>253.0</ele><time>2026-04-03T15:30:44.999Z</time></trkpt><trkpt lat="45.62225892451795" lon="8.603053949212102"><ele>253.5</ele><time>2026-04-03T15:30:45.999Z</time></trkpt><trkpt lat="45.6221832548742" lon="8.603097457599734"><ele>254.0</ele><time>2026-04-03T15:30:46.999Z</time></trkpt><trkpt lat="45.62209448284244" lon="8.603132349803895"><ele>254.5</ele><time>2026-04-03T15:30:47.999Z</time></trkpt><trkpt lat="45.62201234917325" lon="8.60318006837014"><ele>255.0</ele><time>2026-04-03T15:30:48.999Z</time></trkpt><trkpt lat="45.621942004710355" lon="8.603220170270529"><ele>255.0</ele><time>2026-04-03T15:30:49.999Z</time></trkpt><trkpt lat="45.6218772112396" lon="8.603254390125278"><ele>255.0</ele><time>2026-04-03T15:30:50.999Z</time></trkpt><trkpt lat="45.62181488046401" lon="8.603289362420073"><ele>255.0</ele><time>2026-04-03T15:30:51.999Z</time></trkpt><trkpt lat="45.62175780403297" lon="8.603331230326766"><ele>255.0</ele><time>2026-04-03T15:30:52.999Z</time></trkpt><trkpt lat="45.621640912067804" lon="8.603398332071281"><ele>255.0</ele><time>2026-04-03T15:30:54.999Z</time></trkpt><trkpt lat="45.6215692849876" lon="8.603426004681547"><ele>255.0</ele><time>2026-04-03T15:30:55.999Z</time></trkpt><trkpt lat="45.621498261295336" lon="8.603462098678353"><ele>255.0</ele><time>2026-04-03T15:30:56.999Z</time></trkpt><trkpt lat="45.62143752213707" lon="8.603501955355433"><ele>255.0</ele><time>2026-04-03T15:30:57.999Z</time></trkpt><trkpt lat="45.62136064056915" lon="8.603545148282095"><ele>255.0</ele><time>2026-04-03T15:30:58.999Z</time></trkpt><trkpt lat="45.621276965760615" lon="8.603575874196352"><ele>255.0</ele><time>2026-04-03T15:30:59.999Z</time></trkpt><trkpt lat="45.62120809443165" lon="8.603602255108385"><ele>255.0</ele><time>2026-04-03T15:31:00.999Z</time></trkpt><trkpt lat="45.62114314766747" lon="8.603634489924586"><ele>255.0</ele><time>2026-04-03T15:31:01.999Z</time></trkpt><trkpt lat="45.621034380378276" lon="8.603694875424477"><ele>255.5</ele><time>2026-04-03T15:31:03.999Z</time></trkpt><trkpt lat="45.62094343881126" lon="8.603734067486041"><ele>256.0</ele><time>2026-04-03T15:31:05.999Z</time></trkpt><trkpt lat="45.620881928135695" lon="8.603754108483436"><ele>256.5</ele><time>2026-04-03T15:31:08.999Z</time></trkpt><trkpt lat="45.620806031538045" lon="8.603734907483828"><ele>257.0</ele><time>2026-04-03T15:31:42Z</time></trkpt><trkpt lat="45.620881919718116" lon="8.604088325752798"><ele>257.0</ele><time>2026-04-03T15:31:47Z</time></trkpt><trkpt lat="45.62092224208692" lon="8.604172766088691"><ele>257.0</ele><time>2026-04-03T15:31:49Z</time></trkpt><trkpt lat="45.62090416905806" lon="8.604261243497458"><ele>257.0</ele><time>2026-04-03T15:31:55Z</time></trkpt><trkpt lat="45.62092793728471" lon="8.60435734505318"><ele>257.0</ele><time>2026-04-03T15:32:01Z</time></trkpt><trkpt lat="45.62089842198111" lon="8.604437688144392"><ele>257.0</ele><time>2026-04-03T15:32:09.999Z</time></trkpt><trkpt lat="45.62080214428256" lon="8.604417655460802"><ele>257.0</ele><time>2026-04-03T15:32:14.999Z</time></trkpt><trkpt lat="45.62066629692716" lon="8.60451971038641"><ele>258.0</ele><time>2026-04-03T15:32:18.999Z</time></trkpt><trkpt lat="45.62072570655366" lon="8.604478121123115"><ele>257.0</ele><time>2026-04-03T15:32:23.999Z</time></trkpt><trkpt lat="45.6207598546226" lon="8.604388267240425"><ele>257.0</ele><time>2026-04-03T15:32:25.999Z</time></trkpt><trkpt lat="45.62082402623561" lon="8.604359989348326"><ele>257.0</ele><time>2026-04-03T15:32:41.999Z</time></trkpt></trkseg></trk></gpx>